[[{"header":{"parameterUnit":"m.s-1","parameterCategory":1,"la1":30.6,"la2":28.766,"lo1":-90.7593,"lo2":-88.6598,"dy":0.0162,"dx":0.0183,"nx":116,"ny":114,"refTime":"2023-07-10T00:00:00:Z","depth":0,"parameterNumber":2,"parameterNumberName":"U-component_of_WINDS"},"data":[0.0,0.0,0.0,0.0,0.0,0.0,0.0,0.0,0.0,0.0,0.0,0.0,0.0,0.0,0.0,0.0,0.0,0.0,0.0,0.0,0.0,0.0,0.0,0.0,0.0,0.0,0.0,0.0,0.0,0.0,0.0,0.0,0.0,0.0,0.0,0.0,0.0,0.0,0.0,0.0,0.0,0.0,0.0,0.0,0.0,0.0,0.0,0.0,0.0,0.0,0.0,0.0,0.0,0.0,0.0,0.0,0.0,0.0,0.0,0.0,0.0,0.0,0.0,0.0,0.0,0.0,0.0,0.0,0.0,0.0,0.0,0.0,0.0,0.0,0.0,0.0,0.0,0.0,0.0,0.0,0.0,0.0,0.0,0.0,0.0,0.0,0.0,0.0,0.0,0.0,0.0,0.0,0.0,0.0,0.0,0.0,0.0,0.0,0.0,0.0,0.0,0.0,0.0,0.0,0.0,0.0,0.0,0.0,0.0,0.0,0.0,0.0,0.0,0.0,0.0,0.0,0.0,0.0,0.0,0.0,0.0,0.0,0.0,0.0,0.0,0.0,0.0,0.0,0.0,0.0,0.0,0.0,0.0,0.0,0.0,0.0,0.0,0.0,0.0,0.0,0.0,0.0,0.0,0.0,0.0,0.0,0.0,0.0,0.0,0.0,0.0,0.0,0.0,0.0,0.0,0.0,0.0,0.0,0.0,0.0,0.0,0.0,0.0,0.0,0.0,0.0,0.0,0.0,0.0,0.0,0.0,0.0,0.0,0.0,0.0,0.0,0.0,0.0,0.0,0.0,0.0,0.0,0.0,0.0,0.0,0.0,0.0,0.0,0.0,0.0,0.0,0.0,0.0,0.0,0.0,0.0,0.0,0.0,0.0,0.0,0.0,0.0,0.0,0.0,0.0,0.0,0.0,0.0,0.0,0.0,0.0,0.0,0.0,0.0,0.0,0.0,0.0,0.0,0.0,0.0,0.0,0.0,0.0,0.0,0.0,0.0,0.0,0.0,0.0,0.0,0.0,0.0,0.0,0.0,0.0,0.0,0.0,0.0,0.0,0.0,0.0,0.0,0.0,0.0,0.0,0.0,0.0,0.0,0.0,0.0,0.0,0.0,0.0,0.0,0.0,0.0,0.0,0.0,0.0,0.0,0.0,0.0,0.0,0.0,0.0,0.0,0.0,0.0,0.0,0.0,0.0,0.0,0.0,0.0,0.0,0.0,0.0,0.0,0.0,0.0,0.0,0.0,0.0,0.0,0.0,0.0,0.0,0.0,0.0,0.0,0.0,0.0,0.0,0.0,0.0,0.0,0.0,0.0,0.0,0.0,0.0,0.0,0.0,0.0,0.0,0.0,0.0,0.0,0.0,0.0,0.0,0.0,0.0,0.0,0.0,0.0,0.0,0.0,0.0,0.0,0.0,0.0,0.0,0.0,0.0,0.0,0.0,0.0,0.0,0.0,0.0,0.0,0.0,0.0,0.0,0.0,0.0,0.0,0.0,0.0,0.0,0.0,0.0,0.0,0.0,0.0,0.0,0.0,0.0,0.0,0.0,0.0,0.0,0.0,0.0,0.0,0.0,0.0,0.0,0.0,0.0,0.0,0.0,0.0,0.0,0.0,0.0,0.0,0.0,0.0,0.0,0.0,0.0,0.0,0.0,0.0,0.0,0.0,0.0,0.0,0.0,0.0,0.0,0.0,0.0,0.0,0.0,0.0,0.0,0.0,0.0,0.0,0.0,0.0,0.0,0.0,0.0,0.0,0.0,0.0,0.0,0.0,0.0,0.0,0.0,0.0,0.0,0.0,0.0,0.0,0.0,0.0,0.0,0.0,0.0,0.0,0.0,0.0,0.0,0.0,0.0,0.0,0.0,0.0,0.0,0.0,0.0,0.0,0.0,0.0,0.0,0.0,0.0,0.0,0.0,0.0,0.0,0.0,0.0,0.0,0.0,0.0,0.0,0.0,0.0,0.0,0.0,0.0,0.0,0.0,0.0,0.0,0.0,0.0,0.0,0.0,0.0,0.0,0.0,0.0,0.0,0.0,0.0,0.0,0.0,0.0,0.0,0.0,0.0,0.0,0.0,0.0,0.0,0.0,0.0,0.0,0.0,0.0,0.0,0.0,0.0,0.0,0.0,0.0,0.0,0.0,0.0,0.0,0.0,0.0,0.0,0.0,0.0,0.0,0.0,0.0,0.0,0.0,0.0,0.0,0.0,0.0,0.0,0.0,0.0,0.0,0.0,0.0,0.0,0.0,0.0,0.0,0.0,0.0,0.0,0.0,0.0,0.0,0.0,0.0,0.0,0.0,0.0,0.0,0.0,0.0,0.0,0.0,0.0,0.0,0.0,0.0,0.0,0.0,0.0,0.0,0.0,0.0,0.0,0.0,0.0,0.0,0.0,0.0,0.0,0.0,0.0,0.0,0.0,0.0,0.0,0.0,0.0,0.0,0.0,0.0,0.0,0.0,0.0,0.0,0.0,0.0,0.0,0.0,0.0,0.0,0.0,0.0,0.0,0.0,0.0,0.0,0.0,0.0,0.0,0.0,0.0,0.0,0.0,0.0,0.0,0.0,0.0,0.0,0.0,0.0,0.0,0.0,0.0,0.0,0.0,0.0,0.0,0.0,0.0,0.0,0.0,0.0,0.0,0.0,0.0,0.0,0.0,0.0,0.0,0.0,0.0,0.0,0.0,0.0,0.0,0.0,0.0,0.0,0.0,0.0,0.0,0.0,0.0,0.0,0.0,0.0,0.0,0.0,0.0,0.0,0.0,0.0,0.0,0.0,0.0,0.0,0.0,0.0,0.0,0.0,0.0,0.0,0.0,0.0,0.0,0.0,0.0,0.0,0.0,0.0,0.0,0.0,0.0,0.0,0.0,0.0,0.0,0.0,0.0,0.0,0.0,0.0,0.0,0.0,0.0,0.0,0.0,0.0,0.0,0.0,0.0,0.0,0.0,0.0,0.0,0.0,0.0,0.0,0.0,0.0,0.0,0.0,0.0,0.0,0.0,0.0,0.0,0.0,0.0,0.0,0.0,0.0,0.0,0.0,0.0,0.0,0.0,0.0,0.0,0.0,0.0,0.0,0.0,0.0,0.0,0.0,0.0,0.0,0.0,0.0,0.0,0.0,0.0,0.0,0.0,0.0,0.0,0.0,0.0,0.0,0.0,0.0,0.0,0.0,0.0,0.0,0.0,0.0,0.0,0.0,0.0,0.0,0.0,0.0,0.0,0.0,0.0,0.0,0.0,0.0,0.0,0.0,0.0,0.0,0.0,0.0,0.0,0.0,0.0,0.0,0.0,0.0,0.0,0.0,0.0,0.0,0.0,0.0,0.0,0.0,0.0,0.0,0.0,0.0,0.0,0.0,0.0,0.0,0.0,0.0,0.0,0.0,0.0,0.0,0.0,0.0,0.0,0.0,0.0,0.0,0.0,0.0,0.0,0.0,0.0,0.0,0.0,0.0,0.0,0.0,0.0,0.0,0.0,0.0,0.0,0.0,0.0,0.0,0.0,0.0,0.0,0.0,0.0,0.0,0.0,0.0,0.0,0.0,0.0,0.0,0.0,0.0,0.0,0.0,0.0,0.0,0.0,0.0,0.0,0.0,0.0,0.0,0.0,0.0,0.0,0.0,0.0,0.0,0.0,0.0,0.0,0.0,0.0,0.0,0.0,0.0,0.0,0.0,0.0,0.0,0.0,0.0,0.0,0.0,0.0,0.0,0.0,0.0,0.0,0.0,0.0,0.0,0.0,0.0,0.0,0.0,0.0,0.0,0.0,0.0,0.0,0.0,0.0,0.0,0.0,0.0,0.0,0.0,0.0,0.0,0.0,0.0,0.0,0.0,0.0,0.0,0.0,0.0,0.0,0.0,0.0,0.0,0.0,0.0,0.0,0.0,0.0,0.0,0.0,0.0,0.0,0.0,0.0,0.0,0.0,0.0,0.0,0.0,0.0,0.0,0.0,0.0,0.0,0.0,0.0,0.0,0.0,0.0,0.0,0.0,0.0,0.0,0.0,0.0,0.0,0.0,0.0,0.0,0.0,0.0,0.0,0.0,0.0,0.0,0.0,0.0,0.0,0.0,0.0,0.0,0.0,0.0,0.0,0.0,0.0,0.0,0.0,0.0,0.0,0.0,0.0,0.0,0.0,0.0,0.0,0.0,0.0,0.0,0.0,0.0,0.0,0.0,0.0,0.0,0.0,0.0,0.0,0.0,0.0,0.0,0.0,0.0,0.0,0.0,0.0,0.0,0.0,0.0,0.0,0.0,0.0,0.0,0.0,0.0,0.0,0.0,0.0,0.0,0.0,0.0,0.0,0.0,0.0,0.0,0.0,0.0,0.0,0.0,0.0,0.0,0.0,0.0,0.0,0.0,0.0,0.0,0.0,0.0,0.0,0.0,0.0,0.0,0.0,0.0,0.0,0.0,0.0,0.0,0.0,0.0,0.0,0.0,0.0,0.0,0.0,0.0,0.0,0.0,0.0,0.0,0.0,0.0,0.0,0.0,0.0,0.0,0.0,0.0,0.0,0.0,0.0,0.0,0.0,0.0,0.0,0.0,0.0,0.0,0.0,0.0,0.0,0.0,0.0,0.0,0.0,0.0,0.0,0.0,0.0,0.0,0.0,0.0,0.0,0.0,0.0,0.0,0.0,0.0,0.0,0.0,0.0,0.0,0.0,0.0,0.0,0.0,0.0,0.0,0.0,0.0,0.0,0.0,0.0,0.0,0.0,0.0,0.0,0.0,0.0,0.0,0.0,0.0,0.0,0.0,0.0,0.0,0.0,0.0,0.0,0.0,0.0,0.0,0.0,0.0,0.0,0.0,0.0,0.0,0.0,0.0,0.0,0.0,0.0,0.0,0.0,0.0,0.0,0.0,0.0,0.0,0.0,0.0,0.0,0.0,0.0,0.0,0.0,0.0,0.0,0.0,0.0,0.0,0.0,0.0,0.0,0.0,0.0,0.0,0.0,0.0,0.0,0.0,0.0,0.0,0.0,0.0,0.0,0.0,0.0,0.0,0.0,0.0,0.0,0.0,0.0,0.0,0.0,0.0,0.0,0.0,0.0,0.0,0.0,0.0,0.0,0.0,0.0,0.0,0.0,0.0,0.0,0.0,0.0,0.0,0.0,0.0,0.0,0.0,0.0,0.0,0.0,0.0,0.0,0.0,0.0,0.0,0.0,0.0,0.0,0.0,0.0,0.0,0.0,0.0,0.0,0.0,0.0,0.0,0.0,0.0,0.0,0.0,0.0,0.0,0.0,0.0,0.0,0.0,0.0,0.0,0.0,0.0,0.0,0.0,0.0,0.0,0.0,0.0,0.0,0.0,0.0,0.0,0.0,0.0,0.0,0.0,0.0,0.0,0.0,0.0,0.0,0.0,0.0,0.0,0.0,0.0,0.0,0.0,0.0,0.0,0.0,0.0,0.0,0.0,0.0,0.0,0.0,0.0,0.0,0.0,0.0,0.0,0.0,0.0,0.0,0.0,0.0,0.0,0.0,0.0,0.0,0.0,0.0,0.0,0.0,0.0,0.0,0.0,0.0,0.0,0.0,0.0,0.0,0.0,0.0,0.0,0.0,0.0,0.0,0.0,0.0,0.0,0.0,0.0,0.0,0.0,0.0,0.0,0.0,0.0,0.0,0.0,0.0,0.0,0.0,0.0,0.0,0.0,0.0,0.0,0.0,0.0,0.0,0.0,0.0,0.0,0.0,0.0,0.0,0.0,0.0,0.0,0.0,0.0,0.0,0.0,0.0,0.0,0.0,0.0,0.0,0.0,0.0,0.0,0.0,0.0,0.0,0.0,0.0,0.0,0.0,0.0,0.0,0.0,0.0,0.0,0.0,0.0,0.0,0.0,0.0,0.0,0.0,0.0,0.0,0.0,0.0,0.0,0.0,0.0,0.0,0.0,0.0,0.0,0.0,0.0,0.0,0.0,0.0,0.0,0.0,0.0,0.0,0.0,0.0,0.0,0.0,0.0,0.0,0.0,0.0,0.0,0.0,0.0,0.0,0.0,0.0,0.0,0.0,0.0,0.0,0.0,0.0,0.0,0.0,0.0,0.0,0.0,0.0,0.0,0.0,0.0,0.0,0.0,-4.7375,0.0,0.0,0.0,0.0,0.0,0.0,0.0,0.0,0.0,0.0,0.0,0.0,0.0,0.0,0.0,0.0,0.0,0.0,0.0,0.0,0.0,0.0,0.0,0.0,0.0,0.0,0.0,0.0,0.0,0.0,0.0,0.0,0.0,0.0,0.0,0.0,0.0,0.0,0.0,0.0,0.0,0.0,0.0,0.0,0.0,0.0,0.0,0.0,0.0,0.0,0.0,0.0,0.0,0.0,0.0,0.0,0.0,0.0,0.0,0.0,0.0,0.0,0.0,0.0,0.0,0.0,0.0,0.0,0.0,0.0,0.0,0.0,0.0,0.0,0.0,0.0,0.0,0.0,0.0,0.0,0.0,0.0,0.0,0.0,0.0,0.0,0.0,0.0,0.0,0.0,0.0,0.0,0.0,0.0,0.0,0.0,0.0,0.0,0.0,0.0,0.0,0.0,0.0,0.0,0.0,0.0,0.0,0.0,0.0,0.0,0.0,0.0,0.0,0.0,0.0,0.0,-4.6354,0.0,0.0,0.0,0.0,0.0,0.0,0.0,0.0,0.0,0.0,0.0,0.0,0.0,0.0,0.0,0.0,0.0,0.0,0.0,0.0,0.0,0.0,0.0,0.0,0.0,0.0,0.0,0.0,0.0,0.0,0.0,0.0,0.0,0.0,0.0,0.0,0.0,0.0,0.0,0.0,0.0,0.0,0.0,0.0,0.0,0.0,0.0,0.0,0.0,0.0,0.0,0.0,0.0,0.0,0.0,0.0,0.0,0.0,0.0,0.0,0.0,0.0,0.0,0.0,0.0,0.0,0.0,0.0,0.0,0.0,0.0,0.0,0.0,0.0,0.0,0.0,0.0,0.0,0.0,0.0,0.0,0.0,0.0,0.0,0.0,0.0,0.0,0.0,0.0,0.0,0.0,0.0,0.0,0.0,0.0,0.0,0.0,0.0,0.0,0.0,0.0,0.0,0.0,0.0,0.0,0.0,0.0,0.0,-4.9937,-5.0152,-4.936,-4.9597,-4.9466,-4.9062,-4.8862,-4.7943,-4.6477,0.0,0.0,0.0,0.0,0.0,0.0,0.0,0.0,0.0,0.0,0.0,0.0,0.0,0.0,0.0,0.0,0.0,0.0,0.0,0.0,0.0,0.0,0.0,0.0,0.0,0.0,0.0,0.0,0.0,0.0,0.0,0.0,0.0,0.0,0.0,0.0,0.0,0.0,0.0,-3.3788,-3.3291,-3.2866,-3.2541,0.0,0.0,0.0,0.0,0.0,0.0,0.0,0.0,0.0,0.0,0.0,0.0,0.0,0.0,0.0,0.0,0.0,0.0,0.0,0.0,0.0,0.0,0.0,0.0,0.0,0.0,0.0,0.0,0.0,0.0,0.0,0.0,0.0,0.0,0.0,0.0,0.0,0.0,0.0,0.0,0.0,0.0,0.0,0.0,-4.0315,-4.3392,0.0,0.0,0.0,0.0,0.0,0.0,0.0,0.0,0.0,0.0,0.0,0.0,0.0,0.0,-4.7547,-4.8644,-4.9749,-5.098,-5.1756,-5.1971,-5.1682,-5.1712,-5.1569,-5.1137,-4.889,0.0,-4.6406,-4.5718,0.0,0.0,0.0,0.0,0.0,0.0,0.0,0.0,0.0,0.0,0.0,0.0,0.0,0.0,0.0,0.0,0.0,0.0,0.0,0.0,0.0,0.0,0.0,0.0,0.0,0.0,0.0,0.0,0.0,0.0,0.0,0.0,0.0,0.0,0.0,0.0,-3.4606,-3.5761,-3.6376,-3.6066,-3.5818,-3.5626,-3.6079,-3.5029,-3.2914,-3.2644,0.0,0.0,0.0,0.0,0.0,0.0,0.0,0.0,0.0,0.0,0.0,0.0,0.0,0.0,0.0,0.0,0.0,0.0,0.0,0.0,0.0,0.0,0.0,0.0,0.0,0.0,0.0,0.0,0.0,0.0,0.0,0.0,0.0,0.0,0.0,0.0,0.0,0.0,0.0,-4.0235,-4.2079,-4.3768,-4.2687,-4.148,0.0,0.0,0.0,0.0,0.0,0.0,0.0,0.0,0.0,-4.6413,-4.7652,-4.863,-4.9258,-5.041,-5.1257,-5.178,-5.2216,-5.2239,-5.1889,-5.2036,-5.1705,-5.0927,-4.9398,-4.8114,-4.6973,-4.5665,-4.4337,-4.3098,0.0,0.0,0.0,0.0,0.0,-3.8876,0.0,0.0,0.0,0.0,0.0,0.0,0.0,0.0,0.0,0.0,0.0,0.0,0.0,0.0,0.0,0.0,0.0,0.0,0.0,0.0,0.0,0.0,0.0,0.0,0.0,0.0,0.0,0.0,-3.6651,-3.7944,-3.8733,-3.8615,-3.8245,-3.7708,-3.7613,-3.6095,-3.3609,-3.348,-3.2683,0.0,0.0,0.0,0.0,0.0,0.0,0.0,0.0,0.0,0.0,0.0,0.0,0.0,0.0,0.0,0.0,0.0,0.0,0.0,0.0,0.0,0.0,0.0,0.0,0.0,0.0,0.0,0.0,0.0,0.0,0.0,0.0,0.0,0.0,0.0,0.0,0.0,0.0,-4.199,-4.3156,-4.4155,-4.3605,-4.274,0.0,0.0,0.0,0.0,0.0,0.0,-4.4867,-4.6389,-4.7417,-4.7837,-4.9209,-5.001,-5.0228,-5.1013,-5.1427,-5.1491,-5.1597,-5.1437,-5.1083,-5.128,-5.1065,-5.0446,-4.9888,-4.9061,-4.8023,-4.6085,-4.4564,-4.349,-4.3066,-4.2036,-4.0636,-3.9963,-4.0104,-4.0491,0.0,0.0,0.0,0.0,0.0,0.0,0.0,0.0,0.0,0.0,0.0,0.0,0.0,0.0,0.0,0.0,0.0,0.0,0.0,0.0,0.0,0.0,0.0,0.0,0.0,0.0,0.0,-3.7128,-3.8765,-3.9571,-3.9623,-3.9189,-3.8517,-3.7701,-3.7697,-3.6398,-3.4181,-3.4206,-3.3263,-3.1476,0.0,0.0,0.0,0.0,0.0,0.0,0.0,0.0,0.0,0.0,0.0,0.0,0.0,0.0,0.0,0.0,0.0,0.0,0.0,0.0,0.0,0.0,0.0,0.0,0.0,0.0,0.0,0.0,0.0,0.0,0.0,0.0,0.0,0.0,0.0,0.0,0.0,0.0,0.0,-4.4971,-4.5876,0.0,0.0,0.0,0.0,-4.2287,-4.3252,-4.4686,-4.6506,-4.7441,-4.8566,-4.9898,-4.9471,-4.9422,-4.9739,-4.9028,-4.9064,-4.9819,-4.9585,-4.9424,-4.9442,-4.9442,-4.9834,-5.0446,-4.9888,-4.9637,-4.9539,-4.7595,-4.6397,-4.5713,-4.4152,-4.3926,-4.4131,-4.1563,-4.1515,-4.2639,0.0,0.0,0.0,0.0,0.0,0.0,0.0,0.0,0.0,0.0,0.0,0.0,0.0,0.0,0.0,0.0,0.0,0.0,0.0,0.0,0.0,0.0,0.0,0.0,0.0,0.0,-3.6799,-3.7368,-3.9031,-3.9781,-3.9693,-3.8914,-3.8186,-3.7505,-3.7235,-3.6114,-3.4463,-3.526,-3.4651,-3.2968,-3.1541,-2.9863,0.0,0.0,0.0,0.0,0.0,0.0,0.0,0.0,0.0,0.0,0.0,0.0,0.0,0.0,0.0,0.0,0.0,0.0,0.0,0.0,0.0,0.0,0.0,0.0,0.0,0.0,0.0,0.0,0.0,0.0,0.0,0.0,0.0,0.0,0.0,0.0,0.0,-4.5234,-4.5308,0.0,-4.4369,-4.4467,-4.4537,-4.4484,-4.5968,-4.7155,-4.7818,-4.8829,-4.9325,-4.9311,-4.9466,-4.9586,-4.9693,-4.9423,-4.9331,-4.946,-4.9507,-4.946,-4.9317,-4.9317,-4.9478,-4.9679,-4.8697,-4.8592,-4.8931,-4.6901,-4.6267,-4.6407,-4.4842,-4.4245,-4.4187,-4.2713,-4.2382,-4.2729,0.0,0.0,0.0,0.0,0.0,0.0,0.0,0.0,0.0,0.0,0.0,0.0,0.0,0.0,0.0,0.0,0.0,0.0,0.0,0.0,0.0,0.0,0.0,0.0,0.0,-3.6478,-3.7833,-3.8385,-3.9223,-3.9694,-3.9772,-3.8546,-3.7722,-3.7239,-3.6838,-3.5789,-3.4393,-3.5353,-3.5175,-3.4144,-3.3158,-3.1018,-2.8362,0.0,0.0,0.0,0.0,0.0,0.0,0.0,0.0,0.0,0.0,0.0,0.0,0.0,0.0,0.0,0.0,0.0,0.0,0.0,0.0,0.0,0.0,0.0,0.0,0.0,0.0,0.0,0.0,0.0,0.0,0.0,0.0,0.0,0.0,0.0,-4.4139,-4.5379,-4.5151,-4.5009,-4.5123,-4.5249,-4.5677,-4.6478,-4.7706,-4.8541,-4.8902,-4.9334,-4.9458,-4.9205,-4.9244,-4.9251,-4.9159,-4.8908,-4.8719,-4.8532,-4.8719,-4.8672,-4.8532,-4.8532,-4.8419,-4.8161,-4.7963,-4.7734,-4.7449,-4.6608,-4.6444,-4.6583,-4.5253,-4.4587,-4.4428,-4.4056,-4.3475,-4.3055,0.0,0.0,0.0,0.0,0.0,0.0,0.0,0.0,0.0,0.0,0.0,0.0,0.0,0.0,0.0,0.0,0.0,0.0,0.0,0.0,0.0,0.0,0.0,0.0,-3.782,-3.7945,-3.8738,-4.0271,-3.9484,-3.9387,-3.9889,-3.8155,-3.7232,-3.6948,-3.6515,-3.5469,-3.4002,-3.45,-3.4735,-3.4703,-3.3463,-3.1742,-2.9599,0.0,0.0,0.0,0.0,0.0,0.0,0.0,0.0,0.0,0.0,0.0,0.0,0.0,0.0,0.0,0.0,0.0,0.0,0.0,0.0,0.0,0.0,0.0,0.0,0.0,0.0,0.0,0.0,0.0,0.0,0.0,0.0,0.0,-4.2019,-4.3507,-4.4769,-4.5432,-4.5668,-4.6025,-4.6717,-4.6898,-4.7301,-4.8168,-4.8175,-4.8637,-4.9575,-4.8866,-4.8758,-4.9531,-4.8794,-4.8326,-4.815,-4.739,-4.7033,-4.7033,-4.6998,-4.6998,-4.6998,-4.6998,-4.6666,-4.6122,-4.7611,-4.7133,-4.5337,-4.6868,-4.6995,-4.6258,-4.5391,-4.5082,-4.518,-4.5615,-4.4933,-4.3767,0.0,0.0,0.0,0.0,0.0,0.0,0.0,0.0,0.0,0.0,0.0,0.0,0.0,0.0,0.0,0.0,0.0,0.0,0.0,0.0,0.0,0.0,0.0,0.0,-3.8003,-3.9143,-3.9642,-3.9496,-3.9285,-3.8914,-3.8378,-3.7072,-3.6402,-3.6249,-3.5494,-3.4443,-3.3265,-3.4182,-3.4029,-3.3148,-3.2954,-3.1846,-3.0264,0.0,0.0,0.0,0.0,0.0,0.0,0.0,0.0,0.0,0.0,0.0,0.0,0.0,0.0,0.0,0.0,0.0,0.0,0.0,0.0,0.0,0.0,0.0,0.0,0.0,0.0,0.0,0.0,0.0,0.0,0.0,0.0,-4.3448,-4.4032,-4.4617,-4.5192,-4.5668,-4.5502,-4.5533,-4.6052,-4.6123,-4.6712,-4.8086,-4.8175,-4.8311,-4.8619,-4.733,-4.6373,-4.5998,-4.6338,-4.6534,-4.6462,-4.739,-4.7854,-4.7836,-4.7265,-4.6998,-4.6998,-4.6998,-4.6968,-4.684,-4.6257,-4.6041,-4.5958,-4.4738,-4.4388,-4.4674,-4.5,-4.5375,-4.5766,-4.5259,-4.5144,-4.5014,0.0,0.0,0.0,0.0,0.0,0.0,0.0,0.0,0.0,0.0,0.0,0.0,0.0,0.0,0.0,0.0,0.0,0.0,0.0,0.0,0.0,0.0,0.0,-3.7568,-3.9245,-4.0145,-4.0366,-3.9902,-3.9573,-3.9083,-3.8435,-3.6979,-3.616,-3.5878,-3.4952,-3.3962,-3.3006,-3.3492,-3.3099,-3.2161,-3.2121,-3.1417,-3.0446,-3.0037,-2.8701,-2.7063,-2.7063,-2.687,-2.6616,-2.6381,0.0,0.0,0.0,0.0,0.0,0.0,0.0,0.0,0.0,0.0,0.0,0.0,0.0,0.0,0.0,0.0,0.0,0.0,0.0,0.0,0.0,0.0,0.0,0.0,-4.1434,-4.3559,-4.4722,-4.5215,-4.5624,-4.5982,-4.5233,-4.5062,-4.5982,-4.5891,-4.6462,-4.805,-4.8175,-4.8318,-4.8639,-4.7479,-4.6284,-4.5142,-4.6516,-4.6801,-4.582,-4.7693,-4.8657,-4.8657,-4.8193,-4.7961,-4.7961,-4.769,-4.7219,0.0,-4.5904,-4.5269,-4.4648,-4.3739,-4.3537,0.0,0.0,0.0,0.0,0.0,-4.5419,-4.6034,0.0,0.0,0.0,0.0,0.0,0.0,0.0,0.0,0.0,0.0,0.0,0.0,0.0,0.0,0.0,0.0,0.0,0.0,0.0,0.0,0.0,-3.7955,-3.8207,-3.9043,-4.0733,-4.0849,-4.0869,-4.0752,-4.0053,-3.9499,-3.9078,-3.7404,-3.6277,-3.5609,-3.4678,-3.381,-3.305,-3.2616,-3.2109,-3.1579,-3.1139,-3.0733,-3.0368,-3.0339,-2.9054,-2.7284,-2.7392,-2.7195,-2.687,-2.6958,0.0,0.0,0.0,0.0,0.0,0.0,0.0,0.0,0.0,0.0,0.0,0.0,0.0,0.0,0.0,0.0,0.0,0.0,0.0,0.0,0.0,0.0,0.0,0.0,-4.0982,-4.2627,-4.4607,-4.5328,-4.5792,-4.615,-4.4859,-4.4551,-4.6119,-4.5904,-4.632,-4.7925,-4.8032,-4.8336,-4.9032,0.0,0.0,0.0,0.0,-4.8086,-4.6088,-4.8318,-4.946,-4.9442,-4.9353,-4.9317,-4.9269,-4.8773,-4.7595,-4.5949,-4.6237,-4.4964,-4.2703,-4.3538,-4.3782,-4.3719,-4.38,-4.3881,-4.401,-4.4496,-4.5565,0.0,0.0,0.0,0.0,0.0,0.0,0.0,0.0,0.0,0.0,0.0,0.0,0.0,0.0,0.0,0.0,0.0,0.0,0.0,0.0,0.0,-3.2654,-3.6076,-3.6948,-3.8141,-3.9811,-4.0548,-4.0577,-3.9936,-3.9781,-3.8918,-3.7367,-3.6858,-3.5968,-3.4804,-3.4348,-3.3705,-3.2903,-3.2213,-3.1608,-3.101,-3.0415,-3.0433,-3.0806,-3.0814,-3.0046,-2.902,-2.9795,-2.9566,-2.8814,-2.8421,-2.84,-2.844,-2.855,0.0,0.0,0.0,0.0,0.0,0.0,0.0,0.0,0.0,0.0,0.0,0.0,0.0,0.0,0.0,0.0,0.0,0.0,0.0,0.0,-3.9693,-4.1453,-4.318,-4.461,-4.4721,-4.4748,-4.493,-4.4089,-4.4017,-4.5327,-4.5078,-4.5499,-4.7105,-4.7212,-4.7283,-4.7444,-4.6088,0.0,-4.5802,-4.6873,-4.7533,-4.7711,-4.9424,-5.0281,-5.0263,0.0,0.0,-4.9317,-4.9155,-4.8609,-4.7544,-4.6522,-4.5394,-4.4236,-4.3281,-4.3184,-4.3767,-4.435,-4.4917,-4.5273,-4.4285,-4.4804,-4.5756,0.0,0.0,0.0,0.0,0.0,0.0,0.0,0.0,0.0,0.0,0.0,0.0,0.0,0.0,0.0,0.0,0.0,0.0,0.0,-3.3364,-3.4293,-3.6891,-3.787,-3.8734,-3.9588,-4.0451,-4.0694,-4.0305,-3.9869,-3.8927,-3.7536,-3.6974,-3.6006,-3.4737,-3.4326,-3.3817,-3.3189,-3.2109,-3.1476,-3.1072,-3.0225,-3.0064,-3.0335,-3.0273,-2.9758,-2.9101,-2.9664,-2.9464,-2.8915,-2.9088,-2.9145,-2.923,-2.961,-2.9387,-2.8801,0.0,0.0,0.0,0.0,0.0,0.0,0.0,0.0,0.0,0.0,0.0,0.0,0.0,0.0,-3.5823,0.0,0.0,-3.8504,-3.9907,-4.1327,-4.2791,-4.4286,-4.4407,-4.4456,-4.4767,-4.4159,-4.4273,-4.5717,-4.5494,-4.5834,-4.7227,-4.7353,-4.7419,-4.7597,-4.6837,-4.6212,-4.582,-4.7337,-4.7783,-4.6998,-4.8942,-4.9906,-4.9906,-4.9513,-4.9287,-4.9256,-4.8891,-4.84,-4.7712,-4.6123,-4.5123,-4.4429,-4.3118,-4.2844,-4.3201,-4.3573,-4.435,-4.5208,-4.4512,-4.4558,-4.4924,0.0,0.0,0.0,0.0,0.0,0.0,0.0,0.0,0.0,0.0,0.0,0.0,0.0,0.0,0.0,0.0,0.0,0.0,0.0,-3.5146,-3.5977,-3.7885,-3.8694,-3.9093,-3.9093,-4.0112,-4.0568,-4.0393,-3.9869,-3.9034,-3.7912,-3.7109,-3.604,-3.4737,-3.433,-3.3894,-3.3382,-3.1987,-3.1384,-3.1244,-3.0166,-2.9661,-2.9592,-2.9405,-2.9118,-2.8798,-2.8994,-2.8773,-2.8494,-2.9318,-2.9594,-2.9693,-3.0393,-3.0667,-3.0357,-2.8239,-2.8443,0.0,0.0,0.0,0.0,0.0,0.0,0.0,0.0,-3.4252,-3.5328,-3.4677,-3.5556,-3.6547,-3.6959,-3.754,-3.8623,-4.0558,-4.1404,-4.2382,-4.393,-4.4226,-4.4438,-4.4814,-4.4345,-4.4668,-4.6331,-4.6126,-4.6416,-4.7616,-4.7702,-4.7777,-4.7954,-4.7943,-4.7426,-4.6302,-4.8104,-4.8264,-4.6498,-4.8371,-4.9317,-4.9317,-4.9317,-4.9239,-4.9195,-4.8639,-4.8049,-4.742,-4.5564,-4.4478,-4.3912,-4.2824,-4.2423,-4.2407,-4.2261,-4.2925,-4.3994,-4.4204,-4.417,-4.3872,0.0,0.0,0.0,0.0,0.0,0.0,0.0,0.0,0.0,0.0,0.0,0.0,0.0,0.0,0.0,0.0,0.0,0.0,-3.2914,-3.3042,-3.4164,-3.6675,-3.7112,-3.7297,-3.7297,-3.8889,-3.9364,-3.8588,-3.9267,-3.8692,-3.6948,-3.668,-3.5718,-3.4285,-3.4043,-3.3579,-3.288,-3.1666,-3.1159,-3.1033,-2.9837,-2.9198,-2.9013,-2.8826,-2.8873,-2.9028,-2.9596,-2.9207,-2.8509,-2.9316,-2.9594,-2.9702,-3.0376,-3.0531,-3.0273,-2.9357,-2.9175,-2.8974,-2.7597,-2.7205,-2.7794,-3.0259,-3.1476,-3.2232,0.0,-3.545,-3.7374,-3.634,-3.7535,-3.898,-3.9769,-4.0001,-4.0614,-4.2259,-4.2612,-4.2983,-4.3875,-4.4135,-4.4233,-4.4367,-4.4153,-4.4668,-4.6331,-4.6126,-4.6416,-4.7616,-4.7702,-4.7524,-4.715,-4.7122,-4.7372,-4.789,-4.8175,-4.8496,-4.8925,-4.9192,-4.9317,-4.9317,-4.9317,-4.9239,-4.9195,-4.9128,-4.8537,-4.7365,-4.5293,-4.3768,-4.2745,-4.1986,-4.1695,-4.163,-4.0982,-4.0836,-4.1128,-4.2093,-4.2559,-4.2462,0.0,0.0,0.0,0.0,0.0,0.0,0.0,0.0,0.0,0.0,0.0,0.0,0.0,0.0,0.0,0.0,0.0,0.0,-3.1638,-3.2275,-3.3494,-3.5518,-3.6727,-3.7184,-3.6781,-3.8504,-3.9065,-3.8306,-3.7955,-3.7392,-3.6608,-3.5787,-3.5001,-3.4297,-3.3988,-3.3441,-3.2642,-3.1649,-3.0982,-3.0567,-2.9738,-2.9412,-2.9396,-2.9409,-2.9572,-2.9524,-2.8185,-2.7527,0.0,0.0,-2.8339,-2.8575,-3.0033,-2.9879,-2.9029,-2.8699,-2.7955,-2.7299,-2.7404,-2.8233,-2.9455,-3.0939,-3.2732,-3.4284,-3.4796,-3.6463,-3.7814,-3.7613,-3.8276,-3.919,-4.0052,-4.0277,-4.0844,0.0,-4.2797,-4.3076,-4.3893,-4.4147,-4.4274,-4.4285,-4.3914,-4.4121,-4.535,-4.6199,-4.6671,-4.669,-4.7607,-4.7802,-4.7025,-4.6998,-4.714,-4.7479,-4.7479,-4.764,-4.7961,-4.7961,-4.7914,-4.7867,-4.7867,-4.7773,-4.7581,-4.7581,-4.6863,-4.5653,-4.4781,-4.3443,-4.2002,-4.1695,-4.1322,-4.0917,-4.061,-4.0437,-4.0414,-4.0887,-4.0988,-4.0815,0.0,0.0,0.0,0.0,0.0,0.0,0.0,0.0,0.0,0.0,0.0,0.0,0.0,0.0,0.0,0.0,0.0,0.0,0.0,-3.2312,-3.3447,-3.5097,-3.627,0.0,-3.617,-3.7685,-3.8117,-3.7385,-3.6762,-3.63,-3.6007,-3.4983,-3.4367,-3.4091,-3.366,-3.301,-3.2276,-3.1428,-3.0761,-3.0309,-2.9754,-2.9653,-2.977,-2.9886,-2.9815,-2.9368,-2.719,-2.6567,0.0,0.0,-2.7032,-2.7633,-2.8846,-2.8737,-2.8104,-2.7637,-2.6665,-2.5986,-2.7257,-2.8613,-3.0,-3.1638,-3.3389,-3.4995,-3.6167,-3.7037,-3.7745,-3.8296,-3.8621,-3.9165,-4.024,-4.0533,-4.116,-4.2853,-4.3132,-4.3336,-4.3912,-4.4147,-4.421,-4.3978,-4.383,-4.3728,-4.3718,-4.5651,-4.6891,-4.6857,-4.7866,-4.8119,-4.724,-4.707,-4.6998,-4.6998,-4.6998,-4.6998,-4.6998,-4.6998,-4.6934,-4.6795,-4.6795,-4.6637,-4.6381,-4.6168,-4.5356,-4.413,-4.3962,-4.2875,-4.1257,-4.1079,-4.0691,-4.0189,-3.9936,-3.9812,-3.9709,-3.959,-3.9537,-3.9481,0.0,0.0,0.0,0.0,0.0,0.0,0.0,0.0,0.0,0.0,0.0,0.0,0.0,0.0,0.0,0.0,0.0,0.0,0.0,-3.3103,-3.4045,-3.5786,-3.5363,-3.5073,-3.5053,-3.5942,-3.598,-3.5091,-3.5923,-3.5813,-3.4832,-3.4489,-3.3975,-3.3386,-3.28,-3.2196,-3.1565,-3.0778,-3.0468,-3.0435,-2.993,-2.9814,-2.9973,-2.9853,-2.9179,-2.8188,-2.7483,0.0,0.0,0.0,-2.6102,-2.7242,-2.647,-2.7147,0.0,-2.6467,-2.5744,-2.5731,-2.7281,-2.731,-2.7847,-3.1714,-3.246,-3.3057,-3.624,-3.7043,-3.7371,-3.8218,-3.8683,-3.939,-4.096,-4.1396,-4.2092,-4.3708,-4.3968,-4.3968,-4.4005,-4.4135,-4.3927,-4.3212,-4.397,-4.3724,0.0,-4.4215,-4.6948,-4.8952,-4.8725,-4.8254,-4.7702,-4.724,-4.6998,-4.6998,-4.6998,-4.6998,-4.6998,-4.6998,-4.6934,-4.6795,-4.6795,-4.6637,-4.6381,-4.5683,-4.4643,-4.3423,-4.2829,-4.1815,-4.048,-3.9816,-3.9525,-3.9444,-3.8617,-3.8302,-3.8228,-3.7881,-3.8209,-3.8686,0.0,0.0,0.0,0.0,0.0,0.0,0.0,0.0,0.0,0.0,0.0,0.0,0.0,0.0,0.0,0.0,0.0,0.0,0.0,-3.0346,-3.1463,-3.3859,-3.4892,-3.5192,-3.4734,-3.5588,-3.5704,-3.4997,-3.4981,-3.4677,-3.4055,-3.3695,-3.3201,-3.2677,-3.2348,-3.1826,-3.1111,-3.0419,-2.9929,-2.9512,-2.8966,-2.909,-2.9419,-2.8469,-2.8135,-2.7915,0.0,0.0,0.0,-2.4605,-2.4857,-2.5544,-2.6387,-2.6269,-2.561,-2.4313,-2.5426,-2.6964,-2.6504,-2.7897,-2.9786,-3.11,-3.2595,-3.4135,-3.582,-3.6676,-3.7339,-3.8218,-3.7699,-3.7562,-3.9319,-3.932,-3.9806,-4.2036,-4.2478,-4.288,-4.3856,-4.3226,-4.3184,-4.4607,-4.4213,0.0,0.0,0.0,0.0,-4.6015,-4.7834,-4.8584,-4.7743,-4.7554,-4.7309,-4.698,-4.6998,-4.6952,-4.6888,-4.6888,-4.6749,-4.6525,-4.6447,-4.6368,-4.6253,-4.553,-4.4509,-4.3356,-4.2593,-4.1382,-3.98,-3.9573,-3.9201,-3.8732,-3.8318,-3.8107,-3.7992,-3.7759,-3.78,-3.7916,0.0,0.0,0.0,0.0,0.0,0.0,0.0,0.0,0.0,0.0,0.0,0.0,0.0,0.0,0.0,0.0,0.0,0.0,0.0,0.0,-2.9347,-3.1501,-3.2664,-3.3078,-3.2758,-3.3848,-3.4233,-3.3847,-3.3948,-3.3876,-3.3621,-3.3064,-3.2517,-3.2022,-3.1573,-3.0987,-3.0311,-2.968,-2.9178,-2.8732,-2.7953,-2.7968,-2.8383,-2.7045,-2.6571,0.0,0.0,0.0,0.0,-2.3331,-2.3773,-2.4557,-2.5118,-2.4692,-2.4091,-2.4416,-2.5727,-2.7101,-2.7252,-2.8994,-3.0912,-3.144,-3.2793,-3.4217,-3.5168,-3.6046,-3.689,-3.7831,-3.7485,-3.7434,-3.8649,-3.8553,-3.9017,-4.1295,-4.1706,-4.2294,-4.3874,-4.3594,-4.3718,-4.5087,-4.5036,-4.5514,0.0,0.0,0.0,-4.5563,-4.7256,-4.7988,-4.7126,-4.6949,-4.6892,-4.7025,-4.6934,-4.6888,-4.6888,-4.6795,-4.6637,-4.6381,-4.6253,-4.6032,-4.5684,-4.5096,-4.368,-4.1814,-4.16,-4.0337,-3.8415,-3.8934,-3.8812,-3.8391,-3.8164,-3.7992,-3.7876,-3.7716,-3.7583,-3.748,0.0,0.0,0.0,0.0,0.0,0.0,0.0,0.0,0.0,0.0,0.0,0.0,0.0,0.0,0.0,0.0,0.0,0.0,0.0,0.0,0.0,-2.896,-2.9012,-2.9119,-2.9386,-3.0894,-3.1689,-3.1727,-3.2761,-3.3259,-3.3239,-3.2364,-3.1743,-3.1313,-3.0309,-2.9605,-2.9154,-2.8451,-2.8119,-2.798,-2.6779,-2.6551,-2.6883,-2.5694,0.0,0.0,0.0,0.0,0.0,-2.1932,-2.3016,-2.4309,-2.3061,-2.2859,-2.365,-2.6486,-2.663,-2.6463,-2.9259,-3.0451,-3.1254,-3.2652,-3.3073,-3.3363,-3.4377,-3.5235,-3.6077,-3.6985,-3.793,-3.8575,-3.8682,0.0,-3.9416,-4.1306,-4.1539,-4.2162,-4.4042,-4.499,-4.5283,0.0,0.0,0.0,0.0,0.0,0.0,-4.7568,0.0,-4.6725,-4.6197,-4.5718,-4.5956,-4.7017,-4.6888,-4.6888,-4.6998,-4.6731,-4.6525,-4.6328,-4.62,-4.5716,-4.4848,-4.4333,-4.231,-3.9156,-3.9921,-3.8875,-3.6609,-3.7897,-3.8408,-3.8351,-3.8049,-3.7876,-3.7876,-3.7599,-3.748,-3.748,0.0,0.0,0.0,0.0,0.0,0.0,0.0,0.0,0.0,0.0,0.0,0.0,0.0,0.0,0.0,0.0,0.0,0.0,0.0,0.0,0.0,0.0,0.0,0.0,0.0,0.0,0.0,0.0,0.0,-2.9972,-3.0048,-2.9043,-2.8316,0.0,-2.776,-2.7287,-2.6557,-2.6029,-2.5454,-2.488,0.0,-2.5047,-2.5423,0.0,0.0,0.0,0.0,0.0,0.0,-2.2158,-2.3323,-2.5212,-2.5976,-2.6584,-2.6982,-2.6565,-2.7853,-2.9329,-2.8943,-3.0599,-3.2558,-3.2965,-3.3183,-3.3521,-3.4539,-3.541,-3.5937,-3.5716,-3.5423,-3.5095,-3.4674,-3.4665,-3.5675,-3.8639,-3.9689,0.0,-4.4046,-4.4158,0.0,-4.6407,-4.7027,-4.7666,-4.856,-4.9276,0.0,0.0,-4.8534,-4.8899,-4.8413,-4.792,-4.7641,-4.7512,-4.7169,-4.6934,-4.6842,-4.659,-4.6116,-4.5427,-4.5378,-4.4975,-4.412,-4.3465,-4.2227,-4.0629,-4.0222,-3.9262,-3.7929,-3.8246,-3.8351,-3.8237,-3.7992,-3.7817,-3.7759,-3.7539,-3.748,-3.748,0.0,0.0,0.0,0.0,0.0,0.0,0.0,0.0,0.0,0.0,0.0,0.0,0.0,0.0,0.0,0.0,0.0,0.0,0.0,0.0,0.0,0.0,0.0,0.0,0.0,0.0,0.0,0.0,0.0,0.0,0.0,-2.7448,-2.6928,-2.6762,-2.6509,-2.6222,-2.5891,0.0,0.0,0.0,0.0,0.0,0.0,0.0,0.0,0.0,0.0,0.0,-2.2845,-2.3734,-2.4458,-2.5386,-2.7584,-2.8193,-2.8209,-2.8671,-2.9683,-3.0621,-3.0499,-3.1697,-3.3011,-3.3152,-3.3244,-3.328,-3.3267,-3.3927,-3.4358,-3.3718,-3.358,-3.3475,-3.3189,-3.3489,-3.4753,0.0,0.0,0.0,-4.4108,-4.4538,-4.5202,-4.711,-4.7712,-4.8477,-4.9819,-4.9978,-4.9632,0.0,-4.8655,-4.8409,-4.7863,-4.7476,-4.7327,-4.7403,-4.7143,-4.6728,-4.6159,-4.5647,-4.5135,-4.4571,-4.4523,-4.4073,-4.3349,-4.2945,-4.1806,-4.0127,0.0,-3.9191,-3.7904,-3.8188,-3.8294,-3.818,-3.7934,-3.7759,-3.77,-3.7539,-3.748,-3.748,0.0,0.0,0.0,0.0,0.0,0.0,0.0,0.0,0.0,0.0,0.0,0.0,0.0,0.0,0.0,0.0,0.0,0.0,0.0,0.0,0.0,0.0,0.0,0.0,0.0,0.0,0.0,0.0,0.0,0.0,0.0,0.0,0.0,0.0,0.0,0.0,0.0,0.0,0.0,0.0,0.0,0.0,0.0,0.0,0.0,0.0,0.0,0.0,-2.2643,-2.5711,-2.591,-2.5476,-2.8579,-2.8982,-2.8767,-3.1313,-3.1519,-3.1201,-3.2457,-3.2942,-3.3091,-3.3262,-3.3322,-3.3049,-3.1881,-3.2172,-3.2488,-3.1848,-3.2312,-3.2883,-3.3019,-3.3852,-3.5323,-3.7779,-3.8877,-4.0516,-4.3662,-4.5059,-4.6093,-4.698,-4.8004,-4.8998,-4.991,-4.9796,-4.981,-5.0089,-4.8291,-4.6918,-4.6415,-4.6116,-4.6182,-4.6731,-4.6722,-4.6219,-4.5176,-4.4488,-4.399,-4.3746,-4.3652,-4.3203,-4.2468,-4.2594,-4.1265,-3.8928,0.0,0.0,-3.74,-3.7968,-3.818,-3.8107,-3.7817,-3.77,-3.7642,-3.7539,-3.748,-3.748,0.0,0.0,0.0,0.0,0.0,0.0,0.0,0.0,0.0,0.0,0.0,0.0,0.0,0.0,0.0,0.0,0.0,0.0,0.0,0.0,0.0,0.0,0.0,0.0,0.0,0.0,0.0,0.0,0.0,0.0,0.0,0.0,0.0,0.0,0.0,0.0,0.0,0.0,0.0,0.0,0.0,0.0,0.0,0.0,0.0,0.0,0.0,-2.3289,-2.3545,-2.6026,-2.6736,-2.7108,-3.0153,-3.1411,-3.16,-3.0938,-3.1653,-3.2457,-3.1531,-3.2275,-3.3334,-3.3364,-3.3481,-3.3504,-3.3323,-3.3468,-3.3287,-3.1977,-3.1908,-3.2135,-3.2268,-3.3548,-3.5206,-3.7165,-3.8709,-3.9943,-4.0772,-4.3261,-4.513,-4.5451,-4.6814,-4.8308,-4.9773,-4.8827,0.0,0.0,0.0,-4.8032,-4.7935,-4.7444,-4.6618,-4.5372,-4.5122,-4.4876,-4.4556,-4.4233,-4.3744,-4.2991,-4.2945,-4.2542,-4.1753,-4.1815,-4.1036,-3.9797,0.0,0.0,-3.8186,-3.8294,-3.8221,-3.7934,-3.7876,-3.77,-3.7539,-3.7539,-3.748,-3.748,0.0,0.0,0.0,0.0,0.0,0.0,0.0,0.0,0.0,0.0,0.0,0.0,0.0,0.0,0.0,0.0,0.0,0.0,0.0,0.0,0.0,0.0,0.0,0.0,0.0,0.0,-2.3669,-2.4028,0.0,0.0,0.0,0.0,0.0,0.0,0.0,0.0,0.0,0.0,0.0,0.0,0.0,0.0,0.0,0.0,0.0,0.0,0.0,-2.3165,-2.3317,-2.5176,-2.5826,-2.6429,-3.0031,-3.1565,-3.1777,-3.0276,-3.1188,-3.2382,-3.0951,-3.1732,-3.2979,-3.3238,-3.3298,-3.298,-3.1671,-3.1716,-3.1513,-2.9641,-2.9692,-3.0222,-3.0713,-3.1901,-3.3807,-3.681,-3.8323,-3.994,-4.2335,-4.3914,-4.5217,-4.6231,-4.7023,-4.7821,-4.8618,-4.8071,-4.7815,-4.8196,0.0,-4.7537,-4.7927,-4.6833,-4.5836,-4.5065,-4.4486,-4.4103,-4.3932,-4.3288,-4.2741,-4.2273,-4.2139,-4.1883,-4.1604,-4.1604,-4.13,-4.0802,-4.0252,0.0,-3.8025,-3.8107,-3.7559,-3.6797,-3.7414,-3.7583,-3.748,-3.748,-3.748,-3.748,0.0,0.0,0.0,0.0,0.0,0.0,0.0,0.0,0.0,0.0,0.0,0.0,0.0,0.0,0.0,0.0,0.0,0.0,0.0,0.0,0.0,0.0,0.0,0.0,0.0,0.0,0.0,-2.347,-2.3214,0.0,0.0,0.0,0.0,0.0,-2.4381,0.0,0.0,0.0,0.0,0.0,0.0,0.0,0.0,0.0,0.0,0.0,0.0,-2.2824,-2.3089,-2.4459,-2.4969,-2.5606,-2.9008,-3.0384,-3.054,-2.9696,-3.0576,-3.1734,-3.0995,-3.1668,-3.2639,-3.3006,-3.3068,-3.2475,-3.0345,-3.0184,-2.9978,-2.8181,-2.8278,-2.8989,-2.9983,-3.1015,-3.2939,-3.674,-3.7785,-3.9477,-4.3418,-4.4075,-4.4849,-4.6782,-4.7167,-4.7414,-4.7843,-4.7562,0.0,0.0,0.0,0.0,-4.7079,-4.5553,-4.4664,-4.4646,-4.3931,-4.3463,-4.3257,-4.2363,-4.1849,-4.1797,-4.156,-4.1515,-4.1604,-4.1604,-4.156,-4.1363,-4.0514,0.0,0.0,-3.7965,-3.7086,-3.5745,-3.7044,-3.7385,-3.7243,-3.7243,-3.7164,-3.7038,0.0,0.0,0.0,0.0,0.0,0.0,0.0,0.0,0.0,0.0,0.0,0.0,0.0,0.0,0.0,0.0,0.0,0.0,0.0,0.0,0.0,0.0,0.0,0.0,0.0,0.0,0.0,-2.4112,-2.3428,0.0,0.0,0.0,0.0,0.0,0.0,-2.4704,-2.4589,0.0,0.0,0.0,0.0,0.0,0.0,0.0,0.0,0.0,0.0,-2.2856,-2.3636,-2.492,-2.5651,-2.6251,-2.7362,-2.7802,-2.8154,-2.9455,-3.0152,-3.0778,-3.2119,-3.2595,-3.2702,-3.2734,-3.2781,-3.267,-3.2063,-3.1516,-3.0974,-3.0472,-2.9926,-3.0076,-3.1751,-3.2789,-3.4282,-3.7033,0.0,-3.7471,-4.0252,-4.1216,-4.2563,-4.5113,-4.6046,-4.7091,-4.8623,-4.7465,-4.6835,0.0,0.0,0.0,-4.5513,-4.4269,-4.3397,-4.3099,-4.2871,-4.262,-4.2499,-4.2079,-4.1849,-4.178,-4.1648,-4.1604,-4.1604,-4.1604,-4.1346,-4.0849,0.0,0.0,0.0,-3.8253,-3.7462,-3.5745,-3.716,-3.7128,-3.631,-3.6458,-3.6006,-3.5414,0.0,0.0,0.0,0.0,0.0,0.0,0.0,0.0,0.0,0.0,0.0,0.0,0.0,0.0,0.0,0.0,0.0,0.0,0.0,0.0,0.0,0.0,0.0,0.0,0.0,0.0,-2.4882,-2.4801,-2.4505,0.0,0.0,0.0,0.0,0.0,0.0,-2.491,-2.4846,0.0,0.0,0.0,0.0,0.0,0.0,0.0,0.0,0.0,0.0,0.0,-2.3805,-2.4227,-2.4667,-2.4948,-2.4753,-2.4701,-2.5025,-2.6467,-2.8296,-2.9819,-2.9522,-3.0781,-3.2214,-3.242,-3.2924,-3.2955,-3.1247,-3.1354,-3.1276,-2.9514,-2.9342,-2.9738,-3.0431,-3.107,-3.249,0.0,0.0,0.0,-4.1838,-4.2711,-4.4024,-4.7118,-4.7774,-4.8041,0.0,0.0,-4.6123,0.0,0.0,0.0,-4.4433,-4.3808,-4.3249,-4.292,-4.2804,-4.2649,-4.2512,-4.2187,-4.1995,-4.1902,-4.1692,-4.1604,-4.1604,-4.1604,-4.1498,-4.1255,0.0,0.0,0.0,-3.7606,-3.6373,-3.365,-3.5947,-3.6216,-3.5415,-3.5488,-3.5258,-3.5039,0.0,0.0,0.0,0.0,0.0,0.0,0.0,0.0,0.0,0.0,0.0,0.0,0.0,0.0,0.0,0.0,0.0,0.0,0.0,0.0,0.0,0.0,0.0,0.0,0.0,0.0,0.0,-2.6312,-2.6131,-2.6033,0.0,0.0,-2.5905,-2.5972,0.0,0.0,0.0,0.0,0.0,0.0,0.0,0.0,0.0,0.0,0.0,0.0,0.0,0.0,0.0,0.0,0.0,-2.3972,-2.3354,-2.305,-2.3241,-2.4579,-2.6891,-2.886,-2.8207,-2.9954,-3.2053,-3.2441,-3.2792,-3.2565,-3.083,-3.0939,-3.0828,-2.875,-2.8862,-2.9353,-2.9434,-2.9751,-3.1083,0.0,0.0,-3.7385,-4.2526,-4.3442,-4.476,-4.7952,0.0,-4.8283,0.0,-4.7105,0.0,0.0,0.0,0.0,0.0,-4.359,-4.3249,-4.292,-4.2842,-4.2706,-4.2552,-4.2269,-4.2097,-4.2005,-4.1815,-4.1507,-4.1049,-4.1481,-4.1323,-4.069,0.0,0.0,0.0,-3.7085,-3.5588,-3.2562,-3.4949,-3.5321,-3.454,-3.4597,-3.4472,-3.4244,0.0,0.0,0.0,0.0,0.0,0.0,0.0,0.0,0.0,0.0,0.0,0.0,0.0,0.0,0.0,0.0,0.0,0.0,0.0,0.0,0.0,0.0,0.0,0.0,0.0,0.0,0.0,-2.8946,-2.8293,-2.7654,-2.7083,-2.7334,-2.7151,-2.6604,0.0,0.0,0.0,0.0,0.0,0.0,0.0,0.0,0.0,0.0,0.0,0.0,0.0,0.0,0.0,0.0,0.0,0.0,0.0,-2.3467,0.0,0.0,-2.6353,-2.7932,-2.939,-3.1025,-3.2441,-3.2956,-3.2161,-3.1263,-3.1352,-3.0415,-2.9411,-2.8983,-2.9001,-2.9193,-2.9551,-2.9661,-3.0913,-3.4592,0.0,0.0,-4.1055,-4.2279,-4.3771,0.0,-4.6723,-4.7375,-4.9024,-4.7491,0.0,0.0,0.0,0.0,0.0,-4.359,-4.3249,-4.292,-4.2842,-4.2649,-4.2414,-4.231,-4.2181,-4.2005,-4.2005,-4.1215,-3.9771,-4.1304,-4.0772,0.0,0.0,0.0,0.0,-3.6796,-3.5658,-3.3238,-3.4635,-3.4576,-3.3743,-3.3839,-3.3348,-3.2664,0.0,0.0,0.0,0.0,0.0,0.0,0.0,0.0,0.0,0.0,0.0,0.0,0.0,0.0,0.0,0.0,0.0,0.0,0.0,0.0,0.0,0.0,0.0,0.0,0.0,0.0,0.0,0.0,0.0,-2.9027,-2.8198,-2.8258,-2.7628,-2.6422,-2.6647,-2.6254,0.0,0.0,0.0,0.0,0.0,0.0,0.0,0.0,0.0,0.0,0.0,0.0,0.0,0.0,0.0,0.0,0.0,0.0,0.0,-2.3308,-2.4701,-2.612,-2.6539,-2.8202,-2.9889,-3.0035,-3.0723,-3.1105,-3.0273,-3.0134,-2.9879,-2.8894,-2.8795,-2.8929,-2.9023,-2.9766,-3.1582,-3.5267,-3.6594,0.0,0.0,0.0,-4.6494,-4.9066,-4.9373,-4.9083,0.0,0.0,0.0,0.0,0.0,0.0,0.0,-4.3056,-4.2717,-4.3031,-4.2765,-4.2397,-4.1839,-4.1542,-4.109,-4.0494,-4.0418,-3.9585,-3.8191,-3.9691,0.0,0.0,0.0,0.0,0.0,-3.6489,-3.521,-3.2985,-3.4045,-3.3841,-3.2958,-3.3013,-3.2764,-3.2453,0.0,0.0,0.0,0.0,0.0,0.0,0.0,0.0,0.0,0.0,0.0,0.0,0.0,0.0,0.0,0.0,0.0,0.0,0.0,0.0,0.0,0.0,0.0,0.0,0.0,0.0,0.0,0.0,0.0,0.0,0.0,0.0,-2.8009,-2.6718,-2.684,-2.6455,0.0,0.0,0.0,0.0,0.0,0.0,-2.4867,0.0,0.0,0.0,0.0,0.0,0.0,0.0,0.0,0.0,0.0,0.0,0.0,0.0,-2.3377,-2.4495,-2.5115,-2.6836,-2.8509,-2.8666,-2.9462,-3.0024,-2.944,-2.9476,-2.9408,-2.8655,-2.9029,-2.9482,-2.9326,-3.0688,-3.2639,-3.5128,-3.7516,0.0,0.0,0.0,0.0,-4.8372,0.0,0.0,0.0,0.0,0.0,0.0,0.0,0.0,0.0,-4.2176,-4.1738,-4.2178,-4.1919,-4.1515,-4.1029,-4.0778,-4.0388,-3.9789,-3.9736,-3.8958,-3.7537,-3.9064,0.0,0.0,0.0,0.0,0.0,-3.6226,-3.5021,-3.3221,-3.3741,-3.348,-3.2703,-3.2648,-3.2523,-3.2453,0.0,0.0,0.0,0.0,0.0,0.0,0.0,0.0,0.0,0.0,0.0,0.0,0.0,0.0,0.0,0.0,0.0,0.0,0.0,0.0,0.0,0.0,0.0,0.0,0.0,0.0,0.0,-3.0373,-3.03,-2.9739,-2.8803,0.0,0.0,-2.7326,-2.7368,0.0,0.0,0.0,0.0,0.0,0.0,0.0,0.0,0.0,0.0,0.0,0.0,0.0,0.0,0.0,0.0,0.0,0.0,0.0,0.0,0.0,0.0,0.0,0.0,-2.6523,-2.7926,-2.8307,-2.8253,-2.8233,-2.8759,-2.8521,0.0,-2.8515,-2.9761,-3.0674,-3.0325,-3.2316,-3.4144,-3.4507,-3.8671,0.0,0.0,-4.324,0.0,0.0,-4.6954,0.0,0.0,0.0,0.0,0.0,0.0,0.0,0.0,-4.1048,-4.0473,-4.0597,-4.0348,-4.0165,-4.0034,-4.0032,-3.9846,-3.9491,-3.9679,-3.8917,-3.7435,-3.9024,0.0,0.0,0.0,0.0,0.0,-3.5916,-3.5018,-3.3834,-3.3783,-3.3419,-3.2897,-3.2703,-3.2648,-3.2594,0.0,0.0,0.0,0.0,0.0,0.0,0.0,0.0,0.0,0.0,0.0,0.0,0.0,0.0,0.0,0.0,0.0,0.0,0.0,0.0,0.0,0.0,0.0,0.0,0.0,0.0,0.0,-3.0092,-2.9983,-2.9471,-2.8561,-2.8561,0.0,0.0,-2.6927,0.0,0.0,0.0,0.0,0.0,0.0,0.0,0.0,0.0,0.0,0.0,-2.6572,-2.6034,0.0,0.0,0.0,0.0,0.0,0.0,0.0,0.0,-2.3528,-2.3185,-2.3847,0.0,-2.5374,-2.5473,-2.6402,-2.7335,0.0,-2.7969,-2.8874,-3.0761,-3.1513,-3.1826,-3.1738,-3.4727,-3.6973,-3.6286,-3.9685,-4.2716,-4.3636,-4.5349,0.0,-4.4374,-4.7177,-4.8403,0.0,0.0,0.0,0.0,0.0,0.0,0.0,-4.0247,-3.9659,-3.9694,-3.8956,-3.885,-3.9392,-3.9208,-3.8202,-3.6469,-3.7595,-3.6755,-3.4261,-3.6934,0.0,0.0,0.0,0.0,-3.6138,-3.5386,-3.4625,-3.3984,-3.3591,-3.324,-3.3058,-3.2989,-3.2935,-3.2773,0.0,0.0,0.0,0.0,0.0,0.0,0.0,0.0,0.0,0.0,0.0,0.0,0.0,0.0,0.0,0.0,0.0,0.0,0.0,0.0,0.0,0.0,0.0,0.0,0.0,0.0,0.0,0.0,0.0,-2.875,0.0,0.0,0.0,0.0,-2.6336,0.0,0.0,0.0,0.0,0.0,-2.617,0.0,0.0,0.0,0.0,0.0,-2.6708,-2.6168,0.0,-2.5495,-2.4625,-2.3629,0.0,0.0,0.0,0.0,-2.4034,-2.3836,-2.3973,-2.4168,-2.4478,-2.52,-2.625,-2.7368,-2.8506,-2.8838,-2.9656,-3.2108,-3.2961,-3.3382,-3.3791,-3.63,-3.8237,-3.8058,-4.0173,0.0,0.0,0.0,-4.4578,-4.3118,-4.5218,0.0,0.0,0.0,0.0,0.0,0.0,0.0,0.0,-3.9395,-3.8912,-3.8912,-3.8289,-3.8149,-3.8581,-3.842,-3.731,-3.5429,-3.6916,-3.6398,-3.4225,-3.6559,0.0,0.0,0.0,0.0,-3.6429,-3.4864,-3.4296,-3.4366,-3.3848,-3.345,-3.3203,-3.3096,-3.2935,-3.2703,0.0,0.0,0.0,0.0,0.0,0.0,0.0,0.0,0.0,0.0,0.0,0.0,0.0,0.0,0.0,0.0,0.0,0.0,0.0,0.0,0.0,0.0,0.0,0.0,0.0,0.0,0.0,0.0,0.0,0.0,0.0,0.0,-2.6391,-2.5778,-2.5873,0.0,0.0,0.0,0.0,0.0,-2.6434,0.0,0.0,0.0,0.0,0.0,0.0,0.0,0.0,-2.5642,-2.509,-2.449,-2.449,0.0,0.0,0.0,0.0,0.0,-2.4661,-2.4494,-2.4723,-2.6155,-2.6933,-2.7905,-3.0127,-3.0212,-3.0594,-3.3286,-3.4418,-3.5142,-3.5987,-3.7932,-3.9395,0.0,0.0,0.0,-4.2279,-4.2797,-4.2728,-4.167,-4.2945,0.0,0.0,0.0,0.0,0.0,0.0,0.0,0.0,-3.8704,-3.834,-3.834,-3.8072,-3.7934,-3.7934,-3.7757,-3.6933,-3.5429,-3.6916,-3.6845,-3.5464,-3.6916,-3.7577,0.0,0.0,0.0,-3.6649,-3.4572,-3.4108,-3.4642,-3.4184,-3.3694,-3.3309,-3.315,-3.2958,-3.2656,0.0,0.0,0.0,0.0,0.0,0.0,0.0,0.0,0.0,0.0,0.0,0.0,0.0,0.0,0.0,0.0,0.0,0.0,0.0,0.0,0.0,0.0,0.0,0.0,0.0,0.0,0.0,0.0,0.0,0.0,-2.7807,-2.7104,-2.6722,-2.6607,-2.6159,-2.6145,-2.6333,-2.6217,-2.631,-2.645,-2.6382,0.0,0.0,0.0,0.0,0.0,0.0,0.0,0.0,-2.5812,-2.5492,-2.5407,-2.5407,0.0,0.0,0.0,0.0,0.0,-2.5262,-2.5433,-2.5859,-2.6843,-2.749,-2.8312,-2.9982,-3.0596,-3.1844,-3.5657,-3.6526,-3.687,-3.7667,-4.1451,-4.3123,0.0,0.0,-4.2928,0.0,0.0,-4.3443,-4.0839,0.0,0.0,0.0,0.0,0.0,0.0,0.0,0.0,0.0,0.0,-3.8382,-3.8382,-3.8186,-3.8086,-3.8086,-3.7792,-3.6881,-3.5429,-3.6916,-3.6845,-3.5464,-3.6916,-3.7521,0.0,0.0,-3.6446,-3.5977,-3.5031,-3.4444,-3.4151,-3.3642,-3.3346,-3.3309,-3.3309,-3.3256,-3.3081,0.0,0.0,0.0,0.0,0.0,0.0,0.0,0.0,0.0,0.0,0.0,0.0,0.0,0.0,0.0,0.0,0.0,0.0,0.0,0.0,0.0,0.0,0.0,0.0,0.0,0.0,0.0,0.0,0.0,-2.8146,-2.7437,-2.7087,-2.7098,-2.7424,-2.6857,-2.6656,-2.6766,-2.6369,-2.6274,-2.6382,0.0,0.0,0.0,0.0,0.0,0.0,0.0,0.0,0.0,0.0,-2.593,-2.5676,-2.6065,0.0,0.0,0.0,0.0,0.0,-2.6101,-2.6488,-2.7403,-2.9357,-2.9073,-2.9334,-3.3281,-3.2473,-3.2328,-3.7363,-3.7128,-3.6759,-3.9095,0.0,-4.263,-4.1345,0.0,-4.5351,-4.324,-4.3589,-4.3235,0.0,0.0,0.0,0.0,0.0,0.0,0.0,0.0,0.0,0.0,0.0,-3.8446,-3.8382,-3.8201,-3.8068,-3.8052,-3.7774,-3.6898,-3.5477,-3.6898,-3.6845,-3.5464,-3.6916,-3.7484,-3.7261,0.0,-3.6064,-3.619,-3.4454,-3.4011,-3.4415,-3.3591,-3.3309,-3.3309,-3.315,-3.2808,-3.2304,0.0,0.0,0.0,0.0,0.0,0.0,0.0,0.0,0.0,0.0,0.0,0.0,0.0,0.0,0.0,0.0,0.0,0.0,0.0,0.0,0.0,0.0,0.0,0.0,0.0,0.0,-3.0666,-3.0298,-2.9846,-2.8941,-2.7624,-2.7564,-2.7804,-2.8279,-2.7471,-2.7189,-2.7267,-2.6518,-2.6222,-2.6277,0.0,0.0,0.0,0.0,0.0,0.0,0.0,0.0,0.0,0.0,0.0,0.0,0.0,0.0,0.0,-2.6691,-2.6691,-2.6691,-2.6691,-2.7385,-2.8735,-3.1436,-3.068,-3.0734,-3.6118,-3.425,-3.2895,-3.8272,-3.7334,-3.6631,0.0,-4.1338,0.0,-4.3791,-4.6122,-4.6948,-4.4654,0.0,0.0,0.0,0.0,0.0,0.0,0.0,0.0,0.0,0.0,0.0,0.0,0.0,-3.851,-3.8415,-3.8267,-3.8153,-3.807,-3.788,-3.7182,-3.6032,-3.7077,-3.7006,-3.595,-3.7041,-3.741,-3.715,-3.5894,-3.5826,-3.6457,-3.4336,-3.3989,-3.4721,-3.3832,-3.3303,-3.3003,-3.277,-3.2104,-3.1272,0.0,0.0,0.0,0.0,0.0,0.0,0.0,0.0,0.0,0.0,0.0,0.0,0.0,0.0,0.0,0.0,0.0,0.0,0.0,0.0,0.0,0.0,0.0,0.0,0.0,-3.054,-3.0527,-3.121,-2.9763,-2.9072,-2.9156,-2.9116,-2.9149,-2.9132,-2.7871,-2.73,-2.7267,-2.6518,-2.6203,-2.6203,-2.6203,0.0,0.0,0.0,0.0,0.0,0.0,0.0,0.0,0.0,0.0,0.0,0.0,0.0,-2.6691,-2.6691,-2.6691,-2.6691,-2.6691,-2.7774,-2.9448,-3.1571,-3.1776,-3.2431,-3.6103,-3.4921,-3.4112,-3.7965,-3.7485,-3.7562,0.0,-4.2701,-4.3777,-4.5461,-4.592,-4.625,0.0,0.0,0.0,0.0,0.0,0.0,0.0,0.0,0.0,0.0,0.0,0.0,0.0,0.0,0.0,-3.851,-3.8415,-3.8336,-3.8274,-3.807,-3.7826,-3.7542,-3.7596,-3.7523,-3.7452,-3.7356,-3.722,-3.7009,-3.6684,-3.6481,-3.6301,-3.5647,-3.5153,-3.4738,-3.4234,-3.331,-3.219,-3.2154,-3.1426,-3.0458,0.0,0.0,0.0,0.0,0.0,0.0,0.0,0.0,0.0,0.0,0.0,0.0,0.0,0.0,0.0,0.0,0.0,0.0,0.0,0.0,0.0,0.0,0.0,-3.0593,-3.0797,-3.0513,-3.0279,-3.0135,-2.9147,-2.911,-2.9947,-2.9584,0.0,-2.8596,-2.8268,-2.7614,-2.6731,-2.6604,-2.6452,-2.6295,-2.6295,-2.6295,0.0,0.0,0.0,0.0,0.0,0.0,0.0,0.0,-2.6421,-2.664,0.0,0.0,-2.6691,-2.6691,-2.6691,-2.6911,-2.7858,-2.8535,-2.9816,-3.3175,-3.3398,-3.3634,-3.7074,-3.5684,-3.4831,-3.8836,-3.7411,-3.6261,0.0,0.0,-4.5003,-4.5149,-4.6471,0.0,0.0,0.0,0.0,0.0,0.0,0.0,0.0,0.0,0.0,0.0,0.0,0.0,0.0,0.0,0.0,-3.7716,-3.713,-3.6799,-3.6689,-3.654,-3.6407,-3.6288,-3.722,-3.7649,-3.7594,-3.7503,-3.7334,-3.6987,-3.6908,-3.665,-3.6259,-3.5793,-3.522,-3.4559,-3.3217,-3.21,-3.1299,-3.1299,-3.0709,-2.9867,0.0,0.0,0.0,0.0,0.0,0.0,0.0,0.0,0.0,0.0,0.0,0.0,0.0,0.0,0.0,0.0,0.0,0.0,0.0,0.0,0.0,0.0,0.0,-3.0526,-3.0526,-3.0568,-3.0401,-2.9886,-2.9482,-2.9765,-3.0651,0.0,-2.9543,-2.8766,-2.8707,-2.7978,-2.6753,-2.6725,-2.659,-2.6418,-2.6418,-2.6383,0.0,0.0,0.0,0.0,0.0,0.0,0.0,0.0,0.0,0.0,0.0,0.0,0.0,0.0,-2.6843,-2.7249,-2.8296,-2.9313,-3.0779,-3.3795,-3.4118,-3.456,-3.7753,-3.6336,-3.5358,-3.8586,-3.8291,-3.7819,-3.9046,0.0,0.0,0.0,0.0,0.0,0.0,0.0,0.0,0.0,0.0,0.0,0.0,0.0,0.0,0.0,0.0,0.0,0.0,0.0,0.0,0.0,-3.6339,-3.5924,-3.6002,-3.5666,-3.56,-3.5787,-3.6593,-3.6916,-3.6809,-3.6719,-3.6535,-3.6211,-3.6116,-3.5919,-3.5594,-3.5241,-3.4684,-3.382,-3.2347,-3.1224,-3.0429,-3.0429,-2.9909,-2.9172,0.0,0.0,0.0,0.0,0.0,0.0,0.0,0.0,0.0,0.0,0.0,0.0,0.0,0.0,0.0,0.0,0.0,0.0,0.0,0.0,0.0,0.0,0.0,-3.051,-3.051,-3.079,-3.0912,-3.0912,-3.1112,-3.119,-3.119,-3.119,-3.0784,-2.9952,-2.9262,-2.841,-2.7473,-2.6961,-2.6607,-2.6418,-2.6418,-2.6435,-2.64,0.0,0.0,0.0,0.0,0.0,0.0,0.0,-2.6657,0.0,0.0,0.0,0.0,0.0,-2.7145,-2.77,-2.7734,-2.9947,-3.2459,-3.3051,-3.3809,-3.5155,-3.7936,-3.6865,-3.5663,-3.697,-4.0322,-4.293,-4.2538,-4.3946,0.0,0.0,0.0,0.0,0.0,0.0,0.0,0.0,0.0,0.0,0.0,0.0,0.0,0.0,0.0,0.0,0.0,0.0,0.0,0.0,-3.6227,-3.6063,-3.6658,-3.5849,-3.5834,-3.6557,-3.5769,-3.5273,-3.5101,-3.4871,-3.4689,-3.4504,-3.4276,-3.4177,-3.4093,-3.4076,-3.3439,-3.2434,-3.1915,-3.0846,-2.958,-2.958,-2.9064,-2.8363,0.0,0.0,0.0,0.0,0.0,0.0,0.0,0.0,0.0,0.0,0.0,0.0,0.0,0.0,0.0,0.0,0.0,0.0,0.0,0.0,0.0,0.0,0.0,0.0,0.0,0.0,-3.123,-3.1112,-3.1151,-3.119,0.0,0.0,-3.0497,-2.9296,-3.0819,-2.9904,-2.725,-2.8819,-2.8494,-2.6876,-2.7386,-2.7538,-2.7501,0.0,0.0,0.0,0.0,0.0,0.0,0.0,0.0,0.0,0.0,0.0,0.0,0.0,-2.8429,-2.8308,-3.096,-3.1647,-3.1911,-3.352,-3.4583,-3.5116,-3.4767,-3.5315,-3.6304,-3.7617,-3.9665,-4.0659,-3.8837,-4.2058,0.0,0.0,0.0,0.0,0.0,0.0,0.0,0.0,0.0,0.0,0.0,0.0,0.0,0.0,0.0,0.0,0.0,0.0,0.0,0.0,-3.4375,-3.3975,-3.41,-3.3866,-3.3834,-3.4002,-3.377,-3.4135,-3.5013,-3.4978,-3.4744,-3.4425,-3.4387,-3.4272,-3.4076,-3.3564,-3.2663,-3.1511,-3.0874,-2.9847,-2.8753,-2.8753,-2.8629,-2.8363,0.0,0.0,0.0,0.0,0.0,0.0,0.0,0.0,0.0,0.0,0.0,0.0,0.0,0.0,0.0,0.0,0.0,0.0,0.0,0.0,0.0,0.0,0.0,0.0,0.0,-3.1363,-3.1479,0.0,0.0,0.0,0.0,-3.1462,-3.0776,-2.9687,-3.082,-2.9915,-2.752,-2.8818,-2.8612,-2.7486,-2.793,-2.8237,-2.849,0.0,0.0,0.0,0.0,0.0,0.0,0.0,0.0,0.0,0.0,0.0,0.0,-2.9597,-2.9719,-2.9984,-3.263,-3.2925,-3.3077,-3.5417,-3.5576,-3.4897,-3.4114,-3.4927,-3.6601,-3.9168,-4.0389,-4.0865,-4.018,-4.2569,0.0,0.0,0.0,0.0,0.0,0.0,0.0,0.0,0.0,0.0,0.0,0.0,0.0,0.0,0.0,0.0,0.0,0.0,0.0,0.0,-3.3548,-3.3185,-3.343,-3.3448,-3.3559,-3.3812,-3.3812,-3.4051,-3.4482,-3.4164,-3.3793,-3.3428,-3.339,-3.3294,-3.3162,-3.2758,-3.1867,-3.0713,-3.0315,-2.9422,-2.8411,-2.8411,-2.8411,-2.8396,0.0,0.0,0.0,0.0,0.0,0.0,0.0,0.0,0.0,0.0,0.0,0.0,0.0,0.0,0.0,0.0,0.0,0.0,0.0,0.0,0.0,0.0,0.0,0.0,0.0,0.0,0.0,0.0,0.0,0.0,-3.18,-3.18,-3.1403,-3.0662,-3.0075,-2.9214,-2.8203,-2.7855,-2.7908,-2.822,-2.8323,-2.8784,-2.9417,-2.9236,0.0,0.0,0.0,0.0,0.0,0.0,0.0,0.0,-2.8624,-2.9482,-3.0442,-3.0095,-3.0938,-3.2219,-3.322,-3.4006,-3.5087,-3.7646,-3.6283,-3.46,-3.5673,-3.5799,-3.6791,-4.0933,0.0,-4.2453,-4.4278,-4.4354,0.0,0.0,0.0,0.0,0.0,0.0,0.0,0.0,0.0,0.0,0.0,0.0,0.0,0.0,0.0,0.0,0.0,0.0,0.0,0.0,-3.3409,-3.3344,-3.399,-3.399,-3.4329,0.0,-3.4989,-3.4497,-3.3582,-3.2895,-3.2336,-3.1912,-3.1819,-3.18,-3.18,-3.18,-3.1106,-3.0117,-3.0117,-2.9406,-2.8411,-2.8411,-2.8411,-2.8396,0.0,0.0,0.0,0.0,0.0,0.0,0.0,0.0,0.0,0.0,0.0,0.0,0.0,0.0,0.0,0.0,0.0,0.0,0.0,0.0,0.0,0.0,0.0,0.0,0.0,0.0,0.0,0.0,0.0,0.0,-3.18,-3.18,-3.1403,-3.0731,-3.1731,-3.1057,-2.9265,-3.0386,-3.0178,-2.9248,-2.9868,-3.0247,-3.0435,-3.0649,-3.0717,0.0,0.0,0.0,0.0,0.0,0.0,0.0,-2.8586,-2.8727,-2.9231,-3.1015,-3.1767,-3.2446,-3.4465,-3.4783,-3.4479,-3.4492,-3.4011,-3.4829,-3.9665,-3.9023,-3.808,-4.0534,-4.0618,-4.052,-4.1516,0.0,0.0,0.0,0.0,0.0,0.0,0.0,0.0,0.0,0.0,0.0,0.0,0.0,0.0,0.0,0.0,0.0,0.0,0.0,0.0,-3.277,-3.3124,-3.3244,-3.3152,-3.3152,-3.3223,0.0,-3.3384,-3.3197,-3.2838,-3.3142,-3.2738,-3.1819,-3.18,-3.18,-3.18,-3.18,-3.1106,-3.0117,-3.0117,-2.9406,-2.8411,-2.8411,-2.8411,-2.8411,0.0,0.0,0.0,0.0,0.0,0.0,0.0,0.0,0.0,0.0,0.0,0.0,0.0,0.0,0.0,0.0,0.0,0.0,0.0,0.0,0.0,0.0,0.0,0.0,0.0,0.0,0.0,0.0,0.0,-3.18,-3.18,-3.18,-3.1593,-3.1231,-3.1662,-3.1196,-3.0093,-3.0524,-3.0455,-3.011,-3.0524,-3.0903,-3.1265,-3.1422,-3.1385,-3.11,-3.0499,0.0,0.0,0.0,0.0,0.0,0.0,0.0,-3.0634,-3.1616,-3.2168,-3.284,-3.4516,-3.5307,-3.5757,-3.6405,-3.7337,-3.8653,-4.0781,-4.0341,-3.9767,-4.0759,-4.0639,-4.0553,-4.1292,0.0,0.0,0.0,0.0,0.0,0.0,0.0,0.0,0.0,0.0,0.0,0.0,0.0,0.0,0.0,0.0,0.0,0.0,-3.3175,-3.2904,-3.2055,-3.2403,-3.2599,-3.2606,-3.3011,-3.3273,-3.3473,-3.383,-3.3695,-3.3172,-3.2932,-3.2474,-3.1856,-3.1819,-3.1746,-3.1709,-3.1746,-3.1106,-2.9989,-3.0074,-2.9406,-2.8411,-2.8411,-2.8411,-2.8411,0.0,0.0,0.0,0.0,0.0,0.0,0.0,0.0,0.0,0.0,0.0,0.0,0.0,0.0,0.0,0.0,0.0,0.0,0.0,0.0,0.0,0.0,0.0,0.0,0.0,0.0,0.0,0.0,-3.18,-3.2007,-3.2349,-3.2349,-3.2349,-3.2352,-3.1556,-3.1127,-3.0834,-3.0041,-3.0162,-3.0886,-3.0886,-3.1248,-3.18,-3.1726,-3.15,-3.119,-3.1112,-3.0814,-3.0526,-3.0526,0.0,0.0,0.0,0.0,-3.2243,-3.1748,-3.225,-3.3182,-3.395,-3.5448,-3.7313,-3.9529,-4.1187,-4.2033,-4.1102,-4.0849,-4.0967,-4.1474,-4.1285,-4.1163,0.0,0.0,0.0,0.0,0.0,0.0,0.0,0.0,0.0,0.0,0.0,0.0,0.0,0.0,0.0,0.0,0.0,0.0,-3.2247,-3.2131,-3.1941,-3.16,-3.174,-3.1925,-3.2197,-3.2844,-3.3389,-3.3802,-3.4474,-3.4371,-3.3544,-3.2599,-3.2091,-3.1948,-3.1819,-3.1709,-3.1617,-3.1617,-3.0931,-2.9903,-2.9946,-2.9332,-2.8411,-2.8411,-2.8411,-2.8411,0.0,0.0,0.0,0.0,0.0,0.0,0.0,0.0,0.0,0.0,-3.0342,0.0,0.0,0.0,0.0,0.0,0.0,0.0,0.0,0.0,0.0,0.0,0.0,0.0,0.0,0.0,0.0,0.0,-3.18,-3.2762,-3.4586,-3.4586,-3.4627,-3.4714,-3.3802,-3.2737,-3.1593,-3.0851,-3.0955,-3.1645,-3.1645,-3.1714,-3.1763,-3.1423,-3.123,-3.1151,-3.0733,-3.0568,-3.0526,-3.0526,-3.0526,0.0,0.0,0.0,-3.0791,-3.0692,-3.1765,-3.2977,-3.3225,-3.4998,-3.7313,-3.9563,-3.8886,-3.8768,-4.3014,0.0,-4.002,0.0,-4.21,0.0,0.0,0.0,0.0,0.0,0.0,0.0,0.0,0.0,0.0,0.0,0.0,0.0,0.0,0.0,0.0,0.0,0.0,0.0,-3.0817,-3.1357,-3.1508,-3.1179,-3.1788,-3.2003,-3.1804,-3.1891,-3.2141,-3.2562,-3.3004,-3.3069,-3.2747,-3.2525,-3.2318,-3.2073,-3.1765,-3.1617,-3.1579,-3.1123,-3.0526,-2.9859,-2.948,-2.8935,-2.8411,-2.8411,-2.8411,-2.8411,0.0,0.0,0.0,0.0,0.0,0.0,0.0,0.0,0.0,0.0,0.0,0.0,0.0,0.0,0.0,0.0,0.0,0.0,0.0,0.0,0.0,-3.18,-3.18,-3.18,0.0,0.0,0.0,-3.18,-3.18,-3.3532,-3.6894,-3.6806,-3.6165,-3.5091,-3.5648,-3.4381,-3.1834,-3.2369,-3.2283,-3.1834,-3.2248,-3.2421,-3.2435,-3.2711,-3.2451,-3.1896,-3.1621,-3.1107,-3.0609,-3.0609,-3.0568,-3.0526,-3.0692,0.0,0.0,0.0,-3.1224,-3.232,-3.4594,-3.5357,-3.6535,-4.0882,-3.9665,-3.8667,-4.3487,-4.2016,-4.0341,-4.2895,0.0,0.0,0.0,0.0,0.0,0.0,0.0,0.0,0.0,0.0,0.0,0.0,0.0,0.0,0.0,0.0,0.0,0.0,0.0,-3.0983,-3.0526,-3.0782,-3.0925,-3.0757,-3.1057,-3.1301,-3.1338,-3.1338,-3.1565,-3.1985,-3.2386,-3.2539,-3.242,-3.2489,-3.2318,-3.1984,-3.1783,-3.1634,-3.1411,-3.0965,-3.0418,-2.9805,-2.9377,-2.8858,-2.8411,-2.8411,-2.8411,-2.8411,0.0,0.0,0.0,0.0,0.0,0.0,0.0,0.0,0.0,0.0,0.0,0.0,0.0,0.0,0.0,0.0,0.0,0.0,0.0,0.0,0.0,-3.1746,-3.1746,-3.1763,-3.18,0.0,0.0,-3.18,-3.18,-3.3756,-3.7528,-3.802,-3.7387,-3.5917,-3.7162,-3.6035,-3.3244,-3.3891,-3.3498,-3.2475,-3.3235,-3.3304,-3.3028,-3.3648,-3.3453,-3.2723,-3.2276,-3.1633,-3.0999,-3.0758,-3.0651,-3.0651,-3.0831,-3.0831,0.0,0.0,0.0,-3.1705,-3.5036,-3.5233,-3.5707,-4.0764,-3.9512,-3.8108,0.0,0.0,-4.0189,0.0,0.0,0.0,0.0,0.0,0.0,0.0,0.0,0.0,0.0,0.0,0.0,0.0,0.0,0.0,0.0,0.0,0.0,0.0,0.0,-3.0526,-3.0526,-3.0526,-3.0526,-3.0526,-3.0526,-3.0634,-3.0925,-3.123,-3.1613,-3.2094,-3.2439,-3.2564,-3.2529,-3.2526,-3.2266,-3.1821,-3.1802,-3.1691,-3.1411,-3.0868,-3.0335,-2.9821,-2.9241,-2.8732,-2.8411,-2.8411,-2.8411,-2.8411,0.0,0.0,0.0,0.0,0.0,0.0,0.0,0.0,0.0,0.0,0.0,0.0,-3.0912,-3.123,-3.1479,-3.1517,0.0,0.0,0.0,0.0,0.0,-3.1617,-3.1617,0.0,-3.18,-3.18,-3.18,-3.18,-3.18,-3.2947,-3.5214,-3.7374,-3.8317,-3.8197,-3.8265,-3.7802,-3.6886,-3.5117,-3.4258,-3.4164,-3.4943,-3.4389,-3.3121,-3.3366,-3.3473,-3.3354,-3.2083,-3.1774,-3.1826,-3.0983,-3.0773,-3.0871,-3.0912,-3.0912,-3.0912,0.0,0.0,0.0,-3.3018,-3.3963,-3.5081,-3.7567,-3.6417,-3.5487,0.0,0.0,0.0,0.0,0.0,0.0,0.0,0.0,0.0,0.0,0.0,0.0,0.0,0.0,0.0,0.0,0.0,0.0,0.0,0.0,0.0,0.0,0.0,-3.0526,-3.0526,-3.0526,-3.0526,-3.0526,-3.0526,-3.051,-3.051,-3.159,-3.2486,-3.3203,-3.3318,-3.3335,-3.3209,-3.2789,-3.2249,-3.162,-3.1821,-3.1894,-3.1785,-3.0616,-3.0133,-2.9946,-2.8858,-2.8396,-2.8411,-2.8411,-2.8411,-2.8411,0.0,0.0,0.0,0.0,0.0,0.0,0.0,0.0,0.0,0.0,0.0,0.0,0.0,-3.1363,-3.1555,-3.1688,-3.1763,0.0,0.0,0.0,0.0,-3.1709,-3.1671,-3.1671,-3.18,-3.1709,-3.1709,-3.18,-3.18,-3.2896,-3.5025,-3.5831,-3.6935,-3.8379,-4.0439,-3.9394,-3.6084,-3.695,-3.5566,-3.3003,-3.6195,-3.5845,-3.3671,-3.5623,-3.6356,-3.6079,-3.4002,-3.364,-3.3862,-3.2101,-3.1174,-3.0814,-3.1032,-3.1032,-3.0992,-3.1072,-3.1112,-3.1472,-3.2975,-3.2874,-3.3152,-3.6383,-3.4759,-3.3406,-3.7398,-3.8091,-3.8125,0.0,0.0,0.0,0.0,0.0,0.0,0.0,0.0,0.0,0.0,0.0,0.0,0.0,0.0,0.0,0.0,0.0,0.0,0.0,0.0,0.0,-3.046,-2.9672,-2.9606,-3.0493,-3.0974,-3.1437,-3.1901,-3.234,-3.2677,-3.2927,-3.3216,-3.3223,-3.2965,-3.3152,-3.298,-3.2585,-3.2667,-3.2224,-3.13,-3.0318,-2.9978,-2.9989,-2.8997,-2.8525,-2.8411,-2.8411,-2.8411,-2.8396,0.0,0.0,0.0,0.0,0.0,0.0,0.0,0.0,0.0,0.0,0.0,0.0,0.0,0.0,-3.1651,-3.18,-3.18,-3.18,-3.1763,-3.1746,-3.1746,-3.1746,-3.1671,-3.1671,-3.18,0.0,-3.145,-3.18,-3.1541,-3.2297,-3.3957,-3.4648,-3.5797,-3.7312,-4.0001,-3.9526,-3.6826,-3.8599,-3.753,-3.4834,-3.7767,-3.7634,-3.5908,-3.7636,-3.8258,-3.8077,-3.6908,-3.6276,-3.592,-3.4695,-3.3409,-3.2311,-3.2293,-3.1742,-3.1095,-3.119,-3.119,-3.141,-3.2408,-3.1952,-3.185,-3.459,-3.3389,-3.2341,-3.5334,0.0,-3.821,0.0,0.0,0.0,0.0,0.0,0.0,0.0,0.0,0.0,0.0,0.0,0.0,0.0,0.0,0.0,0.0,0.0,0.0,0.0,0.0,0.0,-3.0824,-3.0021,-3.0037,-3.1205,-3.1719,-3.2332,-3.3044,-3.3061,-3.3176,-3.3425,-3.3587,-3.3566,-3.3317,-3.3509,-3.3379,-3.3036,-3.3001,-3.2538,-3.1712,-3.0668,-3.0353,-3.0348,-2.9169,-2.8605,-2.8493,-2.8396,-2.846,-2.8493,0.0,0.0,0.0,0.0,0.0,0.0,0.0,0.0,0.0,-2.9879,0.0,0.0,0.0,0.0,0.0,-3.18,-3.18,-3.1746,-3.1617,-3.1617,-3.1617,-3.1617,0.0,0.0,0.0,0.0,0.0,0.0,0.0,0.0,0.0,-3.394,-3.4971,-3.5145,-3.6638,-3.8074,-3.9375,-3.9881,-3.9909,-3.9652,-3.9692,-3.9628,-3.9473,-3.9088,-3.8957,-3.9125,-4.0471,-3.9563,-3.7932,-3.8588,-3.7343,-3.5419,-3.4648,-3.2933,-3.119,-3.119,-3.119,-3.119,0.0,0.0,0.0,-3.2036,0.0,0.0,-3.2246,0.0,-3.8633,0.0,0.0,0.0,0.0,0.0,0.0,0.0,0.0,0.0,0.0,0.0,0.0,0.0,0.0,0.0,0.0,0.0,0.0,0.0,0.0,-3.0858,-3.1576,-3.1609,-3.1984,-3.2696,-3.2713,-3.3077,-3.3822,-3.3822,-3.4187,-3.4899,-3.4594,-3.4401,-3.4395,-3.3854,-3.3372,-3.2911,-3.2741,-3.289,-3.3136,-3.177,-3.1209,-3.1083,-2.9422,-2.8779,-2.8716,-2.8523,-2.8508,-2.8636,0.0,0.0,0.0,0.0,0.0,0.0,0.0,0.0,-3.0736,0.0,0.0,0.0,-3.119,-3.1576,-3.18,-3.18,-3.18,-3.1783,-3.1746,-3.1746,-3.1746,-3.1746,-3.1654,-3.1671,0.0,0.0,0.0,0.0,0.0,0.0,0.0,0.0,0.0,0.0,-3.4335,-3.5125,-3.5583,-3.8532,-3.7464,-3.4346,-4.0243,-3.9844,-3.6106,-4.051,-4.1314,-4.028,-4.1339,-4.1288,-4.0687,-3.9884,-3.8051,-3.5753,-3.3489,-3.2039,-3.119,-3.119,-3.119,-3.119,-3.119,0.0,0.0,0.0,0.0,0.0,0.0,0.0,0.0,0.0,0.0,0.0,0.0,0.0,0.0,0.0,0.0,0.0,0.0,0.0,0.0,0.0,0.0,0.0,0.0,0.0,0.0,0.0,-3.0883,-3.1132,-3.2332,-3.2398,-3.2729,-3.3458,-3.3491,-3.3839,-3.4584,-3.4601,-3.47,-3.4899,-3.4825,-3.4638,-3.4385,-3.4272,-3.4031,-3.3712,-3.3676,-3.373,-3.376,-3.2362,-3.1841,-3.1851,-3.1101,-3.0306,-2.9626,-2.9577,-2.9184,-2.8762,0.0,0.0,0.0,0.0,0.0,0.0,0.0,-3.1165,-3.111,0.0,0.0,0.0,-3.1423,-3.1651,-3.18,-3.18,-3.18,-3.18,-3.18,-3.18,-3.18,-3.18,-3.1709,-3.1709,0.0,0.0,0.0,0.0,0.0,0.0,0.0,0.0,0.0,0.0,0.0,-3.2855,-3.2917,-3.6059,-3.6563,-3.5677,-4.0112,0.0,0.0,-4.2638,-4.3334,0.0,0.0,0.0,-4.3379,-4.2918,-4.0222,-3.6787,-3.5357,-3.3204,-3.1376,-3.2307,-3.1918,-3.1123,-3.0818,-3.0429,-3.004,-2.9719,0.0,0.0,-3.0019,-3.2639,0.0,0.0,0.0,0.0,0.0,0.0,0.0,0.0,0.0,0.0,0.0,0.0,0.0,0.0,0.0,0.0,0.0,0.0,0.0,-3.1362,-3.1018,-3.143,-3.2758,-3.2744,-3.3182,-3.4237,-3.4253,-3.4468,-3.4899,-3.4899,-3.4899,-3.4899,-3.4899,-3.4792,-3.4605,-3.4589,-3.4444,-3.422,-3.4203,-3.4151,-3.4036,-3.321,-3.2772,-3.2541,-3.1934,-3.1278,-3.072,-3.072,-3.0177,-2.9555,0.0,0.0,0.0,0.0,0.0,0.0,0.0,0.0,-3.1358,0.0,-3.1456,-3.1385,-3.1763,-3.18,-3.18,-3.18,-3.18,-3.18,-3.18,-3.18,-3.18,-3.18,-3.18,-3.18,-3.18,0.0,0.0,0.0,0.0,0.0,0.0,0.0,0.0,0.0,0.0,0.0,-3.1286,-3.3033,-3.6202,-3.999,-3.9572,-4.1869,0.0,0.0,-4.494,-4.5681,-4.8112,-4.7571,-4.5715,-4.6321,-4.2861,0.0,0.0,0.0,-3.2002,-3.3643,-3.2797,-3.114,-3.0328,-3.004,-2.9803,-2.9042,-2.9837,0.0,-2.9943,-3.3302,-3.6415,0.0,0.0,0.0,0.0,0.0,0.0,0.0,0.0,0.0,0.0,0.0,0.0,0.0,0.0,0.0,0.0,-3.2014,-3.171,-3.1139,-3.1218,-3.1784,-3.3048,-3.295,-3.3486,-3.4883,-3.4899,-3.4899,-3.4899,-3.4899,-3.4899,-3.4899,-3.4899,-3.4899,-3.4899,-3.4756,-3.4594,-3.4497,-3.4349,-3.4201,-3.4101,-3.4101,-3.3744,-3.3145,-3.2369,-3.2015,-3.195,-3.1823,-3.1241,-3.051,-3.1799,0.0,0.0,0.0,0.0,0.0,0.0,0.0,-3.2434,-3.2717,-3.1979,-3.1538,-3.1763,-3.18,-3.18,-3.18,-3.18,-3.18,-3.18,-3.18,-3.18,-3.18,-3.18,-3.18,-3.18,-3.1662,0.0,0.0,0.0,0.0,0.0,0.0,0.0,0.0,0.0,0.0,0.0,0.0,0.0,-3.6662,-3.9514,-4.1115,-4.2193,-4.5286,-4.5612,-4.4766,-4.7865,-4.7848,-4.6254,-4.5192,-4.2959,-4.0003,0.0,0.0,0.0,-3.2268,-3.1854,-3.1782,-3.0463,-2.9668,-2.9008,0.0,-2.8264,0.0,-2.9076,-3.0219,-3.1608,0.0,0.0,0.0,0.0,0.0,0.0,0.0,0.0,0.0,0.0,0.0,0.0,0.0,0.0,0.0,0.0,-3.206,-3.2016,-3.1899,-3.242,-3.3073,-3.3824,-3.3824,-3.4153,-3.4899,-3.4899,-3.4899,-3.4899,-3.4899,-3.4899,-3.4899,-3.4899,-3.4899,-3.4899,-3.4643,-3.4546,-3.4497,-3.425,-3.4151,-3.4101,-3.4101,-3.402,-3.389,-3.3843,-3.3405,-3.287,-3.2934,-3.1981,-3.0654,-3.1799,0.0,0.0,0.0,0.0,0.0,0.0,0.0,-3.2438,-3.2813,-3.2285,-3.1986,-3.2162,-3.2638,-3.2938,-3.2938,-3.2938,-3.2766,-3.2369,-3.2352,-3.2179,-3.1817,-3.18,-3.1763,-3.1651,-3.1651,0.0,0.0,0.0,0.0,0.0,0.0,0.0,0.0,0.0,0.0,0.0,0.0,-3.2679,-3.4956,-3.8183,0.0,-4.2463,-4.5693,-4.6532,-4.6288,-4.8281,-4.7994,-4.6397,-4.4485,-4.2652,0.0,-3.9295,-3.7337,-3.529,0.0,-3.2823,-3.1924,0.0,0.0,0.0,-2.801,0.0,0.0,0.0,-2.9782,-3.0854,-3.186,0.0,0.0,0.0,0.0,0.0,0.0,0.0,0.0,0.0,0.0,0.0,0.0,0.0,0.0,0.0,-3.2075,-3.192,-3.119,-3.1481,-3.169,-3.1826,-3.2554,-3.3203,-3.3762,-3.4493,-3.4899,-3.4899,-3.4899,-3.4899,-3.4899,-3.4899,-3.4899,-3.4899,-3.4691,-3.4546,-3.4497,-3.43,-3.4151,-3.4101,-3.4101,-3.4101,-3.4101,-3.43,-3.4088,-3.3681,-3.3583,-3.266,-3.1351,-3.1727,-3.1597,0.0,0.0,0.0,0.0,0.0,0.0,-3.2256,-3.2768,-3.2774,-3.2947,-3.3612,-3.4059,-3.4507,-3.4758,-3.4775,-3.4369,-3.3326,-3.3532,-3.324,-3.2283,-3.2056,-3.1874,-3.1739,-3.1547,-3.1346,0.0,0.0,0.0,0.0,0.0,0.0,0.0,0.0,0.0,-3.1831,0.0,0.0,-3.4925,0.0,-4.0206,-4.3098,-4.5788,-4.709,-4.7554,-4.8477,-4.7834,-4.6244,-4.3883,-4.2284,-4.1204,-4.1221,-3.865,0.0,0.0,0.0,0.0,0.0,0.0,0.0,0.0,0.0,-2.8766,0.0,0.0,0.0,0.0,0.0,0.0,0.0,0.0,0.0,0.0,0.0,0.0,0.0,0.0,0.0,0.0,0.0,0.0,0.0,-3.1258,-3.1258,-3.0434,-3.0201,-3.0104,-3.0165,-3.1266,-3.219,-3.2766,-3.4056,-3.4756,-3.4756,-3.4851,-3.4899,-3.4899,-3.4899,-3.4899,-3.4899,-3.4739,-3.4643,-3.4497,-3.4349,-3.425,-3.4101,-3.4101,-3.4101,-3.4151,-3.4349,-3.4399,-3.425,-3.3903,-3.3098,-3.2084,-3.1539,-3.1539,-3.1482,0.0,0.0,0.0,0.0,0.0,-3.2768,-3.3271,-3.382,-3.5023,-3.7223,-3.6186,-3.5876,-3.7182,-3.73,-3.6514,-3.4686,-3.5812,-3.5728,-3.3921,-3.2968,-3.2491,-3.2491,-3.1647,-3.123,0.0,0.0,0.0,0.0,0.0,0.0,0.0,-2.95,0.0,-3.3942,0.0,-3.5233,0.0,-3.9692,-4.049,0.0,-4.5122,-4.6372,-4.5951,-4.747,-4.709,-4.5483,0.0,-4.188,-4.0764,0.0,-3.6477,-3.5324,-3.3953,0.0,0.0,0.0,0.0,0.0,0.0,-2.8578,0.0,0.0,0.0,-2.9201,-2.8951,0.0,0.0,0.0,0.0,0.0,0.0,0.0,0.0,0.0,0.0,0.0,0.0,0.0,0.0,0.0,0.0,-2.9431,-3.1243,-3.0567,-3.0675,-3.2011,-3.2228,-3.2571,-3.3124,-3.3818,-3.4201,-3.4201,-3.4643,-3.4899,-3.4899,-3.4899,-3.4899,-3.4899,-3.4739,-3.4643,-3.4497,-3.4349,-3.425,-3.4101,-3.4101,-3.4101,-3.4101,-3.425,-3.43,-3.4234,-3.3767,-3.3045,-3.218,-3.1507,-3.1796,-3.191,0.0,0.0,0.0,0.0,0.0,0.0,-3.3074,-3.3816,-3.5262,-3.7836,-3.7904,-3.8537,-4.0425,-4.0595,-3.9951,-3.8464,-3.7895,-3.7189,-3.6253,-3.386,-3.2859,-3.3474,-3.1881,-3.1153,-3.1408,-3.0438,0.0,0.0,0.0,0.0,0.0,-2.9649,0.0,-3.3314,0.0,-3.5687,0.0,0.0,0.0,0.0,-4.4339,-4.5916,-4.5493,-4.4305,-4.4125,-4.391,0.0,-4.0611,0.0,0.0,0.0,0.0,-3.5645,0.0,0.0,0.0,0.0,0.0,0.0,0.0,0.0,-2.969,0.0,-2.8128,0.0,0.0,0.0,0.0,0.0,0.0,0.0,-2.4104,0.0,0.0,0.0,0.0,0.0,0.0,0.0,0.0,0.0,0.0,0.0,0.0,-2.9237,-2.8417,-3.0943,-3.2416,-3.239,-3.3489,-3.425,-3.4546,-3.4804,-3.4899,-3.4899,-3.4899,-3.4947,-3.4994,-3.4804,-3.4691,-3.4707,-3.4448,-3.425,-3.4201,-3.4151,-3.4101,-3.4101,-3.3748,-3.3866,-3.4084,-3.3235,-3.2617,-3.1967,-3.1957,-3.2231,-3.2342,-3.2007,0.0,0.0,0.0,0.0,0.0,-3.4435,-3.5131,-3.6645,-3.9411,-3.9308,-4.0104,-4.2692,-4.2929,-4.2554,-4.158,-4.0037,-3.8957,-3.8623,-3.5053,-3.3465,-3.4366,-3.2224,-3.1116,-3.109,0.0,0.0,0.0,0.0,0.0,0.0,0.0,-3.1159,-3.2998,0.0,-3.6389,-3.7568,-3.9345,-3.9998,-4.027,-4.3478,-4.4834,-4.479,-4.2483,-4.2247,-4.2608,-3.921,-3.9564,0.0,-3.865,0.0,0.0,0.0,0.0,0.0,-3.2171,0.0,0.0,0.0,0.0,0.0,0.0,0.0,0.0,0.0,0.0,0.0,0.0,0.0,-2.4078,-2.4187,0.0,-2.3494,0.0,0.0,0.0,0.0,0.0,0.0,0.0,0.0,0.0,0.0,-2.8248,-2.8194,-2.6715,-3.0162,-3.2041,-3.172,-3.2961,-3.3815,-3.4218,-3.4529,-3.4691,-3.4691,-3.4851,-3.4947,-3.5041,-3.4835,-3.4804,-3.4851,-3.4497,-3.4349,-3.43,-3.4151,-3.4101,-3.4034,-3.3423,-3.3475,-3.3697,-3.261,-3.2099,-3.1671,-3.3145,-3.2734,-3.2547,-3.3039,0.0,0.0,0.0,0.0,0.0,0.0,-3.8852,-4.0309,-4.3487,-4.0463,-3.9653,-4.3247,-4.3562,-4.3365,-4.2862,-4.2116,-4.1427,-4.0893,-3.6538,-3.4479,-3.5145,-3.2817,-3.1024,0.0,0.0,0.0,0.0,0.0,0.0,0.0,0.0,-3.115,-3.3864,-3.5907,-3.8093,-4.034,-4.237,-4.3198,-4.3162,0.0,-4.2736,-4.3487,-4.3386,0.0,0.0,-3.9715,-3.9022,0.0,0.0,0.0,0.0,0.0,0.0,0.0,0.0,0.0,0.0,-3.0911,0.0,0.0,0.0,0.0,-2.713,0.0,0.0,0.0,0.0,-2.4796,-2.3985,-2.4187,-2.3688,0.0,0.0,0.0,0.0,0.0,0.0,0.0,0.0,0.0,0.0,-2.7963,-2.7964,-2.8297,-2.9391,-3.0791,-3.1524,-3.1495,-3.2104,-3.2437,-3.2492,-3.3559,-3.4151,-3.4151,-3.4643,-3.4899,-3.4899,-3.4899,-3.4851,-3.4691,-3.4546,-3.4399,-3.43,-3.4151,-3.4101,-3.4034,-3.3423,-3.3198,-3.3077,-3.1962,-3.1537,-3.1275,-3.3992,-3.3662,-3.3455,-3.3251,-3.4406,0.0,0.0,-3.6238,0.0,0.0,-3.8188,0.0,0.0,-4.2927,-4.297,-4.5207,-4.6257,-4.6009,-4.4131,-4.3485,-4.3043,-4.2669,-3.9023,-3.6621,-3.5928,-3.3706,-3.1725,0.0,0.0,0.0,0.0,0.0,0.0,0.0,0.0,-3.0232,0.0,0.0,0.0,0.0,0.0,-4.2072,-4.1288,0.0,0.0,-4.1897,-4.139,-4.1052,0.0,-3.8853,-3.892,-3.9446,-3.7803,-3.6804,-3.6455,-3.7539,-3.6275,0.0,0.0,0.0,-3.4333,-3.2782,0.0,0.0,0.0,0.0,0.0,0.0,0.0,0.0,0.0,-2.3833,-2.3312,-2.3449,-2.3378,-2.3363,0.0,0.0,0.0,0.0,0.0,0.0,0.0,0.0,0.0,-2.5985,-2.6491,-2.6739,0.0,-2.9376,-3.0809,-3.0777,-3.1811,-3.2586,-3.2949,-3.3713,-3.4101,-3.4101,-3.4643,-3.4947,-3.5041,-3.4947,-3.4947,-3.4947,-3.4756,-3.4546,-3.4399,-3.43,-3.3917,-3.3423,-3.2911,-3.2407,-3.2018,-3.1652,-3.148,-3.1215,-3.4676,-3.4611,-3.4658,-3.4272,-3.5626,0.0,0.0,0.0,0.0,0.0,-3.921,0.0,-4.3605,0.0,-4.341,0.0,-4.5731,-4.5734,-4.5014,-4.3122,0.0,-4.3818,-4.0085,-3.7773,-3.7358,-3.5002,-3.3027,0.0,0.0,-2.882,0.0,0.0,0.0,0.0,0.0,-2.9591,-3.1354,-3.4411,-3.7065,0.0,0.0,-4.1071,0.0,0.0,-4.0872,-4.0747,0.0,-4.007,-3.9935,-3.874,-3.8975,-3.9528,-3.7923,-3.7327,-3.7221,-3.781,-3.6692,-3.5273,-3.5264,-3.5278,0.0,-3.3617,-3.234,0.0,-3.1028,0.0,0.0,0.0,0.0,0.0,0.0,0.0,-2.3484,-2.317,-2.3201,-2.3363,0.0,-2.3329,0.0,0.0,0.0,0.0,0.0,0.0,-2.3879,-2.4601,-2.5531,-2.5987,0.0,0.0,-3.0463,-3.0456,-3.154,-3.2272,-3.2571,-3.3371,-3.3764,-3.3815,-3.4529,-3.4947,-3.5041,-3.4947,-3.4947,-3.4994,-3.4804,-3.4643,-3.4546,-3.4349,-3.3901,-3.3182,-3.2641,-3.2048,-3.148,-3.1263,-3.094,-3.0411,-3.523,-3.5578,-3.6108,0.0,-3.7334,0.0,0.0,0.0,-4.1274,0.0,-4.1709,-4.1251,-4.3236,-4.1621,-4.1213,-4.3258,-4.228,-4.2726,-4.5246,-4.1209,0.0,0.0,-3.9955,-3.8012,-3.9176,0.0,-3.4887,-3.4163,0.0,0.0,0.0,0.0,0.0,0.0,-2.8484,0.0,-3.0221,-3.356,-3.5922,-3.7607,-3.9608,-4.0361,-4.0173,-3.8886,0.0,-4.002,-4.002,-4.002,-3.9901,-3.9365,-3.9152,-3.9028,-3.8463,-3.7854,-3.7417,-3.7358,-3.6693,-3.5973,-3.5973,-3.5688,-3.4971,-3.3484,0.0,0.0,0.0,0.0,-3.035,0.0,0.0,0.0,0.0,0.0,-2.4534,-2.3389,-2.3245,-2.3348,-2.3551,0.0,0.0,0.0,0.0,0.0,0.0,-2.3132,-2.3373,-2.3941,-2.517,-2.61,0.0,0.0,0.0,-3.0447,-3.1061,-3.1377,-3.1482,-3.2563,-3.3066,-3.3182,-3.4317,-3.4851,-3.4851,-3.4899,-3.4899,-3.4835,-3.4739,-3.4643,-3.4578,-3.4349,-3.3901,-3.3235,-3.2586,-3.1992,-3.1364,-3.0807,-2.9983,-2.904,-3.5909,-3.6754,-3.7649,0.0,-3.8858,-3.9759,0.0,0.0,0.0,0.0,-4.1317,-4.2021,-4.2689,-4.3128,-4.3034,-4.2122,-4.273,0.0,0.0,0.0,0.0,-4.3524,-4.238,-4.0734,-3.8632,-3.788,-3.63,-3.3653,0.0,0.0,-3.0462,0.0,0.0,0.0,0.0,0.0,-3.0243,-3.3752,-3.6677,-3.8916,-3.8872,-3.8886,0.0,0.0,-3.8463,-3.8794,-3.8794,-3.8794,-3.8739,-3.8574,-3.8518,-3.8407,-3.7796,-3.7519,-3.7238,-3.6569,-3.6211,-3.591,-3.5314,-3.5118,-3.4846,-3.4193,-3.3325,-3.2538,0.0,0.0,0.0,0.0,0.0,0.0,0.0,0.0,0.0,-2.4557,-2.3924,-2.3407,-2.3392,0.0,0.0,-2.2709,0.0,0.0,0.0,-2.3339,-2.3909,-2.3923,-2.5014,0.0,0.0,0.0,0.0,-2.9804,-2.952,-3.0058,-3.1467,-3.1259,-3.1616,-3.2641,-3.3764,-3.43,-3.43,-3.4691,-3.461,-3.4119,-3.4626,-3.4152,-3.313,-3.3598,-3.3077,-3.1962,-3.1823,-3.1248,-3.0613,-3.0433,-2.9561,-2.8426,-3.6208,-3.7201,0.0,-3.8257,0.0,0.0,-4.0788,-4.1246,0.0,-4.1712,-4.1794,0.0,-4.2788,-4.3533,-4.3533,-4.2355,-4.1974,0.0,-4.1665,0.0,0.0,-4.3225,-4.2791,-4.1474,-3.932,-3.899,0.0,-3.5639,0.0,0.0,-3.1749,0.0,0.0,0.0,0.0,-2.9082,-3.0365,-3.4176,-3.7095,-3.903,-3.8557,0.0,0.0,-3.7682,-3.746,-3.7504,-3.7504,-3.7838,-3.8278,-3.801,-3.7911,-3.7796,-3.7178,-3.6892,-3.6693,-3.6163,-3.5782,-3.5385,-3.4712,-3.4376,-3.4186,-3.3725,-3.305,-3.2513,-3.2513,-3.1671,-3.0713,0.0,0.0,0.0,0.0,0.0,0.0,-2.4417,-2.3762,-2.3363,0.0,0.0,0.0,0.0,-2.3259,0.0,0.0,-2.3086,-2.3695,-2.4109,0.0,0.0,0.0,0.0,0.0,-2.9146,-2.9071,-2.9415,-3.0238,-2.9739,-3.0186,-3.1543,-3.2415,-3.3155,-3.3697,-3.3951,-3.3818,-3.3495,-3.3818,-3.3427,-3.2633,-3.2955,-3.2524,-3.1537,-3.1248,-3.0792,-3.0283,-2.9964,-2.9285,-2.8452,-3.6539,-3.74,0.0,0.0,0.0,0.0,0.0,-4.1581,0.0,-4.3821,0.0,-4.1998,-4.297,-4.3225,-4.3269,-4.309,0.0,-4.0651,-4.2925,-3.9843,-3.9544,-4.318,-4.2162,-4.1205,-4.0546,-3.9888,-3.9215,0.0,0.0,0.0,0.0,0.0,0.0,0.0,0.0,0.0,0.0,-3.4708,-3.7107,-3.8492,-3.8415,-3.8323,-3.8123,-3.703,-3.6569,-3.6492,-3.6492,-3.7163,-3.801,-3.746,-3.7298,-3.7178,-3.66,-3.6226,-3.5958,-3.5804,-3.526,-3.4669,-3.3956,-3.3601,-3.3209,-3.2658,-3.2513,-3.2513,-3.2513,-3.2454,-3.2222,-3.1642,-3.1453,0.0,0.0,0.0,0.0,-2.3878,0.0,0.0,0.0,0.0,0.0,0.0,0.0,0.0,0.0,0.0,0.0,0.0,0.0,0.0,0.0,0.0,0.0,0.0,-2.9116,0.0,-2.8846,0.0,-2.9024,-3.0545,-3.0908,-3.1789,-3.3024,-3.3039,-3.2933,-3.2826,-3.2741,-3.2633,-3.247,-3.2415,-3.2043,-3.1522,-3.0851,-3.0404,-3.0079,-2.9442,-2.8936,-2.8502,-3.788,-3.851,0.0,0.0,0.0,-4.0448,-4.2054,-4.3152,-4.3363,-4.2093,-4.2539,-4.2671,-4.1818,-4.2686,-4.2895,-4.1818,-4.1294,0.0,0.0,0.0,0.0,-4.3254,-4.2596,-4.1878,-4.122,-4.0561,-3.9903,0.0,0.0,0.0,0.0,0.0,0.0,0.0,0.0,0.0,-3.4599,-3.4752,0.0,-3.8462,-3.7908,-3.7338,-3.6892,-3.72,-3.6984,-3.6492,-3.6492,-3.6662,-3.6769,-3.6662,-3.6662,-3.66,-3.6226,-3.6037,-3.5804,-3.4673,-3.4268,-3.3927,-3.3039,-3.2751,-3.2658,-3.2542,-3.2513,-3.2513,-3.2513,-3.2092,-3.1656,-3.154,-3.1105,-3.064,-3.0306,0.0,0.0,0.0,0.0,0.0,0.0,0.0,0.0,0.0,0.0,-2.4578,0.0,0.0,0.0,0.0,0.0,0.0,0.0,0.0,0.0,0.0,0.0,0.0,0.0,0.0,0.0,-3.1321,-3.0768,-3.1149,-3.2296,-3.2772,-3.2664,-3.2099,-3.2524,-3.2099,-3.1146,-3.1622,-3.1407,-3.0792,-3.0628,-3.0084,-2.9385,-2.9226,-2.8337,-2.7173,-3.9319,0.0,0.0,0.0,0.0,0.0,0.0,-4.2546,0.0,-4.2554,-4.294,-4.309,-4.2462,-4.2955,-4.3075,-4.2447,-4.1773,-4.1669,-4.2342,-4.1444,-4.1459,-4.2776,-4.2207,-4.1384,-4.0382,-4.0382,-3.9903,-3.8886,0.0,0.0,0.0,0.0,0.0,0.0,0.0,-3.2078,0.0,0.0,0.0,-3.7984,-3.8015,-3.7615,-3.7046,-3.7384,-3.7076,-3.6492,-3.6492,-3.6492,-3.6492,-3.6492,-3.6492,-3.6368,-3.5704,-3.5332,-3.5007,-3.3828,-3.3333,-3.301,-3.2179,-3.2004,-3.1917,-3.1584,-3.1511,-3.1511,-3.1511,-3.125,-3.1032,-3.1032,-3.0785,-3.0379,-2.9711,-2.8677,0.0,0.0,0.0,0.0,0.0,0.0,-2.4967,0.0,0.0,0.0,0.0,0.0,0.0,0.0,0.0,0.0,0.0,0.0,0.0,0.0,0.0,0.0,0.0,0.0,0.0,-3.0268,-2.9873,-3.0373,-3.161,-3.1751,-3.1694,-3.1349,-3.1564,-3.1291,-3.0702,-3.1029,-3.0911,-3.0539,-3.0145,-2.9664,-2.9097,-2.8382,-2.757,-2.6807,0.0,-3.9521,0.0,0.0,-3.9103,0.0,-4.0231,-4.1773,-4.3015,-4.3299,-4.3329,-4.3329,-4.3329,-4.3329,-4.3165,-4.2746,-4.2028,-4.1728,-4.2058,-4.116,-4.095,-4.1698,-4.1369,-4.0681,-3.9649,-3.992,-3.9591,0.0,0.0,0.0,0.0,0.0,0.0,0.0,0.0,0.0,0.0,0.0,-3.7446,-3.7754,-3.8138,-3.7984,-3.7477,-3.7338,-3.6953,-3.6492,-3.6492,-3.6492,-3.6476,-3.626,-3.6152,-3.606,-3.5138,-3.457,-3.4003,-3.2945,-3.247,-3.2164,-3.1496,-3.1322,-3.1192,-3.0698,-3.0568,-3.0568,-3.0568,-3.0568,-3.0568,-3.0568,-3.0568,-3.0263,-2.9276,-2.8953,0.0,0.0,0.0,0.0,0.0,0.0,0.0,0.0,0.0,0.0,-2.5401,0.0,0.0,0.0,0.0,0.0,0.0,0.0,0.0,0.0,0.0,-2.7513,-2.8125,0.0,-2.7963,0.0,-2.9245,-2.9805,-3.1014,-3.0895,-3.0821,-3.0762,-3.0642,-3.0568,-3.0568,-3.0568,-3.0568,-3.051,-2.9694,-2.9245,-2.884,-2.7584,-2.6905,-2.6638,0.0,0.0,0.0,0.0,0.0,0.0,0.0,-4.2162,-4.1983,-4.318,-4.3329,-4.3329,-4.3329,-4.3329,-4.2611,-4.0831,-4.1654,-4.104,-3.8153,-4.0053,-4.0816,-3.9738,-4.0202,-4.0427,-4.0307,-3.9622,-3.9134,0.0,0.0,-3.4721,0.0,0.0,0.0,0.0,0.0,0.0,0.0,-3.6091,-3.7292,-3.8369,-3.7815,-3.7554,-3.743,-3.683,-3.6538,-3.6492,-3.6492,-3.6492,-3.6337,-3.5461,-3.514,-3.5063,-3.4676,-3.3913,-3.293,-3.1911,-3.1613,-3.1467,-3.0843,-3.0655,-3.064,-3.0582,-3.0568,-3.0568,-3.0568,-3.0568,-3.0568,-3.0568,-3.0568,-3.0539,-3.0422,-2.9508,-2.8371,0.0,0.0,0.0,0.0,0.0,-2.5411,-2.5364,0.0,0.0,0.0,0.0,0.0,0.0,0.0,0.0,0.0,0.0,0.0,-2.7342,0.0,-2.7175,-2.8254,-2.7661,0.0,-3.0881,-2.9799,-2.979,-3.0821,-3.1014,-3.0955,-3.0762,-3.0642,-3.0568,-3.0568,-3.0568,-3.0568,-3.051,-2.9694,-2.8972,-2.8211,-2.7413,-2.6636,-2.6007,0.0,0.0,0.0,0.0,0.0,0.0,0.0,-4.1205,-4.1564,-4.2087,-4.2506,-4.2596,-4.2207,-4.2162,-4.1848,-4.1055,-4.1474,-4.1205,-3.9873,-4.0427,-4.0561,-4.0023,-3.9727,-3.9652,-3.9813,-3.9326,-3.9177,0.0,0.0,0.0,0.0,0.0,0.0,0.0,0.0,-3.5339,-3.5937,-3.6752,-3.7415,-3.7846,-3.7169,-3.6892,-3.6861,-3.6599,-3.6492,-3.6492,-3.6289,-3.6163,-3.6072,-3.5012,-3.4848,-3.4773,-3.3483,-3.2805,-3.2281,-3.1256,-3.0945,-3.0901,-3.064,-3.0568,-3.0568,-3.0568,-3.0568,-3.0568,-3.0568,-3.0568,-3.0568,-3.0568,-3.0568,-3.0568,-3.0568,-3.022,-2.9564,0.0,0.0,0.0,0.0,0.0,0.0,-2.7838,0.0,-2.7011,0.0,0.0,0.0,0.0,0.0,0.0,0.0,0.0,0.0,-2.7174,0.0,-2.7771,-2.9679,-2.8737,-2.9078,-3.0821,-3.0295,-3.0309,-3.0702,-3.0821,-3.0895,-3.0762,-3.0642,-3.0568,-3.0568,-3.0568,-3.035,-2.9811,-2.9001,-2.8197,-2.7456,-2.6664,-2.6092,-2.5646,-4.1049,0.0,-3.9266,0.0,-3.9444,-3.9989,-3.9613,-4.0679,-4.1265,-4.068,-4.134,-4.1683,-4.1414,-4.1384,-4.1145,-4.0561,-4.0861,-4.0681,-3.9723,-3.986,-3.986,-3.9529,-3.9222,0.0,-3.9337,-3.9104,-3.9031,-3.9119,-3.6303,0.0,0.0,0.0,0.0,0.0,-3.5156,-3.5966,-3.6241,-3.6794,-3.7072,-3.7026,-3.6614,-3.6492,-3.6492,-3.6492,-3.6306,-3.5998,-3.5811,-3.5485,-3.5087,-3.4128,-3.3965,-3.3923,-3.2509,-3.1913,-3.1542,-3.0833,-3.0568,-3.0568,-3.0568,-3.0568,-3.0568,-3.0568,-3.0568,-3.0568,-3.0568,-3.0568,-3.0568,-3.0568,-3.0568,-3.0568,-3.0568,-3.0702,-3.0338,-2.9095,0.0,0.0,0.0,0.0,0.0,0.0,-2.7763,-2.7479,-2.8808,0.0,0.0,0.0,0.0,0.0,0.0,0.0,0.0,0.0,0.0,0.0,0.0,-2.8703,-2.9083,-3.0568,-3.0642,-3.0642,-3.0568,-3.0762,-3.0821,-3.0821,-3.0762,-3.0702,-3.0642,-3.0642,-3.0131,-2.9318,-2.844,-2.7698,-2.6989,-2.6092,-2.5666,-2.5482,-4.1008,-4.0962,-4.0967,-4.0967,-4.1483,-4.1395,-4.0076,-4.09,-4.1008,-3.8963,-3.9691,-4.0666,-4.1309,-4.1384,-4.0576,-3.8601,-3.9649,-3.9035,-3.5789,-3.7778,-3.8597,0.0,0.0,-3.9104,-3.9104,-3.8943,-3.8723,-3.8516,0.0,0.0,-3.3894,0.0,-3.3982,-3.458,-3.6045,-3.6175,-3.5464,-3.5846,-3.6052,-3.6052,-3.6367,-3.6492,-3.6492,-3.6492,-3.5891,-3.4987,-3.4987,-3.4363,-3.338,-3.2464,-3.2136,-3.2136,-3.2121,-3.1408,-3.0642,-3.0568,-3.0568,-3.0568,-3.0568,-3.0568,-3.0568,-3.0568,-3.0568,-3.0568,-3.0568,-3.0568,-3.0568,-3.0568,-3.0568,-3.0568,-3.0568,-3.0568,-3.022,-2.9068,0.0,0.0,0.0,0.0,0.0,-2.759,-2.6258,-2.5878,-2.7297,0.0,0.0,0.0,0.0,0.0,0.0,0.0,0.0,-2.5379,-2.4268,0.0,-2.7144,-2.7144,-2.8276,-3.0568,-3.0702,-3.0702,-3.0568,-3.0762,-3.0821,-3.0821,-3.1014,-3.0955,-3.0762,-3.0642,-3.0131,-2.9318,-2.8382,-2.7641,-2.6975,-2.5904,-2.5494,-2.5475,-3.86,-3.9535,-4.0304,-3.9762,-4.0163,-4.0466,-4.0041,-4.0288,-4.0334,-3.9642,-3.9914,-4.0175,-4.0387,-4.0199,-3.9783,0.0,-3.8646,-3.8232,0.0,-3.7812,-3.7905,-3.8364,-3.7735,-3.75,-3.7627,-3.7414,-3.7137,-3.6796,0.0,0.0,0.0,-3.3411,-3.3857,-3.4807,-3.5629,-3.5883,-3.5608,-3.6148,-3.6367,-3.6321,-3.5737,-3.5492,-3.5369,-3.4697,-3.4272,-3.3953,-3.3722,-3.3449,-3.2981,-3.2038,-3.1711,-3.1638,-3.1214,-3.0862,-3.0568,-3.0568,-3.0568,-3.0568,-3.0568,-3.0568,-3.0568,-3.0568,-3.0568,-3.0568,-3.0568,-3.0568,-3.0568,-3.0568,-3.0568,-3.0568,-3.0568,-3.0568,-3.022,-2.8941,0.0,0.0,0.0,0.0,0.0,-2.8936,-2.7718,-2.7369,0.0,-2.7417,0.0,0.0,0.0,0.0,0.0,0.0,0.0,0.0,-2.7476,0.0,-2.9449,-2.8645,-2.9068,-3.0568,-3.0642,-3.0702,-3.0702,-3.0702,-3.0702,-3.0821,-3.0762,-3.0702,-3.0642,-3.0447,-2.9966,-2.917,-2.8338,-2.7418,-2.6521,-2.5759,-2.5318,-2.5071,-3.8519,-3.9458,-4.0209,-3.9558,-3.9847,-3.9899,-3.9313,-3.9677,-3.9813,-3.9297,-3.9536,-3.9783,-3.9783,-3.9409,0.0,-3.9424,-3.8646,-3.837,-3.8972,-3.8117,-3.7853,-3.8341,-3.7375,-3.6777,-3.6599,0.0,0.0,-3.5889,-3.5193,-3.4591,-3.4085,-3.3825,-3.4193,-3.5037,-3.5379,-3.5444,-3.5429,-3.551,-3.5531,-3.5485,-3.4727,-3.4469,-3.4348,-3.3742,-3.3305,-3.2928,-3.2744,-3.2397,-3.1995,-3.1355,-3.1163,-3.1105,-3.0698,-3.0568,-3.0568,-3.0568,-3.0568,-3.0568,-3.0568,-3.0568,-3.0568,-3.0568,-3.0568,-3.0568,-3.0568,-3.0568,-3.0568,-3.0568,-3.0568,-3.0568,-3.0568,-3.0568,-3.0321,-2.9523,-3.0177,-3.0543,-2.9839,0.0,0.0,0.0,0.0,0.0,0.0,-2.8483,0.0,0.0,0.0,0.0,0.0,0.0,0.0,-2.8399,-2.8282,0.0,-2.9886,-2.9157,-2.9405,-3.0568,-3.0568,-3.0642,-3.0702,-3.0702,-3.0702,-3.0821,-3.0702,-3.0642,-3.0568,-3.0341,-2.959,-2.8545,-2.7973,-2.6979,-2.5844,-2.5314,-2.4998,-2.4847,-3.994,-4.0171,0.0,0.0,-4.0093,0.0,-3.8159,-3.9039,-3.9404,-3.8129,-3.8707,-3.9361,-3.9275,-3.8956,-3.8883,-3.9203,0.0,0.0,0.0,-3.8355,-3.8033,-3.7521,-3.7259,0.0,-3.5942,-3.6042,-3.6,-3.5769,-3.4882,-3.4837,-3.5448,-3.4835,-3.4773,-3.5082,-3.5103,-3.5008,-3.4751,-3.4248,-3.3967,-3.3908,-3.354,-3.338,-3.338,-3.3335,-3.2779,-3.1987,-3.1987,-3.1394,-3.0568,-3.0568,-3.0568,-3.0568,-3.0568,-3.0568,-3.0568,-3.0568,-3.0568,-3.0568,-3.0568,-3.0568,-3.0568,-3.0568,-3.0568,-3.0568,-3.0568,-3.0568,-3.0568,-3.0568,-3.0568,-3.0568,-3.0568,-3.0568,-3.0568,-3.0568,-3.0702,-3.0732,-3.0704,0.0,0.0,0.0,0.0,0.0,0.0,-2.9366,-2.9381,0.0,0.0,0.0,0.0,0.0,-2.6169,-2.7624,-2.7499,-2.79,-2.8937,-2.8937,-2.9493,-3.0568,-3.0568,-3.0568,-3.0568,-3.0702,-3.0762,-3.0762,-3.0762,-3.0702,-3.0522,-3.0233,-2.91,-2.7664,-2.7373,-2.6345,-2.5012,-2.4695,-2.4631,-2.4602,0.0,0.0,-3.8333,-3.7682,-3.8098,-3.8409,-3.8007,-3.8235,-3.8409,-3.8238,-3.84,-3.853,-3.8379,-3.8228,-3.8022,-3.7534,-3.702,-3.6876,-3.7095,-3.6117,-3.5802,-3.6346,-3.5379,-3.4747,-3.4409,-3.4464,-3.4624,-3.5011,-3.4396,-3.4096,-3.4304,-3.3994,-3.4005,-3.421,-3.3943,-3.3908,-3.3944,-3.3728,-3.3632,-3.3572,-3.2748,-3.245,-3.233,-3.1571,-3.1172,-3.0995,-3.0995,-3.0819,-3.0568,-3.0568,-3.0568,-3.0568,-3.0568,-3.0568,-3.0568,-3.0568,-3.0568,-3.0568,-3.0568,-3.0568,-3.0568,-3.0568,-3.0568,-3.0568,-3.0568,-3.0568,-3.0568,-3.0568,-3.0568,-3.0568,-3.0568,-3.0568,-3.0568,-3.0568,-3.0642,-3.0352,-2.9475,-2.9122,0.0,0.0,-2.8403,-2.8867,-2.9123,-2.9954,-3.0001,0.0,0.0,0.0,0.0,0.0,-2.8843,-3.0327,-3.0201,-3.0176,-3.0353,-3.0309,-3.0396,-3.0568,-3.0568,-3.0568,-3.0568,-3.0642,-3.0568,-3.0447,-3.0447,-3.0341,-3.0233,-2.996,-2.9275,-2.8234,-2.7534,-2.6492,-2.5313,-2.4759,-2.4539,-2.4518,-3.6245,-3.7086,-3.784,-3.7277,-3.7518,-3.7827,-3.776,-3.7692,-3.7707,-3.7775,-3.7556,-3.7336,-3.7252,-3.706,-3.6733,-3.602,-3.6226,-3.6428,-3.6428,-3.5787,-3.5444,-3.5553,-3.485,-3.4223,-3.3758,-3.3744,-3.397,-3.4368,-3.397,-3.3813,-3.4005,-3.3636,-3.3575,-3.3696,-3.3296,-3.315,-3.3106,-3.275,-3.2579,-3.252,-3.1718,-3.1408,-3.1364,-3.0833,-3.0568,-3.0568,-3.0568,-3.0568,-3.0568,-3.0568,-3.0568,-3.0568,-3.0568,-3.0568,-3.0568,-3.0568,-3.0568,-3.0568,-3.0568,-3.0568,-3.0568,-3.0568,-3.0568,-3.0568,-3.0568,-3.0568,-3.0568,-3.0568,-3.0568,-3.0568,-3.0568,-3.0568,-3.0568,-3.0568,-3.0089,-2.9522,-2.8866,-2.8309,0.0,-2.8066,-2.8685,-2.9278,-2.9824,-3.047,-3.0529,-2.9754,0.0,0.0,-2.9967,-2.9422,-2.9758,-3.1131,-3.1132,-3.1014,-3.0821,-3.0762,-3.0702,-3.0568,-3.0568,-3.0568,-3.0568,-3.0507,-3.0387,-3.0312,-3.0129,-2.9808,-2.9373,-2.917,-2.8298,-2.7113,-2.6683,-2.5816,-2.4898,-2.4543,-2.4436,-2.4502,-3.7353,-3.7473,-3.754,-3.7421,-3.7353,-3.7338,-3.712,-3.6999,-3.6945,-3.6999,-3.6556,-3.6178,-3.6122,-3.5798,-3.5382,-3.4682,-3.5761,-3.6292,-3.5954,-3.5954,-3.5637,-3.4963,-3.478,-3.4326,-3.3619,-3.3536,-3.3675,-3.3951,-3.3644,-3.3656,-3.3969,-3.3454,-3.3296,-3.3296,-3.28,-3.2509,-3.2324,-3.1656,-3.1366,-3.1322,-3.0785,-3.0568,-3.0568,-3.0568,-3.0568,-3.0568,-3.0568,-3.0568,-3.0568,-3.0568,-3.0568,-3.0568,-3.0568,-3.0568,-3.0568,-3.0568,-3.0568,-3.0568,-3.0568,-3.0568,-3.0568,-3.0568,-3.0568,-3.0568,-3.0568,-3.0568,-3.0568,-3.0568,-3.0568,-3.0568,-3.0568,-3.0568,-3.051,-3.0321,-2.9392,-2.8608,-2.8419,0.0,-2.7594,-2.8744,-2.9163,-2.9721,-3.0719,-3.0762,-3.0762,-3.0762,-2.9754,0.0,0.0,-2.9954,-2.9866,-3.1043,-3.1073,-3.1014,-3.0821,-3.0702,-3.0568,-3.0568,-3.0568,-3.0568,-3.0568,-3.0387,-3.019,-3.0068,-2.9747,-2.9156,-2.8363,-2.8208,-2.7191,-2.5591,-2.5591,-2.5063,-2.4273,-2.4273,-2.4418,-2.4574,-3.5869,-3.5869,-3.5869,-3.5869,-3.5869,-3.5804,-3.5804,-3.5804,-3.5789,-3.5939,-3.5859,-3.5598,-3.5163,-3.5096,-3.4797,-3.4108,-3.4264,-3.4307,-3.4252,-3.4361,-3.4318,-3.4108,-3.4134,-3.4037,-3.3605,-3.3466,-3.3591,-3.4074,-3.3393,-3.3202,-3.3601,-3.2753,-3.2465,-3.2629,-3.1864,-3.1575,-3.1627,-3.0988,-3.0727,-3.0713,-3.0416,-3.0447,-3.0568,-3.0387,-3.0447,-3.0568,-3.0568,-3.0568,-3.0568,-3.0568,-3.0568,-3.0568,-3.0568,-3.0568,-3.0568,-3.0568,-3.0568,-3.0568,-3.0568,-3.0568,-3.0568,-3.0568,-3.0568,-3.0568,-3.0568,-3.0568,-3.0568,-3.0568,-3.0568,-3.0568,-3.0568,-3.0568,-3.0219,-2.9145,-2.8811,-2.8303,-2.7229,0.0,-2.856,-2.8846,-2.9783,-3.0483,-3.0747,-3.0702,-3.0642,-3.0642,-3.0453,-3.0424,-3.0687,-3.0572,-3.0616,-3.0821,-3.1117,-3.1176,-3.1073,-3.0762,-3.0568,-3.0568,-3.0568,-3.0507,-3.0326,-3.0312,-2.9808,-2.9044,-2.898,-2.8454,-2.767,-2.7617,-2.7002,-2.6045,-2.6045,-2.5441,-2.4718,-2.4718,-2.4718,-2.4718,-3.5504,-3.5504,-3.5504,-3.5504,-3.5504,-3.5504,-3.5504,-3.5162,-3.4949,-3.4986,-3.4639,-3.4317,-3.4059,-3.4059,-3.3922,-3.3605,-3.3605,-3.3463,-3.3123,-3.3696,-3.3951,-3.3896,-3.3882,-3.3573,-3.2986,-3.2633,-3.2571,-3.2839,-3.262,-3.2608,-3.2804,-3.2153,-3.185,-3.185,-3.1061,-3.0773,-3.0758,-3.047,-3.0341,-3.0341,-3.0326,-3.0387,-3.0447,-3.0447,-3.0507,-3.0568,-3.0568,-3.0568,-3.0568,-3.0568,-3.0568,-3.0568,-3.0568,-3.0568,-3.0568,-3.0568,-3.0568,-3.0568,-3.0568,-3.0568,-3.0568,-3.0568,-3.0568,-3.0568,-3.0568,-3.0568,-3.0568,-3.0568,-3.0507,-3.0447,-3.0447,-3.0401,-3.0153,-2.9681,-2.9001,0.0,0.0,-2.8248,-2.861,-2.8779,-2.9798,-3.0507,-3.0702,-3.0642,-3.0568,-3.0568,-3.0568,-3.0568,-3.0568,-3.0642,-3.0702,-3.0821,-3.094,-3.1058,-3.1087,-3.0762,-3.0568,-3.0447,-3.0447,-3.0326,-3.0158,-2.9699,-2.9233,-2.8789,-2.8274,-2.7604,-2.6731,-2.6731,-2.6195,-2.5394,-2.5394,-2.5123,-2.479,-2.479,-2.479,-2.479,-3.5504,-3.5504,-3.5504,-3.5504,-3.5504,-3.5504,-3.5504,-3.503,-3.4616,-3.4549,-3.3991,-3.3534,-3.3254,-3.324,-3.3114,-3.2904,-3.289,-3.2693,-3.2216,-3.2911,-3.3386,-3.3386,-3.3235,-3.2871,-3.2337,-3.1895,-3.1707,-3.1772,-3.1904,-3.1961,-3.1947,-3.1426,-3.1123,-3.0998,-3.0495,-3.0219,-3.0111,-3.0111,-3.0111,-3.0158,-3.0144,-3.0251,-3.0387,-3.0447,-3.0522,-3.0568,-3.0568,-3.0507,-3.0522,-3.0507,-3.0462,-3.0462,-3.0462,-3.0462,-3.0522,-3.0507,-3.0568,-3.0568,-3.0568,-3.0568,-3.0568,-3.0568,-3.0568,-3.0568,-3.0507,-3.0507,-3.0507,-3.0522,-3.0326,-3.0266,-3.0266,-3.0158,-3.0011,-2.9863,0.0,0.0,0.0,-2.8497,-2.8555,-2.9015,-2.9854,-3.0447,-3.0568,-3.0568,-3.0568,-3.0568,-3.0522,-3.0462,-3.0462,-3.0387,-3.0462,-3.0568,-3.0702,-3.0821,-3.0955,-3.0642,-3.0401,-3.0266,-3.0266,-3.0158,-2.9974,-2.9324,-2.8853,-2.8468,-2.7802,-2.6867,-2.5918,-2.5918,-2.5523,-2.4921,-2.4921,-2.4921,-2.4921,-2.4921,-2.4861,-2.479,-3.5504,-3.5504,-3.5504,-3.5504,-3.5504,-3.5504,-3.5504,-3.5439,-3.5294,-3.4935,-3.4802,-3.4301,-3.3039,-3.2915,-3.2553,-3.1734,-3.1626,-3.1597,-3.1555,-3.1664,-3.1744,-3.1848,-3.1848,-3.19,-3.2054,-3.1801,-3.1772,-3.1982,-3.1397,-3.1111,-3.1174,-3.053,-3.0183,-3.0183,-3.014,-3.0111,-3.0111,-3.0111,-3.0158,-3.0266,-2.9931,-3.0129,-3.0582,-3.0233,-3.0341,-3.0568,-3.0387,-3.0312,-3.0326,-3.0158,-3.0111,-3.0111,-3.0111,-3.0111,-3.0172,-3.0266,-3.0447,-3.0568,-3.0568,-3.0568,-3.0568,-3.0568,-3.0568,-3.0568,-3.0387,-3.0312,-3.0266,-3.0172,-3.0111,-3.0111,-3.0111,-3.0111,-2.9725,-2.8526,0.0,0.0,-2.8197,-2.8326,-2.8814,-3.0038,-3.0389,-3.0568,-3.0568,-3.0568,-3.0568,-3.0568,-3.028,-3.0111,-3.0111,-2.9851,-2.9727,-2.987,-3.0387,-3.0642,-3.0642,-3.028,-3.0111,-3.0111,-3.0111,-3.0036,-2.9822,-2.9747,-2.8967,-2.7604,-2.755,-2.6663,-2.5382,-2.5382,-2.5312,-2.5241,-2.5241,-2.5241,-2.5241,-2.5241,-2.5052,-2.4718,-3.4262,-3.4262,-3.4262,-3.4262,-3.4262,-3.4262,-3.4262,-3.3932,-3.3598,-3.3454,-3.3013,-3.2611,-3.2118,-3.2023,-3.1871,-3.1513,-3.1485,-3.1316,-3.0923,-3.0895,-3.1064,-3.1589,-3.1157,-3.0997,-3.1075,-3.0743,-3.0531,-3.0657,-3.0506,-3.0468,-3.0468,-3.0225,-3.0036,-2.9884,-2.9884,-2.9837,-2.9775,-2.9393,-2.9558,-2.9964,-2.9458,-2.9665,-3.0294,-3.0219,-3.0326,-3.0387,-3.0312,-3.0312,-3.0266,-3.0172,-3.0111,-3.0111,-3.0111,-3.0158,-3.0266,-3.0447,-3.0507,-3.0568,-3.0568,-3.0568,-3.0568,-3.0568,-3.0507,-3.0387,-3.0312,-3.0219,-3.0158,-3.0111,-2.9974,-2.996,-3.005,-2.9927,-2.9709,-2.9408,0.0,-2.9234,-2.9473,-2.9488,-2.9688,-3.0389,-3.0447,-3.0387,-3.028,-3.0462,-3.0462,-3.0036,-3.0036,-2.9988,-2.9803,-2.9665,-2.9602,-2.9651,-2.9761,-2.9931,-3.0312,-3.0021,-2.9884,-2.9884,-2.9884,-2.9623,-2.8953,-2.857,-2.7802,-2.6812,-2.6333,-2.5849,-2.5312,-2.5312,-2.5312,-2.5312,-2.5312,-2.5312,-2.5241,-2.5052,-2.4849,-2.4562,-3.3546,-3.3499,-3.3499,-3.3499,-3.3499,-3.3499,-3.3499,-3.3037,-3.2596,-3.2533,-3.1982,-3.1533,-3.1204,-3.119,-3.1106,-3.0909,-3.0895,-3.0712,-3.0263,-3.0235,-3.0431,-3.0881,-3.0474,-3.0235,-3.0235,-2.991,-2.9747,-2.9761,-2.9898,-2.9974,-2.9927,-2.9927,-2.9851,-2.9761,-2.9563,-2.9417,-2.9279,-2.8661,-2.8753,-2.9185,-2.8714,-2.8933,-2.9511,-2.9557,-2.9602,-2.9631,-2.9832,-2.9829,-2.9872,-2.9917,-2.9799,-2.9671,-2.987,-3.0097,-3.0266,-3.0401,-3.0522,-3.0568,-3.0568,-3.0568,-3.0568,-3.0568,-3.0507,-3.0387,-3.0312,-3.0219,-3.0158,-3.0111,-2.9974,-2.996,-3.005,-2.9927,-2.9789,-2.9974,-2.996,-2.9946,-3.0083,-3.0158,-3.0158,-3.028,-3.0266,-3.0144,-3.0036,-3.0205,-3.0205,-2.9803,-2.9789,-2.9651,-2.9289,-2.9289,-2.9289,-2.9289,-2.9135,-2.9261,-2.9699,-2.9699,-2.956,-2.931,-2.9359,-2.8967,-2.8182,-2.7736,-2.7082,-2.6346,-2.5861,-2.5511,-2.5312,-2.5312,-2.5312,-2.5312,-2.5312,-2.5241,-2.5111,-2.4861,-2.4562,-2.4127,-3.3577,-3.3469,-3.3484,-3.3484,-3.3484,-3.3484,-3.3484,-3.3208,-3.2882,-3.2518,-3.2213,-3.1596,-3.0586,-3.0516,-3.0263,-2.9659,-2.9602,-2.9602,-2.9602,-2.9602,-2.9602,-2.9602,-2.9602,-2.9602,-2.9602,-2.9699,-2.9699,-2.9602,-2.9699,-2.9699,-2.9602,-2.9602,-2.9602,-2.9574,-2.8956,-2.8675,-2.8647,-2.8029,-2.7865,-2.7967,-2.7879,-2.7937,-2.8197,-2.8024,-2.8082,-2.8283,-2.8734,-2.8887,-2.9001,-2.9454,-2.9195,-2.8802,-2.942,-2.9803,-3.0111,-3.0111,-3.0355,-3.0568,-3.0568,-3.0568,-3.0568,-3.0568,-3.0568,-3.0568,-3.0326,-3.0312,-3.0266,-3.0111,-3.0111,-3.0111,-3.0111,-3.0111,-3.0036,-2.9822,-2.9974,-2.9988,-2.9665,-3.0021,-3.0144,-2.9665,-2.9927,-3.0036,-2.9822,-2.9808,-2.9884,-3.005,-2.9574,-2.9071,-2.8651,-2.8587,-2.8587,-2.8587,-2.8587,-2.8651,-2.878,-2.9226,-2.9022,-2.8287,-2.8441,-2.8182,-2.7484,-2.7484,-2.7082,-2.6414,-2.6414,-2.6,-2.5312,-2.5312,-2.5312,-2.5312,-2.5312,-2.5123,-2.479,-2.479,-2.4273,-2.3593,-3.3325,-3.2982,-3.273,-3.273,-3.24,-3.2123,-3.2123,-3.1797,-3.1483,-3.1195,-3.084,-3.0472,-2.9897,-2.9883,-2.9813,-2.9631,-2.9602,-2.9602,-2.9602,-2.9602,-2.9602,-2.9602,-2.9602,-2.9602,-2.9602,-2.9665,-2.9665,-2.9602,-2.9665,-2.9665,-2.9602,-2.9167,-2.897,-2.8942,-2.8324,-2.8057,-2.8015,-2.7369,-2.7455,-2.7924,-2.7328,-2.747,-2.8082,-2.8024,-2.8294,-2.8692,-2.8817,-2.9171,-2.9567,-2.9594,-2.949,-2.9364,-2.9642,-2.9822,-2.9946,-3.0144,-3.0326,-3.0447,-3.0568,-3.0568,-3.0568,-3.0568,-3.0507,-3.0387,-3.0312,-3.0219,-3.0172,-3.0111,-3.0111,-3.0111,-3.0219,-3.0158,-3.0111,-3.0036,-2.996,-2.9822,-2.9761,-2.9884,-2.996,-2.9927,-3.005,-2.9988,-2.9713,-2.9851,-2.9789,-2.9226,-2.8958,-2.8766,-2.8587,-2.8587,-2.8587,-2.8587,-2.8587,-2.8587,-2.8651,-2.9035,-2.9162,-2.9085,-2.9198,-2.8661,-2.7484,-2.7484,-2.6812,-2.5652,-2.5652,-2.5511,-2.5312,-2.5312,-2.5312,-2.5312,-2.5312,-2.5241,-2.5111,-2.4861,-2.449,-2.397,-3.3251,-3.2949,-3.2641,-3.2437,-3.2007,-3.1552,-3.1336,-3.0925,-3.0568,-3.0401,-3.0097,-2.9803,-2.9602,-2.9602,-2.9602,-2.9602,-2.9602,-2.9602,-2.9602,-2.9602,-2.9602,-2.9602,-2.9602,-2.9602,-2.9602,-2.9602,-2.9602,-2.9602,-2.9602,-2.9602,-2.9602,-2.897,-2.8689,-2.8647,-2.7776,-2.7397,-2.7355,-2.6722,-2.6708,-2.7145,-2.6652,-2.6736,-2.7173,-2.7173,-2.7555,-2.8135,-2.8389,-2.887,-2.9388,-2.9518,-2.9602,-2.956,-2.9417,-2.9563,-2.9884,-3.0144,-3.0266,-3.0326,-3.0568,-3.0568,-3.0568,-3.0568,-3.0507,-3.0447,-3.0447,-3.0341,-3.028,-3.028,-3.028,-3.0341,-3.0387,-3.028,-3.0158,-3.0111,-2.9974,-2.9898,-2.9761,-2.9837,-2.9898,-2.9851,-2.9789,-2.9651,-2.9415,-2.9477,-2.9352,-2.8844,-2.8716,-2.8651,-2.8587,-2.8587,-2.8587,-2.8587,-2.8314,-2.817,-2.817,-2.8143,-2.8208,-2.843,-2.861,-2.7947,-2.6595,-2.6595,-2.6114,-2.5312,-2.5312,-2.5312,-2.5312,-2.5312,-2.5312,-2.5312,-2.5312,-2.5241,-2.5052,-2.4861,-2.4418,-2.3897,-3.3459,-3.3303,-3.3161,-3.2656,-3.2241,-3.1777,-3.119,-3.0613,-3.0219,-3.0111,-2.9803,-2.9602,-2.9602,-2.9602,-2.9602,-2.9602,-2.9602,-2.9602,-2.9602,-2.9602,-2.9602,-2.9602,-2.9602,-2.9602,-2.9602,-2.9602,-2.9602,-2.9602,-2.9602,-2.9602,-2.9602,-2.8928,-2.8605,-2.8549,-2.7298,-2.6722,-2.6694,-2.6132,-2.5893,-2.5893,-2.5893,-2.5921,-2.5978,-2.5978,-2.6399,-2.7059,-2.765,-2.8254,-2.8858,-2.942,-2.9602,-2.958,-2.9017,-2.9261,-2.9884,-3.0036,-3.0205,-3.0312,-3.0435,-3.0495,-3.048,-3.0408,-3.0408,-3.0408,-3.048,-3.0451,-3.0408,-3.0408,-3.0451,-3.0495,-3.0495,-3.0404,-3.0266,-3.0172,-3.0111,-2.9988,-2.9665,-2.9927,-2.9927,-2.9477,-2.9387,-2.9324,-2.9162,-2.8972,-2.8844,-2.8844,-2.878,-2.8716,-2.8587,-2.8587,-2.8587,-2.8587,-2.796,-2.7617,-2.7617,-2.6989,-2.6786,-2.6973,-2.7082,-2.6539,-2.5382,-2.5382,-2.5382,-2.5312,-2.5312,-2.5312,-2.5312,-2.5312,-2.5312,-2.5312,-2.5312,-2.5111,-2.4861,-2.479,-2.4345,-2.3666,-3.4578,-3.4168,-3.3882,-3.3729,-3.3266,-3.2648,-3.1834,-3.1607,-3.116,-3.0219,-3.005,-2.9865,-2.9602,-2.9602,-2.9602,-2.9602,-2.9602,-2.9602,-2.9602,-2.9602,-2.9602,-2.9602,-2.9602,-2.9602,-2.9602,-2.9602,-2.9602,-2.9602,-2.9602,-2.9602,-2.9588,-2.8493,-2.7987,-2.7917,-2.6652,-2.6104,-2.609,-2.595,-2.5893,-2.5893,-2.5893,-2.6174,-2.661,-2.661,-2.7312,-2.831,-2.8436,-2.8886,-2.942,-2.9656,-2.9837,-2.9974,-2.9832,-2.9936,-3.0036,-3.0205,-3.0266,-3.0211,-2.9781,-2.9651,-2.9521,-2.8857,-2.8727,-2.8915,-2.9535,-2.9145,-2.8727,-2.8727,-2.9232,-2.9651,-2.9651,-3.0115,-3.0447,-3.0266,-3.0266,-3.0205,-2.9988,-3.005,-3.005,-2.9988,-2.9927,-2.9837,-2.9699,-2.9275,-2.9035,-2.9035,-2.878,-2.8651,-2.8587,-2.8587,-2.8587,-2.8587,-2.8444,-2.8379,-2.8379,-2.7683,-2.7124,-2.6705,-2.7056,-2.6718,-2.5918,-2.607,-2.5861,-2.5312,-2.5312,-2.5312,-2.5312,-2.5312,-2.5312,-2.5312,-2.5312,-2.5241,-2.5182,-2.4921,-2.4502,-2.397,-3.4899,-3.4691,-3.4349,-3.4,-3.3266,-3.247,-3.1607,-3.1102,-3.0584,-2.9913,-2.9865,-2.9803,-2.9602,-2.9602,-2.9602,-2.9602,-2.9602,-2.9602,-2.9602,-2.9602,-2.9602,-2.9602,-2.9602,-2.9602,-2.9602,-2.9602,-2.9602,-2.9602,-2.9602,-2.9602,-2.9574,-2.8352,-2.7776,-2.772,-2.6455,-2.5893,-2.5893,-2.5893,-2.5893,-2.5893,-2.5893,-2.6259,-2.6807,-2.6919,-2.7695,-2.8796,-2.893,-2.9341,-2.9865,-2.9898,-3.0036,-3.0111,-3.0111,-3.0111,-3.0111,-3.0266,-3.005,-2.9688,-2.9477,-2.9101,-2.8727,-2.8283,-2.7926,-2.7869,-2.867,-2.8498,-2.8197,-2.8197,-2.8526,-2.8813,-2.8813,-2.9462,-2.9894,-2.9774,-3.0018,-3.0158,-3.0111,-3.0111,-3.0111,-3.0111,-3.0036,-2.9837,-2.9512,-2.9212,-2.9035,-2.8844,-2.8716,-2.8587,-2.8587,-2.8587,-2.8587,-2.8587,-2.7894,-2.755,-2.755,-2.6595,-2.5918,-2.5627,-2.6252,-2.6252,-2.5709,-2.5861,-2.5652,-2.5312,-2.5312,-2.5312,-2.5312,-2.5312,-2.5312,-2.5312,-2.5312,-2.5182,-2.5052,-2.4861,-2.4418,-2.3824,-3.4835,-3.4899,-3.4691,-3.4,-3.3251,-3.24,-3.1507,-3.0584,-2.9946,-2.9775,-2.9665,-2.9602,-2.9602,-2.9602,-2.9602,-2.9602,-2.9602,-2.9602,-2.9602,-2.9602,-2.9602,-2.9602,-2.9602,-2.9602,-2.9602,-2.9602,-2.9602,-2.9602,-2.9602,-2.956,-2.942,-2.831,-2.772,-2.7565,-2.6526,-2.5992,-2.5907,-2.6006,-2.5992,-2.5907,-2.606,-2.6469,-2.7032,-2.7329,-2.8124,-2.9118,-2.9266,-2.9668,-3.0111,-3.0111,-3.0172,-3.0158,-3.0043,-3.0015,-3.0047,-3.0038,-2.959,-2.9115,-2.9088,-2.8613,-2.8026,-2.7911,-2.7441,-2.7129,-2.7712,-2.7826,-2.7826,-2.7826,-2.7912,-2.7983,-2.7983,-2.8568,-2.9054,-2.9213,-2.9671,-3.0043,-3.0158,-3.0172,-3.0172,-3.0172,-2.996,-2.9699,-2.9275,-2.9162,-2.8972,-2.8651,-2.8587,-2.8587,-2.8587,-2.8457,-2.8457,-2.8587,-2.7338,-2.6705,-2.6786,-2.5639,-2.504,-2.4981,-2.5581,-2.5721,-2.5241,-2.5312,-2.5312,-2.5312,-2.5312,-2.5312,-2.5312,-2.5312,-2.5312,-2.5312,-2.5312,-2.5123,-2.479,-2.4646,-2.4127,-2.3434,-3.4739,-3.4804,-3.4851,-3.4739,-3.4431,-3.3901,-3.3039,-3.2139,-3.1319,-3.0464,-2.9946,-2.9602,-2.9602,-2.9602,-2.9602,-2.9602,-2.9602,-2.9602,-2.9602,-2.9602,-2.9602,-2.9602,-2.9602,-2.9602,-2.9602,-2.9602,-2.9602,-2.9602,-2.9602,-2.9336,-2.8802,-2.8099,-2.7481,-2.6933,-2.6764,-2.6399,-2.5921,-2.6469,-2.6385,-2.5936,-2.665,-2.7286,-2.7896,-2.8653,-2.9368,-2.9922,-2.9983,-3.0086,-3.0266,-3.0266,-3.0387,-3.0421,-2.987,-2.9696,-2.9595,-2.903,-2.8869,-2.8639,-2.7963,-2.7691,-2.7449,-2.6726,-2.6472,-2.6429,-2.6406,-2.6311,-2.6201,-2.6201,-2.6735,-2.7271,-2.7271,-2.7855,-2.8569,-2.9231,-2.9462,-2.9766,-3.0435,-3.0522,-3.0522,-3.0522,-3.028,-2.9974,-2.9761,-2.9338,-2.9035,-2.878,-2.8651,-2.8587,-2.8587,-2.8026,-2.796,-2.8587,-2.7881,-2.7815,-2.8444,-2.7868,-2.7258,-2.6824,-2.6333,-2.5709,-2.5111,-2.5241,-2.5312,-2.5312,-2.5312,-2.5312,-2.5312,-2.5312,-2.5312,-2.5312,-2.5312,-2.5123,-2.4718,-2.4043,-2.3446,-2.3021,-3.4546,-3.4707,-3.4691,-3.4399,-3.4018,-3.3527,-3.2841,-3.213,-3.1392,-3.0569,-3.0297,-2.9946,-2.9665,-2.9602,-2.9602,-2.9602,-2.9602,-2.9602,-2.9602,-2.9602,-2.9602,-2.9602,-2.9602,-2.9602,-2.9602,-2.9602,-2.9602,-2.9602,-2.9602,-2.9293,-2.8675,-2.8422,-2.7945,-2.734,-2.6975,-2.6652,-2.6399,-2.6329,-2.6132,-2.595,-2.6679,-2.7314,-2.7993,-2.8734,-2.9206,-2.9405,-2.9109,-2.9158,-2.9261,-2.9261,-2.9392,-2.9464,-2.9189,-2.9102,-2.9029,-2.8768,-2.8364,-2.7975,-2.7576,-2.719,-2.6737,-2.6412,-2.6286,-2.6286,-2.6233,-2.6179,-2.6056,-2.5948,-2.6159,-2.6411,-2.6411,-2.7087,-2.7712,-2.804,-2.8857,-2.9535,-2.9883,-3.035,-3.0522,-3.0341,-3.0172,-2.9927,-2.9449,-2.9212,-2.8972,-2.8716,-2.8651,-2.8587,-2.8587,-2.8314,-2.8314,-2.8716,-2.8026,-2.7736,-2.7749,-2.7204,-2.6663,-2.6,-2.5791,-2.5511,-2.5182,-2.5241,-2.5312,-2.5312,-2.5312,-2.5312,-2.5312,-2.5123,-2.5052,-2.4981,-2.4754,-2.4467,-2.4043,-2.3446,-2.315,-2.2936]},{"header":{"parameterUnit":"m.s-1","parameterCategory":1,"la1":30.6,"la2":28.766,"lo1":-90.7593,"lo2":-88.6598,"dy":0.0162,"dx":0.0183,"nx":116,"ny":114,"refTime":"2023-07-10T00:00:00:Z","depth":0,"parameterNumber":3,"parameterNumberName":"V-component_of_WINDS"},"data":[0.0,0.0,0.0,0.0,0.0,0.0,0.0,0.0,0.0,0.0,0.0,0.0,0.0,0.0,0.0,0.0,0.0,0.0,0.0,0.0,0.0,0.0,0.0,0.0,0.0,0.0,0.0,0.0,0.0,0.0,0.0,0.0,0.0,0.0,0.0,0.0,0.0,0.0,0.0,0.0,0.0,0.0,0.0,0.0,0.0,0.0,0.0,0.0,0.0,0.0,0.0,0.0,0.0,0.0,0.0,0.0,0.0,0.0,0.0,0.0,0.0,0.0,0.0,0.0,0.0,0.0,0.0,0.0,0.0,0.0,0.0,0.0,0.0,0.0,0.0,0.0,0.0,0.0,0.0,0.0,0.0,0.0,0.0,0.0,0.0,0.0,0.0,0.0,0.0,0.0,0.0,0.0,0.0,0.0,0.0,0.0,0.0,0.0,0.0,0.0,0.0,0.0,0.0,0.0,0.0,0.0,0.0,0.0,0.0,0.0,0.0,0.0,0.0,0.0,0.0,0.0,0.0,0.0,0.0,0.0,0.0,0.0,0.0,0.0,0.0,0.0,0.0,0.0,0.0,0.0,0.0,0.0,0.0,0.0,0.0,0.0,0.0,0.0,0.0,0.0,0.0,0.0,0.0,0.0,0.0,0.0,0.0,0.0,0.0,0.0,0.0,0.0,0.0,0.0,0.0,0.0,0.0,0.0,0.0,0.0,0.0,0.0,0.0,0.0,0.0,0.0,0.0,0.0,0.0,0.0,0.0,0.0,0.0,0.0,0.0,0.0,0.0,0.0,0.0,0.0,0.0,0.0,0.0,0.0,0.0,0.0,0.0,0.0,0.0,0.0,0.0,0.0,0.0,0.0,0.0,0.0,0.0,0.0,0.0,0.0,0.0,0.0,0.0,0.0,0.0,0.0,0.0,0.0,0.0,0.0,0.0,0.0,0.0,0.0,0.0,0.0,0.0,0.0,0.0,0.0,0.0,0.0,0.0,0.0,0.0,0.0,0.0,0.0,0.0,0.0,0.0,0.0,0.0,0.0,0.0,0.0,0.0,0.0,0.0,0.0,0.0,0.0,0.0,0.0,0.0,0.0,0.0,0.0,0.0,0.0,0.0,0.0,0.0,0.0,0.0,0.0,0.0,0.0,0.0,0.0,0.0,0.0,0.0,0.0,0.0,0.0,0.0,0.0,0.0,0.0,0.0,0.0,0.0,0.0,0.0,0.0,0.0,0.0,0.0,0.0,0.0,0.0,0.0,0.0,0.0,0.0,0.0,0.0,0.0,0.0,0.0,0.0,0.0,0.0,0.0,0.0,0.0,0.0,0.0,0.0,0.0,0.0,0.0,0.0,0.0,0.0,0.0,0.0,0.0,0.0,0.0,0.0,0.0,0.0,0.0,0.0,0.0,0.0,0.0,0.0,0.0,0.0,0.0,0.0,0.0,0.0,0.0,0.0,0.0,0.0,0.0,0.0,0.0,0.0,0.0,0.0,0.0,0.0,0.0,0.0,0.0,0.0,0.0,0.0,0.0,0.0,0.0,0.0,0.0,0.0,0.0,0.0,0.0,0.0,0.0,0.0,0.0,0.0,0.0,0.0,0.0,0.0,0.0,0.0,0.0,0.0,0.0,0.0,0.0,0.0,0.0,0.0,0.0,0.0,0.0,0.0,0.0,0.0,0.0,0.0,0.0,0.0,0.0,0.0,0.0,0.0,0.0,0.0,0.0,0.0,0.0,0.0,0.0,0.0,0.0,0.0,0.0,0.0,0.0,0.0,0.0,0.0,0.0,0.0,0.0,0.0,0.0,0.0,0.0,0.0,0.0,0.0,0.0,0.0,0.0,0.0,0.0,0.0,0.0,0.0,0.0,0.0,0.0,0.0,0.0,0.0,0.0,0.0,0.0,0.0,0.0,0.0,0.0,0.0,0.0,0.0,0.0,0.0,0.0,0.0,0.0,0.0,0.0,0.0,0.0,0.0,0.0,0.0,0.0,0.0,0.0,0.0,0.0,0.0,0.0,0.0,0.0,0.0,0.0,0.0,0.0,0.0,0.0,0.0,0.0,0.0,0.0,0.0,0.0,0.0,0.0,0.0,0.0,0.0,0.0,0.0,0.0,0.0,0.0,0.0,0.0,0.0,0.0,0.0,0.0,0.0,0.0,0.0,0.0,0.0,0.0,0.0,0.0,0.0,0.0,0.0,0.0,0.0,0.0,0.0,0.0,0.0,0.0,0.0,0.0,0.0,0.0,0.0,0.0,0.0,0.0,0.0,0.0,0.0,0.0,0.0,0.0,0.0,0.0,0.0,0.0,0.0,0.0,0.0,0.0,0.0,0.0,0.0,0.0,0.0,0.0,0.0,0.0,0.0,0.0,0.0,0.0,0.0,0.0,0.0,0.0,0.0,0.0,0.0,0.0,0.0,0.0,0.0,0.0,0.0,0.0,0.0,0.0,0.0,0.0,0.0,0.0,0.0,0.0,0.0,0.0,0.0,0.0,0.0,0.0,0.0,0.0,0.0,0.0,0.0,0.0,0.0,0.0,0.0,0.0,0.0,0.0,0.0,0.0,0.0,0.0,0.0,0.0,0.0,0.0,0.0,0.0,0.0,0.0,0.0,0.0,0.0,0.0,0.0,0.0,0.0,0.0,0.0,0.0,0.0,0.0,0.0,0.0,0.0,0.0,0.0,0.0,0.0,0.0,0.0,0.0,0.0,0.0,0.0,0.0,0.0,0.0,0.0,0.0,0.0,0.0,0.0,0.0,0.0,0.0,0.0,0.0,0.0,0.0,0.0,0.0,0.0,0.0,0.0,0.0,0.0,0.0,0.0,0.0,0.0,0.0,0.0,0.0,0.0,0.0,0.0,0.0,0.0,0.0,0.0,0.0,0.0,0.0,0.0,0.0,0.0,0.0,0.0,0.0,0.0,0.0,0.0,0.0,0.0,0.0,0.0,0.0,0.0,0.0,0.0,0.0,0.0,0.0,0.0,0.0,0.0,0.0,0.0,0.0,0.0,0.0,0.0,0.0,0.0,0.0,0.0,0.0,0.0,0.0,0.0,0.0,0.0,0.0,0.0,0.0,0.0,0.0,0.0,0.0,0.0,0.0,0.0,0.0,0.0,0.0,0.0,0.0,0.0,0.0,0.0,0.0,0.0,0.0,0.0,0.0,0.0,0.0,0.0,0.0,0.0,0.0,0.0,0.0,0.0,0.0,0.0,0.0,0.0,0.0,0.0,0.0,0.0,0.0,0.0,0.0,0.0,0.0,0.0,0.0,0.0,0.0,0.0,0.0,0.0,0.0,0.0,0.0,0.0,0.0,0.0,0.0,0.0,0.0,0.0,0.0,0.0,0.0,0.0,0.0,0.0,0.0,0.0,0.0,0.0,0.0,0.0,0.0,0.0,0.0,0.0,0.0,0.0,0.0,0.0,0.0,0.0,0.0,0.0,0.0,0.0,0.0,0.0,0.0,0.0,0.0,0.0,0.0,0.0,0.0,0.0,0.0,0.0,0.0,0.0,0.0,0.0,0.0,0.0,0.0,0.0,0.0,0.0,0.0,0.0,0.0,0.0,0.0,0.0,0.0,0.0,0.0,0.0,0.0,0.0,0.0,0.0,0.0,0.0,0.0,0.0,0.0,0.0,0.0,0.0,0.0,0.0,0.0,0.0,0.0,0.0,0.0,0.0,0.0,0.0,0.0,0.0,0.0,0.0,0.0,0.0,0.0,0.0,0.0,0.0,0.0,0.0,0.0,0.0,0.0,0.0,0.0,0.0,0.0,0.0,0.0,0.0,0.0,0.0,0.0,0.0,0.0,0.0,0.0,0.0,0.0,0.0,0.0,0.0,0.0,0.0,0.0,0.0,0.0,0.0,0.0,0.0,0.0,0.0,0.0,0.0,0.0,0.0,0.0,0.0,0.0,0.0,0.0,0.0,0.0,0.0,0.0,0.0,0.0,0.0,0.0,0.0,0.0,0.0,0.0,0.0,0.0,0.0,0.0,0.0,0.0,0.0,0.0,0.0,0.0,0.0,0.0,0.0,0.0,0.0,0.0,0.0,0.0,0.0,0.0,0.0,0.0,0.0,0.0,0.0,0.0,0.0,0.0,0.0,0.0,0.0,0.0,0.0,0.0,0.0,0.0,0.0,0.0,0.0,0.0,0.0,0.0,0.0,0.0,0.0,0.0,0.0,0.0,0.0,0.0,0.0,0.0,0.0,0.0,0.0,0.0,0.0,0.0,0.0,0.0,0.0,0.0,0.0,0.0,0.0,0.0,0.0,0.0,0.0,0.0,0.0,0.0,0.0,0.0,0.0,0.0,0.0,0.0,0.0,0.0,0.0,0.0,0.0,0.0,0.0,0.0,0.0,0.0,0.0,0.0,0.0,0.0,0.0,0.0,0.0,0.0,0.0,0.0,0.0,0.0,0.0,0.0,0.0,0.0,0.0,0.0,0.0,0.0,0.0,0.0,0.0,0.0,0.0,0.0,0.0,0.0,0.0,0.0,0.0,0.0,0.0,0.0,0.0,0.0,0.0,0.0,0.0,0.0,0.0,0.0,0.0,0.0,0.0,0.0,0.0,0.0,0.0,0.0,0.0,0.0,0.0,0.0,0.0,0.0,0.0,0.0,0.0,0.0,0.0,0.0,0.0,0.0,0.0,0.0,0.0,0.0,0.0,0.0,0.0,0.0,0.0,0.0,0.0,0.0,0.0,0.0,0.0,0.0,0.0,0.0,0.0,0.0,0.0,0.0,0.0,0.0,0.0,0.0,0.0,0.0,0.0,0.0,0.0,0.0,0.0,0.0,0.0,0.0,0.0,0.0,0.0,0.0,0.0,0.0,0.0,0.0,0.0,0.0,0.0,0.0,0.0,0.0,0.0,0.0,0.0,0.0,0.0,0.0,0.0,0.0,0.0,0.0,0.0,0.0,0.0,0.0,0.0,0.0,0.0,0.0,0.0,0.0,0.0,0.0,0.0,0.0,0.0,0.0,0.0,0.0,0.0,0.0,0.0,0.0,0.0,0.0,0.0,0.0,0.0,0.0,0.0,0.0,0.0,0.0,0.0,0.0,0.0,0.0,0.0,0.0,0.0,0.0,0.0,0.0,0.0,0.0,0.0,0.0,0.0,0.0,0.0,0.0,0.0,0.0,0.0,0.0,0.0,0.0,0.0,0.0,0.0,0.0,0.0,0.0,0.0,0.0,0.0,0.0,0.0,0.0,0.0,0.0,0.0,0.0,0.0,0.0,0.0,0.0,0.0,0.0,0.0,0.0,0.0,0.0,0.0,0.0,0.0,0.0,0.0,0.0,0.0,0.0,0.0,0.0,0.0,0.0,0.0,0.0,0.0,0.0,0.0,0.0,0.0,0.0,0.0,0.0,0.0,0.0,0.0,0.0,0.0,0.0,0.0,0.0,0.0,0.0,0.0,0.0,0.0,0.0,0.0,0.0,0.0,0.0,0.0,0.0,0.0,0.0,0.0,0.0,0.0,0.0,0.0,0.0,0.0,0.0,0.0,0.0,0.0,0.0,0.0,0.0,0.0,0.0,0.0,0.0,0.0,0.0,0.0,0.0,0.0,0.0,0.0,0.0,0.0,0.0,0.0,0.0,0.0,0.0,0.0,0.0,0.0,0.0,0.0,0.0,0.0,0.0,0.0,0.0,0.0,0.0,0.0,0.0,0.0,0.0,0.0,0.0,0.0,0.0,0.0,0.0,0.0,0.0,0.0,0.0,0.0,0.0,0.0,0.0,0.0,0.0,0.0,0.0,0.0,0.0,0.0,0.0,0.0,0.0,0.0,0.0,0.0,0.0,0.0,0.0,0.0,0.0,0.0,0.0,0.0,0.0,0.0,0.0,0.0,0.0,0.0,0.0,0.0,0.0,0.0,0.0,0.0,0.0,0.0,0.0,0.0,0.0,0.0,0.0,0.0,0.0,0.0,0.0,0.0,0.0,0.0,0.0,0.0,0.0,0.0,0.0,0.0,0.0,0.0,0.0,0.0,0.0,0.0,0.0,0.0,0.0,0.0,0.0,0.0,0.0,0.0,0.0,0.0,0.0,0.0,0.0,0.0,0.0,0.0,0.0,0.0,0.0,0.0,0.0,0.0,-2.0354,0.0,0.0,0.0,0.0,0.0,0.0,0.0,0.0,0.0,0.0,0.0,0.0,0.0,0.0,0.0,0.0,0.0,0.0,0.0,0.0,0.0,0.0,0.0,0.0,0.0,0.0,0.0,0.0,0.0,0.0,0.0,0.0,0.0,0.0,0.0,0.0,0.0,0.0,0.0,0.0,0.0,0.0,0.0,0.0,0.0,0.0,0.0,0.0,0.0,0.0,0.0,0.0,0.0,0.0,0.0,0.0,0.0,0.0,0.0,0.0,0.0,0.0,0.0,0.0,0.0,0.0,0.0,0.0,0.0,0.0,0.0,0.0,0.0,0.0,0.0,0.0,0.0,0.0,0.0,0.0,0.0,0.0,0.0,0.0,0.0,0.0,0.0,0.0,0.0,0.0,0.0,0.0,0.0,0.0,0.0,0.0,0.0,0.0,0.0,0.0,0.0,0.0,0.0,0.0,0.0,0.0,0.0,0.0,0.0,0.0,0.0,0.0,0.0,0.0,0.0,0.0,-2.2359,0.0,0.0,0.0,0.0,0.0,0.0,0.0,0.0,0.0,0.0,0.0,0.0,0.0,0.0,0.0,0.0,0.0,0.0,0.0,0.0,0.0,0.0,0.0,0.0,0.0,0.0,0.0,0.0,0.0,0.0,0.0,0.0,0.0,0.0,0.0,0.0,0.0,0.0,0.0,0.0,0.0,0.0,0.0,0.0,0.0,0.0,0.0,0.0,0.0,0.0,0.0,0.0,0.0,0.0,0.0,0.0,0.0,0.0,0.0,0.0,0.0,0.0,0.0,0.0,0.0,0.0,0.0,0.0,0.0,0.0,0.0,0.0,0.0,0.0,0.0,0.0,0.0,0.0,0.0,0.0,0.0,0.0,0.0,0.0,0.0,0.0,0.0,0.0,0.0,0.0,0.0,0.0,0.0,0.0,0.0,0.0,0.0,0.0,0.0,0.0,0.0,0.0,0.0,0.0,0.0,0.0,0.0,0.0,-1.9671,-2.0135,-2.032,-1.9787,-2.0111,-2.1079,-2.2396,-2.3513,-2.4583,0.0,0.0,0.0,0.0,0.0,0.0,0.0,0.0,0.0,0.0,0.0,0.0,0.0,0.0,0.0,0.0,0.0,0.0,0.0,0.0,0.0,0.0,0.0,0.0,0.0,0.0,0.0,0.0,0.0,0.0,0.0,0.0,0.0,0.0,0.0,0.0,0.0,0.0,0.0,-1.2298,-1.4046,-1.4633,-1.4403,0.0,0.0,0.0,0.0,0.0,0.0,0.0,0.0,0.0,0.0,0.0,0.0,0.0,0.0,0.0,0.0,0.0,0.0,0.0,0.0,0.0,0.0,0.0,0.0,0.0,0.0,0.0,0.0,0.0,0.0,0.0,0.0,0.0,0.0,0.0,0.0,0.0,0.0,0.0,0.0,0.0,0.0,0.0,0.0,-1.9772,-2.0813,0.0,0.0,0.0,0.0,0.0,0.0,0.0,0.0,0.0,0.0,0.0,0.0,0.0,0.0,-1.849,-1.8794,-1.9347,-1.9953,-2.0648,-2.1262,-2.1805,-2.1684,-2.2022,-2.2768,-2.411,0.0,-2.4675,-2.4054,0.0,0.0,0.0,0.0,0.0,0.0,0.0,0.0,0.0,0.0,0.0,0.0,0.0,0.0,0.0,0.0,0.0,0.0,0.0,0.0,0.0,0.0,0.0,0.0,0.0,0.0,0.0,0.0,0.0,0.0,0.0,0.0,0.0,0.0,0.0,0.0,-1.1495,-1.2226,-1.324,-1.4116,-1.4836,-1.549,-1.6347,-1.6614,-1.6321,-1.6813,0.0,0.0,0.0,0.0,0.0,0.0,0.0,0.0,0.0,0.0,0.0,0.0,0.0,0.0,0.0,0.0,0.0,0.0,0.0,0.0,0.0,0.0,0.0,0.0,0.0,0.0,0.0,0.0,0.0,0.0,0.0,0.0,0.0,0.0,0.0,0.0,0.0,0.0,0.0,-1.9624,-2.0071,-2.1111,-2.0475,-1.9785,0.0,0.0,0.0,0.0,0.0,0.0,0.0,0.0,0.0,-1.7353,-1.8054,-1.8667,-1.9155,-1.9857,-2.0579,-2.1316,-2.1229,-2.1638,-2.2562,-2.2222,-2.2348,-2.2807,-2.4093,-2.4781,-2.5107,-2.5705,-2.6247,-2.6411,0.0,0.0,0.0,0.0,0.0,-2.5126,0.0,0.0,0.0,0.0,0.0,0.0,0.0,0.0,0.0,0.0,0.0,0.0,0.0,0.0,0.0,0.0,0.0,0.0,0.0,0.0,0.0,0.0,0.0,0.0,0.0,0.0,0.0,0.0,-1.1118,-1.1964,-1.3432,-1.3769,-1.449,-1.5427,-1.616,-1.664,-1.694,-1.7151,-1.7286,0.0,0.0,0.0,0.0,0.0,0.0,0.0,0.0,0.0,0.0,0.0,0.0,0.0,0.0,0.0,0.0,0.0,0.0,0.0,0.0,0.0,0.0,0.0,0.0,0.0,0.0,0.0,0.0,0.0,0.0,0.0,0.0,0.0,0.0,0.0,0.0,0.0,0.0,-1.9804,-2.0354,-2.1298,-2.0682,-2.0044,0.0,0.0,0.0,0.0,0.0,0.0,-1.7674,-1.7691,-1.7846,-1.8005,-1.9013,-1.9699,-1.9785,-2.0611,-2.1302,-2.1856,-2.1504,-2.1834,-2.2744,-2.2297,-2.2204,-2.2592,-2.3662,-2.4729,-2.5669,-2.7011,-2.7309,-2.6781,-2.665,-2.6013,-2.5269,-2.5093,-2.5672,-2.6547,0.0,0.0,0.0,0.0,0.0,0.0,0.0,0.0,0.0,0.0,0.0,0.0,0.0,0.0,0.0,0.0,0.0,0.0,0.0,0.0,0.0,0.0,0.0,0.0,0.0,0.0,0.0,-0.9948,-1.0478,-1.0788,-1.0895,-1.2169,-1.2794,-1.289,-1.5039,-1.6683,-1.7794,-1.7617,-1.7316,-1.7179,0.0,0.0,0.0,0.0,0.0,0.0,0.0,0.0,0.0,0.0,0.0,0.0,0.0,0.0,0.0,0.0,0.0,0.0,0.0,0.0,0.0,0.0,0.0,0.0,0.0,0.0,0.0,0.0,0.0,0.0,0.0,0.0,0.0,0.0,0.0,0.0,0.0,0.0,0.0,-2.145,-2.1637,0.0,0.0,0.0,0.0,-1.8827,-1.8471,-1.8282,-1.8202,-1.833,-1.8886,-2.0034,-1.9362,-1.9593,-2.0985,-2.0811,-2.0826,-2.1147,-2.1689,-2.2005,-2.2013,-2.2013,-2.2188,-2.2592,-2.3662,-2.5019,-2.6479,-2.6655,-2.733,-2.8013,-2.7455,-2.7448,-2.771,-2.7121,-2.7478,-2.8222,0.0,0.0,0.0,0.0,0.0,0.0,0.0,0.0,0.0,0.0,0.0,0.0,0.0,0.0,0.0,0.0,0.0,0.0,0.0,0.0,0.0,0.0,0.0,0.0,0.0,0.0,-0.9431,-0.949,-1.0003,-1.0381,-1.0636,-1.125,-1.204,-1.3097,-1.4667,-1.6079,-1.7371,-1.8258,-1.8327,-1.7993,-1.914,-1.9209,0.0,0.0,0.0,0.0,0.0,0.0,0.0,0.0,0.0,0.0,0.0,0.0,0.0,0.0,0.0,0.0,0.0,0.0,0.0,0.0,0.0,0.0,0.0,0.0,0.0,0.0,0.0,0.0,0.0,0.0,0.0,0.0,0.0,0.0,0.0,0.0,0.0,-2.1213,-2.1007,0.0,-2.0572,-2.0265,-2.0063,-2.0039,-1.9868,-1.9774,-1.9807,-1.9604,-1.9679,-1.9923,-2.0111,-2.0539,-2.1093,-2.0979,-2.1194,-2.1634,-2.1526,-2.1634,-2.1957,-2.1957,-2.2029,-2.2249,-2.4147,-2.543,-2.6291,-2.7627,-2.8491,-2.8858,-2.8157,-2.8187,-2.8422,-2.8004,-2.8185,-2.8686,0.0,0.0,0.0,0.0,0.0,0.0,0.0,0.0,0.0,0.0,0.0,0.0,0.0,0.0,0.0,0.0,0.0,0.0,0.0,0.0,0.0,0.0,0.0,0.0,0.0,-0.8087,-0.8561,-0.8686,-0.8965,-0.9438,-1.0101,-1.0238,-1.1084,-1.255,-1.3682,-1.5008,-1.6405,-1.7819,-1.8506,-1.8732,-1.9825,-1.976,-1.904,0.0,0.0,0.0,0.0,0.0,0.0,0.0,0.0,0.0,0.0,0.0,0.0,0.0,0.0,0.0,0.0,0.0,0.0,0.0,0.0,0.0,0.0,0.0,0.0,0.0,0.0,0.0,0.0,0.0,0.0,0.0,0.0,0.0,0.0,0.0,-2.0232,-2.104,-2.0695,-2.0393,-2.0802,-2.0621,-2.0576,-2.0937,-2.0867,-2.0855,-2.0758,-2.0435,-2.0234,-2.013,-2.065,-2.1033,-2.1248,-2.1139,-2.1183,-2.1608,-2.1183,-2.129,-2.1608,-2.1608,-2.1811,-2.233,-2.4044,-2.5381,-2.6437,-2.8005,-2.9021,-2.9534,-2.8968,-2.8955,-2.9128,-2.916,-2.9186,-2.9041,0.0,0.0,0.0,0.0,0.0,0.0,0.0,0.0,0.0,0.0,0.0,0.0,0.0,0.0,0.0,0.0,0.0,0.0,0.0,0.0,0.0,0.0,0.0,0.0,-0.6754,-0.6605,-0.6831,-0.7464,-0.7318,-0.7924,-0.9118,-0.9072,-0.9629,-1.0945,-1.2129,-1.3438,-1.4961,-1.6179,-1.7698,-1.9336,-1.981,-1.9931,-1.9965,0.0,0.0,0.0,0.0,0.0,0.0,0.0,0.0,0.0,0.0,0.0,0.0,0.0,0.0,0.0,0.0,0.0,0.0,0.0,0.0,0.0,0.0,0.0,0.0,0.0,0.0,0.0,0.0,0.0,0.0,0.0,0.0,0.0,-1.9371,-1.9827,-2.0403,-2.1065,-2.0692,-2.0612,-2.1167,-2.1003,-2.106,-2.132,-2.1449,-2.1274,-2.1171,-2.0742,-2.0696,-2.1025,-2.0712,-2.0763,-2.1312,-2.1099,-2.0941,-2.0941,-2.0925,-2.0925,-2.0925,-2.0925,-2.1514,-2.2745,-2.3479,-2.493,-2.6973,-2.7607,-2.8799,-3.004,-2.9902,-2.9839,-2.9904,-3.0623,-3.0308,-2.9521,0.0,0.0,0.0,0.0,0.0,0.0,0.0,0.0,0.0,0.0,0.0,0.0,0.0,0.0,0.0,0.0,0.0,0.0,0.0,0.0,0.0,0.0,0.0,0.0,-0.5764,-0.655,-0.699,-0.7142,-0.7104,-0.7388,-0.7983,-0.8644,-0.9329,-1.0053,-1.2221,-1.3654,-1.4551,-1.6304,-1.762,-1.8754,-2.0792,-2.1279,-2.0897,0.0,0.0,0.0,0.0,0.0,0.0,0.0,0.0,0.0,0.0,0.0,0.0,0.0,0.0,0.0,0.0,0.0,0.0,0.0,0.0,0.0,0.0,0.0,0.0,0.0,0.0,0.0,0.0,0.0,0.0,0.0,0.0,-1.8108,-1.9031,-1.9054,-1.9299,-2.0452,-1.9667,-1.9445,-2.0504,-2.0535,-2.0798,-2.1409,-2.1449,-2.1383,-2.1266,-2.0703,-2.0405,-2.024,-2.0389,-2.0476,-2.0686,-2.1099,-2.1306,-2.1298,-2.1044,-2.0925,-2.0925,-2.0925,-2.1653,-2.3099,-2.3951,-2.539,-2.7342,-2.7955,-2.8688,-2.9429,-2.9644,-3.0033,-3.0292,-3.0384,-3.045,-3.0362,0.0,0.0,0.0,0.0,0.0,0.0,0.0,0.0,0.0,0.0,0.0,0.0,0.0,0.0,0.0,0.0,0.0,0.0,0.0,0.0,0.0,0.0,0.0,-0.4779,-0.4906,-0.5553,-0.5943,-0.5874,-0.5826,-0.619,-0.6864,-0.7608,-0.8598,-0.9781,-1.1441,-1.2952,-1.4266,-1.5707,-1.6865,-1.7919,-2.0464,-2.1391,-2.1319,-2.284,-2.3554,-2.3734,-2.3734,-2.3982,-2.4176,-2.365,0.0,0.0,0.0,0.0,0.0,0.0,0.0,0.0,0.0,0.0,0.0,0.0,0.0,0.0,0.0,0.0,0.0,0.0,0.0,0.0,0.0,0.0,0.0,0.0,-1.653,-1.7158,-1.7616,-1.7697,-1.8202,-1.9637,-1.8852,-1.855,-1.9637,-2.0192,-2.0686,-2.1393,-2.1449,-2.1513,-2.1655,-2.1139,-2.0607,-2.0098,-2.071,-2.0837,-2.04,-2.1234,-2.1663,-2.1663,-2.1457,-2.1354,-2.1354,-2.1859,-2.2903,0.0,-2.5314,-2.6666,-2.8171,-2.854,-2.8953,0.0,0.0,0.0,0.0,0.0,-3.0635,-3.105,0.0,0.0,0.0,0.0,0.0,0.0,0.0,0.0,0.0,0.0,0.0,0.0,0.0,0.0,0.0,0.0,0.0,0.0,0.0,0.0,0.0,-0.3989,-0.4016,-0.4104,-0.4281,-0.4293,-0.4295,-0.4283,-0.421,-0.4762,-0.584,-0.6175,-0.7628,-0.9875,-1.0355,-1.189,-1.4114,-1.495,-1.6009,-1.7235,-1.9458,-2.0729,-2.1363,-2.1841,-2.2802,-2.3927,-2.4128,-2.438,-2.4622,-2.438,0.0,0.0,0.0,0.0,0.0,0.0,0.0,0.0,0.0,0.0,0.0,0.0,0.0,0.0,0.0,0.0,0.0,0.0,0.0,0.0,0.0,0.0,0.0,0.0,-1.5425,-1.6044,-1.5687,-1.6051,-1.6893,-1.8412,-1.8011,-1.7887,-1.875,-1.9722,-2.0623,-2.1338,-2.1385,-2.152,-2.183,0.0,0.0,0.0,0.0,-2.1409,-2.0519,-2.1513,-2.2021,-2.2013,-2.1973,-2.1957,-2.2065,-2.3003,-2.4382,-2.5996,-2.6829,-2.7961,-2.9349,-2.9091,-2.9254,-2.9489,-2.9543,-2.9598,-2.9685,-3.0013,-3.0734,0.0,0.0,0.0,0.0,0.0,0.0,0.0,0.0,0.0,0.0,0.0,0.0,0.0,0.0,0.0,0.0,0.0,0.0,0.0,0.0,0.0,-0.3937,-0.427,-0.421,-0.4261,-0.4448,-0.4351,-0.4265,-0.4197,-0.4181,-0.452,-0.5252,-0.6003,-0.7481,-0.9489,-1.0501,-1.2184,-1.4307,-1.5711,-1.6895,-1.8085,-1.947,-2.0335,-2.1073,-2.3431,-2.4439,-2.4786,-2.6129,-2.6505,-2.6288,-2.5703,-2.5348,-2.5273,-2.5148,0.0,0.0,0.0,0.0,0.0,0.0,0.0,0.0,0.0,0.0,0.0,0.0,0.0,0.0,0.0,0.0,0.0,0.0,0.0,0.0,-1.4349,-1.4172,-1.4553,-1.5797,-1.4747,-1.4539,-1.6576,-1.6484,-1.6786,-1.8313,-1.9367,-2.0257,-2.0972,-2.102,-2.1052,-2.1123,-2.0519,0.0,-2.0392,-2.0869,-2.1163,-2.1242,-2.2005,-2.2386,-2.2378,0.0,0.0,-2.1957,-2.2272,-2.384,-2.6626,-2.6053,-2.741,-2.9978,-2.9194,-2.9128,-2.9521,-2.9915,-3.0297,-3.0537,-2.9871,-3.022,-3.1008,0.0,0.0,0.0,0.0,0.0,0.0,0.0,0.0,0.0,0.0,0.0,0.0,0.0,0.0,0.0,0.0,0.0,0.0,0.0,-0.4244,-0.4211,-0.453,-0.4398,-0.4413,-0.451,-0.4341,-0.4277,-0.4236,-0.4278,-0.4607,-0.5025,-0.5773,-0.6999,-0.8742,-1.0168,-1.181,-1.3578,-1.5834,-1.7179,-1.7939,-1.9441,-2.0183,-2.0654,-2.2916,-2.4422,-2.5409,-2.6129,-2.6413,-2.6496,-2.6306,-2.6242,-2.6089,-2.5627,-2.4988,-2.3954,0.0,0.0,0.0,0.0,0.0,0.0,0.0,0.0,0.0,0.0,0.0,0.0,0.0,0.0,-1.4201,0.0,0.0,-1.373,-1.3741,-1.3627,-1.38,-1.4818,-1.4002,-1.391,-1.5524,-1.5313,-1.5461,-1.6414,-1.7463,-1.8518,-1.9804,-1.9857,-2.0251,-2.1067,-2.0853,-2.0575,-2.04,-2.1076,-2.1274,-2.0925,-2.1791,-2.222,-2.222,-2.2045,-2.2073,-2.2188,-2.2798,-2.4131,-2.604,-2.6361,-2.7516,-2.9268,-2.8947,-2.8899,-2.9139,-2.939,-2.9915,-3.0493,-3.0024,-3.0339,-3.0876,0.0,0.0,0.0,0.0,0.0,0.0,0.0,0.0,0.0,0.0,0.0,0.0,0.0,0.0,0.0,0.0,0.0,0.0,0.0,-0.4627,-0.4896,-0.5072,-0.4751,-0.454,-0.454,-0.4393,-0.4353,-0.4335,-0.4454,-0.4706,-0.516,-0.5794,-0.6924,-0.8661,-1.0088,-1.1588,-1.315,-1.6035,-1.7307,-1.7677,-1.9497,-2.0291,-2.0529,-2.1958,-2.3475,-2.4924,-2.5204,-2.5456,-2.5769,-2.6167,-2.6298,-2.6155,-2.5278,-2.4945,-2.4147,-2.0611,-2.0195,0.0,0.0,0.0,0.0,0.0,0.0,0.0,0.0,-1.6429,-1.5729,-1.463,-1.4185,-1.3846,-1.3179,-1.3294,-1.3393,-1.3276,-1.3453,-1.3668,-1.3957,-1.3732,-1.3905,-1.4777,-1.4516,-1.4406,-1.4719,-1.5658,-1.6894,-1.8636,-1.879,-1.9546,-2.1225,-2.1346,-2.1115,-2.0615,-2.1417,-2.1489,-2.0702,-2.1536,-2.1957,-2.1957,-2.1957,-2.218,-2.2419,-2.333,-2.435,-2.5347,-2.6973,-2.7928,-2.8381,-2.8614,-2.8615,-2.8604,-2.8506,-2.8953,-2.9674,-2.9956,-3.0215,-3.0577,0.0,0.0,0.0,0.0,0.0,0.0,0.0,0.0,0.0,0.0,0.0,0.0,0.0,0.0,0.0,0.0,0.0,0.0,-0.6323,-0.6273,-0.6332,-0.6384,-0.5381,-0.4745,-0.4745,-0.4603,-0.4572,-0.4653,-0.4561,-0.4922,-0.5687,-0.6468,-0.8082,-1.0237,-1.1143,-1.2638,-1.4553,-1.666,-1.7629,-1.8007,-2.0031,-2.1019,-2.1273,-2.1624,-2.1659,-2.1875,-2.3753,-2.4291,-2.4241,-2.4708,-2.4833,-2.4703,-2.3839,-2.364,-2.3335,-2.1232,-2.0715,-2.0288,-1.7751,-1.6346,-1.5725,-1.6515,-1.656,-1.607,0.0,-1.4957,-1.5005,-1.3227,-1.2833,-1.2948,-1.3114,-1.3094,-1.3294,-1.3731,-1.3845,-1.3966,-1.4256,-1.4022,-1.3841,-1.367,-1.4027,-1.4406,-1.4719,-1.5658,-1.6894,-1.8636,-1.879,-1.9443,-2.0869,-2.098,-2.1091,-2.1322,-2.1449,-2.1592,-2.1783,-2.1902,-2.1957,-2.1957,-2.1957,-2.218,-2.2419,-2.2518,-2.3542,-2.545,-2.735,-2.8423,-2.8696,-2.832,-2.8123,-2.808,-2.7643,-2.7545,-2.7741,-2.9065,-2.9387,-2.932,0.0,0.0,0.0,0.0,0.0,0.0,0.0,0.0,0.0,0.0,0.0,0.0,0.0,0.0,0.0,0.0,0.0,0.0,-0.7086,-0.7008,-0.7196,-0.7631,-0.6973,-0.6306,-0.5743,-0.5583,-0.523,-0.4703,-0.5419,-0.6006,-0.6537,-0.777,-0.9052,-1.0404,-1.1372,-1.2837,-1.4704,-1.6651,-1.7978,-1.8824,-2.0248,-2.0786,-2.0775,-2.0688,-2.042,-2.0386,-2.1725,-2.1994,0.0,0.0,-2.2542,-2.2527,-2.2325,-2.1908,-2.1285,-1.9725,-1.8945,-1.824,-1.6958,-1.6137,-1.5744,-1.6364,-1.6768,-1.6721,-1.5675,-1.5571,-1.5374,-1.4063,-1.3554,-1.3303,-1.3498,-1.3379,-1.3468,0.0,-1.3906,-1.3996,-1.4262,-1.3919,-1.3642,-1.3539,-1.3216,-1.3069,-1.3111,-1.3685,-1.494,-1.7109,-1.7445,-1.8589,-2.0814,-2.0925,-2.0988,-2.1139,-2.1139,-2.1211,-2.1354,-2.1354,-2.1458,-2.1563,-2.1563,-2.1771,-2.2187,-2.2187,-2.3493,-2.5567,-2.6378,-2.741,-2.8331,-2.8123,-2.7872,-2.7599,-2.7392,-2.7403,-2.7646,-2.8233,-2.8567,-2.8712,0.0,0.0,0.0,0.0,0.0,0.0,0.0,0.0,0.0,0.0,0.0,0.0,0.0,0.0,0.0,0.0,0.0,0.0,0.0,-0.8056,-0.8184,-0.8751,-0.8207,0.0,-0.6867,-0.673,-0.6293,-0.5671,-0.6565,-0.7221,-0.7489,-0.8966,-1.0099,-1.0995,-1.2251,-1.3757,-1.5309,-1.7064,-1.8392,-1.9309,-2.0259,-2.0475,-2.027,-2.0064,-1.9641,-1.9254,-2.0028,-2.0111,0.0,0.0,-2.037,-2.0447,-2.0198,-1.9843,-1.9315,-1.8119,-1.7069,-1.6317,-1.6297,-1.5617,-1.5204,-1.6033,-1.6285,-1.6319,-1.6103,-1.5817,-1.5442,-1.4796,-1.4153,-1.3677,-1.3856,-1.3661,-1.3572,-1.3924,-1.4014,-1.4081,-1.4268,-1.3919,-1.3516,-1.3341,-1.2672,-1.2024,-1.1612,-1.2019,-1.3335,-1.5565,-1.6365,-1.7752,-2.0174,-2.0712,-2.0925,-2.0925,-2.0925,-2.0925,-2.0925,-2.0925,-2.1019,-2.1326,-2.1326,-2.1623,-2.2123,-2.2518,-2.3737,-2.5478,-2.5767,-2.6661,-2.7829,-2.7708,-2.7446,-2.7108,-2.7064,-2.7107,-2.7291,-2.7464,-2.7813,-2.8162,0.0,0.0,0.0,0.0,0.0,0.0,0.0,0.0,0.0,0.0,0.0,0.0,0.0,0.0,0.0,0.0,0.0,0.0,0.0,-0.9963,-0.9522,-0.9673,-0.8653,-0.8097,-0.8012,-0.7886,-0.7894,-0.8021,-0.7882,-0.8104,-0.8685,-0.989,-1.1286,-1.2816,-1.4347,-1.579,-1.7139,-1.8402,-1.8946,-1.911,-1.9998,-2.0205,-1.9933,-2.0042,-1.9222,-1.8131,-1.8977,0.0,0.0,0.0,-1.8532,-1.8811,-1.719,-1.7294,0.0,-1.6943,-1.5854,-1.5157,-1.5989,-1.4369,-1.2838,-1.462,-1.4198,-1.3693,-1.4734,-1.4779,-1.4533,-1.4671,-1.3984,-1.3563,-1.4104,-1.3851,-1.3676,-1.4201,-1.4286,-1.4286,-1.4298,-1.4022,-1.364,-1.2903,-1.2608,-1.1818,0.0,-1.1332,-1.269,-1.45,-1.5949,-1.7325,-1.879,-2.0174,-2.0925,-2.0925,-2.0925,-2.0925,-2.0925,-2.0925,-2.1019,-2.1326,-2.1326,-2.1623,-2.2123,-2.3402,-2.4365,-2.4944,-2.5989,-2.6767,-2.7304,-2.6856,-2.666,-2.6605,-2.6293,-2.6201,-2.6274,-2.6772,-2.7254,-2.7595,0.0,0.0,0.0,0.0,0.0,0.0,0.0,0.0,0.0,0.0,0.0,0.0,0.0,0.0,0.0,0.0,0.0,0.0,0.0,-1.0375,-1.0299,-1.0433,-1.0253,-0.9842,-0.9145,-0.9121,-0.8737,-0.808,-0.9128,-0.9943,-1.0656,-1.2098,-1.3498,-1.472,-1.5429,-1.648,-1.7872,-1.8916,-1.9716,-2.0473,-2.1239,-2.1135,-2.0504,-1.9749,-1.8888,-1.7869,0.0,0.0,0.0,-1.5903,-1.5836,-1.5807,-1.5543,-1.532,-1.4861,-1.3546,-1.3377,-1.3591,-1.3287,-1.3009,-1.2952,-1.3604,-1.3836,-1.4052,-1.4472,-1.454,-1.4614,-1.4671,-1.4001,-1.3579,-1.3827,-1.3347,-1.3126,-1.3658,-1.3495,-1.352,-1.425,-1.3526,-1.2997,-1.3213,-1.2469,0.0,0.0,0.0,0.0,-1.3412,-1.4624,-1.6374,-1.8686,-1.9213,-1.996,-2.0917,-2.0925,-2.1027,-2.1121,-2.1121,-2.1428,-2.1818,-2.203,-2.2241,-2.2434,-2.2577,-2.3542,-2.4905,-2.5089,-2.5733,-2.6846,-2.6693,-2.6441,-2.6125,-2.6212,-2.6313,-2.6479,-2.6809,-2.7087,-2.7295,0.0,0.0,0.0,0.0,0.0,0.0,0.0,0.0,0.0,0.0,0.0,0.0,0.0,0.0,0.0,0.0,0.0,0.0,0.0,0.0,-1.0681,-1.0617,-1.0771,-1.0509,-0.9548,-0.9786,-0.9574,-0.8911,-1.0541,-1.1582,-1.2071,-1.378,-1.5163,-1.614,-1.6876,-1.7891,-1.9125,-2.0019,-2.0812,-2.1455,-2.1449,-2.1075,-2.0245,-1.9025,-1.7923,0.0,0.0,0.0,0.0,-1.4297,-1.4284,-1.4107,-1.4067,-1.3547,-1.281,-1.244,-1.2479,-1.2637,-1.2636,-1.2909,-1.3201,-1.3508,-1.392,-1.4261,-1.4209,-1.4381,-1.4531,-1.4427,-1.4015,-1.3532,-1.3497,-1.2993,-1.2772,-1.3219,-1.315,-1.3234,-1.3939,-1.3328,-1.2846,-1.3035,-1.2278,-1.1771,0.0,0.0,0.0,-1.2422,-1.355,-1.5246,-1.762,-1.814,-1.9184,-2.0814,-2.1019,-2.1121,-2.1121,-2.1326,-2.1623,-2.2123,-2.2434,-2.2576,-2.2529,-2.2484,-2.3103,-2.402,-2.4505,-2.5083,-2.579,-2.6138,-2.6179,-2.5895,-2.6229,-2.6479,-2.6644,-2.6903,-2.7056,-2.7231,0.0,0.0,0.0,0.0,0.0,0.0,0.0,0.0,0.0,0.0,0.0,0.0,0.0,0.0,0.0,0.0,0.0,0.0,0.0,0.0,0.0,-1.0255,-1.0345,-1.0098,-0.9548,-0.9964,-1.0297,-1.0309,-1.1924,-1.2767,-1.2926,-1.4749,-1.6,-1.6825,-1.8573,-1.9781,-2.0508,-2.1537,-2.1969,-2.1861,-2.0828,-2.0099,-1.9353,-1.7991,0.0,0.0,0.0,0.0,0.0,-1.344,-1.3761,-1.3753,-1.2783,-1.209,-1.1921,-1.3496,-1.2988,-1.234,-1.3877,-1.3717,-1.3347,-1.4198,-1.4209,-1.4076,-1.3976,-1.4146,-1.4302,-1.4012,-1.3712,-1.3471,-1.3037,0.0,-1.2617,-1.2727,-1.3097,-1.3395,-1.3465,-1.3434,-1.3199,0.0,0.0,0.0,0.0,0.0,0.0,-1.153,0.0,-1.4174,-1.5569,-1.698,-1.8684,-2.0688,-2.1121,-2.1121,-2.0925,-2.142,-2.1818,-2.2097,-2.2409,-2.2421,-2.2238,-2.3078,-2.2973,-2.2493,-2.4344,-2.4766,-2.4346,-2.5441,-2.5906,-2.599,-2.6396,-2.6644,-2.6644,-2.7067,-2.7231,-2.7231,0.0,0.0,0.0,0.0,0.0,0.0,0.0,0.0,0.0,0.0,0.0,0.0,0.0,0.0,0.0,0.0,0.0,0.0,0.0,0.0,0.0,0.0,0.0,0.0,0.0,0.0,0.0,0.0,0.0,-1.2262,-1.3614,-1.4323,-1.5056,0.0,-1.7347,-1.7975,-1.8082,-1.9883,-2.052,-2.0328,0.0,-2.0556,-1.9773,0.0,0.0,0.0,0.0,0.0,0.0,-1.3446,-1.3195,-1.2985,-1.3378,-1.268,-1.1662,-1.1689,-1.2255,-1.2829,-1.2735,-1.3384,-1.4072,-1.4163,-1.4,-1.3799,-1.3518,-1.3593,-1.3526,-1.2999,-1.2544,-1.1999,-1.135,-1.093,-1.0907,-1.1629,-1.1662,0.0,-1.2838,-1.2662,0.0,-1.2218,-1.2162,-1.2106,-1.1995,-1.1944,0.0,0.0,-1.2101,-1.3331,-1.4801,-1.6267,-1.7694,-1.9317,-2.0388,-2.1019,-2.1224,-2.1725,-2.1996,-2.2034,-2.2133,-2.1936,-2.1638,-2.1553,-2.2217,-2.3339,-2.3574,-2.4296,-2.5463,-2.5797,-2.599,-2.6157,-2.6479,-2.6727,-2.6809,-2.7149,-2.7231,-2.7231,0.0,0.0,0.0,0.0,0.0,0.0,0.0,0.0,0.0,0.0,0.0,0.0,0.0,0.0,0.0,0.0,0.0,0.0,0.0,0.0,0.0,0.0,0.0,0.0,0.0,0.0,0.0,0.0,0.0,0.0,0.0,-1.4441,-1.539,-1.6399,-1.7629,-1.8361,-1.8725,0.0,0.0,0.0,0.0,0.0,0.0,0.0,0.0,0.0,0.0,0.0,-1.3591,-1.412,-1.3767,-1.3286,-1.4436,-1.375,-1.256,-1.2915,-1.3138,-1.3235,-1.3025,-1.37,-1.4353,-1.4072,-1.3855,-1.3615,-1.2853,-1.2769,-1.2675,-1.1857,-1.1481,-1.1119,-1.0544,-1.0239,-1.0377,0.0,0.0,0.0,-1.2336,-1.2247,-1.2112,-1.2074,-1.2006,-1.2087,-1.2191,-1.2114,-1.1801,0.0,-1.2018,-1.3198,-1.4862,-1.6116,-1.7695,-1.9635,-2.0498,-2.1049,-2.1402,-2.1528,-2.1649,-2.1739,-2.1836,-2.1734,-2.126,-2.1062,-2.1416,-2.2242,0.0,-2.3665,-2.4615,-2.5637,-2.6074,-2.624,-2.6561,-2.6809,-2.6891,-2.7149,-2.7231,-2.7231,0.0,0.0,0.0,0.0,0.0,0.0,0.0,0.0,0.0,0.0,0.0,0.0,0.0,0.0,0.0,0.0,0.0,0.0,0.0,0.0,0.0,0.0,0.0,0.0,0.0,0.0,0.0,0.0,0.0,0.0,0.0,0.0,0.0,0.0,0.0,0.0,0.0,0.0,0.0,0.0,0.0,0.0,0.0,0.0,0.0,0.0,0.0,0.0,-1.3471,-1.4919,-1.4809,-1.4267,-1.5679,-1.5007,-1.3953,-1.5104,-1.453,-1.3567,-1.3861,-1.4068,-1.4217,-1.3863,-1.3717,-1.3353,-1.2158,-1.2109,-1.1986,-1.0811,-1.0655,-1.0605,-1.0174,-1.0188,-1.0379,-1.0744,-1.124,-1.1618,-1.1597,-1.1968,-1.2028,-1.1713,-1.1636,-1.1763,-1.1982,-1.1955,-1.1729,-1.1564,-1.2264,-1.3453,-1.4969,-1.6105,-1.7959,-2.0562,-2.068,-2.0942,-2.1427,-2.1101,-2.11,-2.1336,-2.1527,-2.1423,-2.1058,-2.089,-2.0799,-2.0808,0.0,0.0,-2.337,-2.537,-2.624,-2.6313,-2.6727,-2.6891,-2.6974,-2.7149,-2.7231,-2.7231,0.0,0.0,0.0,0.0,0.0,0.0,0.0,0.0,0.0,0.0,0.0,0.0,0.0,0.0,0.0,0.0,0.0,0.0,0.0,0.0,0.0,0.0,0.0,0.0,0.0,0.0,0.0,0.0,0.0,0.0,0.0,0.0,0.0,0.0,0.0,0.0,0.0,0.0,0.0,0.0,0.0,0.0,0.0,0.0,0.0,0.0,0.0,-1.3176,-1.3594,-1.4725,-1.4896,-1.4949,-1.6628,-1.6091,-1.4819,-1.4344,-1.4093,-1.3861,-1.3141,-1.3286,-1.3637,-1.3564,-1.3273,-1.2945,-1.2542,-1.2264,-1.1788,-1.0855,-1.0445,-1.0055,-0.9482,-0.9699,-1.0012,-0.9958,-1.0462,-1.0609,-0.9883,-1.0886,-1.1461,-1.0807,-1.1239,-1.1709,-1.2295,-1.1385,0.0,0.0,0.0,-1.3095,-1.3519,-1.4959,-1.6852,-1.9376,-1.9854,-2.0215,-2.054,-2.0862,-2.0982,-2.0968,-2.1062,-2.0864,-2.0477,-2.0394,-2.1248,-2.2631,0.0,0.0,-2.5395,-2.583,-2.6146,-2.6561,-2.6644,-2.6891,-2.7149,-2.7149,-2.7231,-2.7231,0.0,0.0,0.0,0.0,0.0,0.0,0.0,0.0,0.0,0.0,0.0,0.0,0.0,0.0,0.0,0.0,0.0,0.0,0.0,0.0,0.0,0.0,0.0,0.0,0.0,0.0,-1.0415,-1.0761,0.0,0.0,0.0,0.0,0.0,0.0,0.0,0.0,0.0,0.0,0.0,0.0,0.0,0.0,0.0,0.0,0.0,0.0,0.0,-1.2512,-1.2925,-1.3883,-1.4242,-1.4725,-1.7164,-1.7139,-1.6017,-1.5178,-1.4959,-1.4757,-1.37,-1.3962,-1.4425,-1.3768,-1.3622,-1.3158,-1.1606,-1.1309,-1.1005,-0.9774,-0.9362,-0.9168,-0.9025,-0.8922,-0.9059,-0.9777,-1.009,-1.0236,-1.0066,-1.0847,-1.1274,-1.0992,-1.1289,-1.1481,-1.1672,-1.1098,-1.0819,-1.0906,0.0,-1.2294,-1.397,-1.6126,-1.7825,-1.8897,-1.9113,-1.9406,-1.979,-2.0071,-2.0272,-2.039,-2.0666,-2.0654,-2.0292,-2.0292,-2.0817,-2.1695,-2.2658,0.0,-2.3992,-2.5583,-2.6177,-2.6005,-2.6687,-2.7056,-2.7231,-2.7231,-2.7231,-2.7231,0.0,0.0,0.0,0.0,0.0,0.0,0.0,0.0,0.0,0.0,0.0,0.0,0.0,0.0,0.0,0.0,0.0,0.0,0.0,0.0,0.0,0.0,0.0,0.0,0.0,0.0,0.0,-1.1132,-1.126,0.0,0.0,0.0,0.0,0.0,-1.6835,0.0,0.0,0.0,0.0,0.0,0.0,0.0,0.0,0.0,0.0,0.0,0.0,-1.2072,-1.2406,-1.3074,-1.3487,-1.4194,-1.6748,-1.7016,-1.6324,-1.579,-1.5579,-1.5221,-1.4453,-1.4767,-1.5133,-1.4266,-1.4122,-1.3618,-1.1195,-1.0837,-1.0542,-0.9021,-0.8511,-0.845,-0.8739,-0.831,-0.8365,-0.9502,-0.9596,-0.9751,-1.0324,-1.0683,-1.0974,-1.1123,-1.1106,-1.1165,-1.1045,-1.0871,0.0,0.0,0.0,0.0,-1.4619,-1.7032,-1.8386,-1.8379,-1.8422,-1.8673,-1.9146,-1.9418,-1.9737,-1.9936,-2.0382,-2.0473,-2.0292,-2.0292,-2.0382,-2.0736,-2.2227,0.0,0.0,-2.5128,-2.5968,-2.5496,-2.6668,-2.7162,-2.7059,-2.7059,-2.7001,-2.6909,0.0,0.0,0.0,0.0,0.0,0.0,0.0,0.0,0.0,0.0,0.0,0.0,0.0,0.0,0.0,0.0,0.0,0.0,0.0,0.0,0.0,0.0,0.0,0.0,0.0,0.0,0.0,-1.1825,-1.149,0.0,0.0,0.0,0.0,0.0,0.0,-1.8363,-1.8614,0.0,0.0,0.0,0.0,0.0,0.0,0.0,0.0,0.0,0.0,-1.2669,-1.3035,-1.2698,-1.307,-1.3738,-1.4396,-1.4396,-1.4268,-1.4766,-1.4544,-1.4271,-1.4722,-1.4854,-1.4903,-1.4832,-1.4681,-1.4205,-1.2873,-1.2019,-1.1121,-0.9681,-0.8794,-0.8341,-0.8656,-0.8556,-0.8548,-0.8976,0.0,-0.8823,-0.9108,-0.9705,-1.012,-1.0105,-1.0314,-1.0656,-1.1226,-1.0414,-1.0276,0.0,0.0,0.0,-1.4132,-1.5351,-1.655,-1.7413,-1.7867,-1.8311,-1.8589,-1.9288,-1.9737,-1.9928,-2.0201,-2.0292,-2.0292,-2.0292,-2.0727,-2.1606,0.0,0.0,0.0,-2.4723,-2.5387,-2.5496,-2.6506,-2.6852,-2.6746,-2.661,-2.6401,-2.6086,0.0,0.0,0.0,0.0,0.0,0.0,0.0,0.0,0.0,0.0,0.0,0.0,0.0,0.0,0.0,0.0,0.0,0.0,0.0,0.0,0.0,0.0,0.0,0.0,0.0,0.0,-1.2338,-1.2501,-1.2351,0.0,0.0,0.0,0.0,0.0,0.0,-1.8182,-1.8302,0.0,0.0,0.0,0.0,0.0,0.0,0.0,0.0,0.0,0.0,0.0,-1.2724,-1.2679,-1.2636,-1.2643,-1.2681,-1.2654,-1.2751,-1.3705,-1.4418,-1.4867,-1.4719,-1.5347,-1.5974,-1.5551,-1.5353,-1.4673,-1.2387,-1.2114,-1.1771,-0.9661,-0.9041,-0.8879,-0.9014,-0.818,-0.765,0.0,0.0,0.0,-0.9084,-0.9567,-0.9962,-1.0446,-1.0373,-1.0431,0.0,0.0,-1.0331,0.0,0.0,0.0,-1.4116,-1.5191,-1.6278,-1.7232,-1.7621,-1.7994,-1.8265,-1.9004,-1.9471,-1.9762,-2.011,-2.0292,-2.0292,-2.0292,-2.0464,-2.0907,0.0,0.0,0.0,-2.4891,-2.5351,-2.4561,-2.6117,-2.6676,-2.6445,-2.638,-2.6329,-2.6165,0.0,0.0,0.0,0.0,0.0,0.0,0.0,0.0,0.0,0.0,0.0,0.0,0.0,0.0,0.0,0.0,0.0,0.0,0.0,0.0,0.0,0.0,0.0,0.0,0.0,0.0,0.0,-1.3191,-1.3029,-1.348,0.0,0.0,-1.6187,-1.7272,0.0,0.0,0.0,0.0,0.0,0.0,0.0,0.0,0.0,0.0,0.0,0.0,0.0,0.0,0.0,0.0,0.0,-1.2149,-1.2028,-1.1808,-1.1778,-1.2932,-1.4073,-1.4944,-1.4762,-1.5593,-1.6508,-1.6263,-1.5905,-1.5013,-1.2691,-1.2422,-1.2066,-0.997,-0.9517,-0.9396,-0.9139,-0.7972,-0.7319,0.0,0.0,-0.7861,-0.9039,-0.9333,-0.9616,-1.0193,0.0,-1.0043,0.0,-1.0228,0.0,0.0,0.0,0.0,0.0,-1.5222,-1.6278,-1.7232,-1.7527,-1.7908,-1.8172,-1.8819,-1.9296,-1.9587,-1.9945,-1.9909,-1.969,-2.0008,-1.9932,-1.9626,0.0,0.0,0.0,-2.4083,-2.4803,-2.4095,-2.5861,-2.6375,-2.6146,-2.6071,-2.5977,-2.5922,0.0,0.0,0.0,0.0,0.0,0.0,0.0,0.0,0.0,0.0,0.0,0.0,0.0,0.0,0.0,0.0,0.0,0.0,0.0,0.0,0.0,0.0,0.0,0.0,0.0,0.0,0.0,-1.3807,-1.3269,-1.3563,-1.4628,-1.5781,-1.6884,-1.7944,0.0,0.0,0.0,0.0,0.0,0.0,0.0,0.0,0.0,0.0,0.0,0.0,0.0,0.0,0.0,0.0,0.0,0.0,0.0,-1.2022,0.0,0.0,-1.3283,-1.3926,-1.4895,-1.5469,-1.5998,-1.6973,-1.6211,-1.5163,-1.4703,-1.3462,-1.2032,-1.0764,-1.0199,-0.9697,-0.8683,-0.8156,-0.7851,-0.7748,0.0,0.0,-0.8727,-0.8794,-0.8806,0.0,-0.9082,-0.9209,-0.9529,-1.0203,0.0,0.0,0.0,0.0,0.0,-1.5222,-1.6278,-1.7232,-1.7527,-1.7994,-1.8442,-1.8727,-1.9112,-1.9587,-1.9587,-1.9109,-1.823,-1.9151,-1.8904,0.0,0.0,0.0,0.0,-2.2,-2.3268,-2.4594,-2.5628,-2.5937,-2.5775,-2.5616,-2.5358,-2.5064,0.0,0.0,0.0,0.0,0.0,0.0,0.0,0.0,0.0,0.0,0.0,0.0,0.0,0.0,0.0,0.0,0.0,0.0,0.0,0.0,0.0,0.0,0.0,0.0,0.0,0.0,0.0,0.0,0.0,-1.479,-1.6198,-1.6562,-1.7264,-1.8245,-1.84,-1.8384,0.0,0.0,0.0,0.0,0.0,0.0,0.0,0.0,0.0,0.0,0.0,0.0,0.0,0.0,0.0,0.0,0.0,0.0,0.0,-1.2328,-1.2654,-1.3094,-1.3522,-1.4215,-1.4902,-1.5221,-1.5068,-1.4587,-1.3399,-1.3181,-1.2837,-1.1382,-1.0766,-1.0458,-1.0135,-0.9385,-0.8684,-0.8385,-0.828,0.0,0.0,0.0,-0.8827,-0.9205,-0.9262,-0.943,0.0,0.0,0.0,0.0,0.0,0.0,0.0,-1.5036,-1.5971,-1.7059,-1.7714,-1.7887,-1.7652,-1.8387,-1.8726,-1.8668,-1.874,-1.8354,-1.7505,-1.8403,0.0,0.0,0.0,0.0,0.0,-2.258,-2.3416,-2.3311,-2.4849,-2.5386,-2.529,-2.5218,-2.5254,-2.5241,0.0,0.0,0.0,0.0,0.0,0.0,0.0,0.0,0.0,0.0,0.0,0.0,0.0,0.0,0.0,0.0,0.0,0.0,0.0,0.0,0.0,0.0,0.0,0.0,0.0,0.0,0.0,0.0,0.0,0.0,0.0,0.0,-1.7502,-1.8708,-1.8533,-1.8267,0.0,0.0,0.0,0.0,0.0,0.0,-1.6852,0.0,0.0,0.0,0.0,0.0,0.0,0.0,0.0,0.0,0.0,0.0,0.0,0.0,-1.2364,-1.2414,-1.2659,-1.3234,-1.3905,-1.4292,-1.4132,-1.3762,-1.3108,-1.3124,-1.294,-1.1869,-1.1728,-1.1539,-1.0964,-1.0642,-1.0213,-0.9412,-0.9702,0.0,0.0,0.0,0.0,-0.9403,0.0,0.0,0.0,0.0,0.0,0.0,0.0,0.0,0.0,-1.5351,-1.6022,-1.6614,-1.7256,-1.7515,-1.731,-1.7943,-1.8194,-1.8238,-1.8213,-1.7754,-1.7008,-1.7803,0.0,0.0,0.0,0.0,0.0,-2.1659,-2.2635,-2.2939,-2.4067,-2.4661,-2.4981,-2.5052,-2.5182,-2.5241,0.0,0.0,0.0,0.0,0.0,0.0,0.0,0.0,0.0,0.0,0.0,0.0,0.0,0.0,0.0,0.0,0.0,0.0,0.0,0.0,0.0,0.0,0.0,0.0,0.0,0.0,0.0,-1.3842,-1.4049,-1.5071,-1.6713,0.0,0.0,-1.9134,-1.9074,0.0,0.0,0.0,0.0,0.0,0.0,0.0,0.0,0.0,0.0,0.0,0.0,0.0,0.0,0.0,0.0,0.0,0.0,0.0,0.0,0.0,0.0,0.0,0.0,-1.258,-1.2948,-1.396,-1.34,-1.2792,-1.3564,-1.3149,0.0,-1.2399,-1.2863,-1.2863,-1.1414,-1.2002,-1.2175,-1.0715,-1.1455,0.0,0.0,-1.1586,0.0,0.0,-0.9021,0.0,0.0,0.0,0.0,0.0,0.0,0.0,0.0,-1.5963,-1.625,-1.5991,-1.6507,-1.6946,-1.7303,-1.7406,-1.7636,-1.7997,-1.777,-1.7225,-1.6374,-1.7273,0.0,0.0,0.0,0.0,0.0,-1.9806,-2.1354,-2.3254,-2.3327,-2.3948,-2.479,-2.4981,-2.5052,-2.5123,0.0,0.0,0.0,0.0,0.0,0.0,0.0,0.0,0.0,0.0,0.0,0.0,0.0,0.0,0.0,0.0,0.0,0.0,0.0,0.0,0.0,0.0,0.0,0.0,0.0,0.0,0.0,-1.4353,-1.4624,-1.5588,-1.7161,-1.7161,0.0,0.0,-1.8163,0.0,0.0,0.0,0.0,0.0,0.0,0.0,0.0,0.0,0.0,0.0,-1.5652,-1.5489,0.0,0.0,0.0,0.0,0.0,0.0,0.0,0.0,-1.3584,-1.3319,-1.3015,0.0,-1.1765,-1.2014,-1.2102,-1.217,0.0,-1.2234,-1.2405,-1.3057,-1.3134,-1.2939,-1.2582,-1.3679,-1.3824,-1.1441,-1.2417,-1.306,-1.1692,-1.1939,0.0,-0.9736,-1.0892,-1.1397,0.0,0.0,0.0,0.0,0.0,0.0,0.0,-1.5651,-1.6023,-1.5937,-1.5937,-1.6092,-1.6518,-1.7048,-1.6909,-1.6047,-1.664,-1.6173,-1.4808,-1.6251,0.0,0.0,0.0,0.0,-1.9316,-2.074,-2.2059,-2.3139,-2.374,-2.4261,-2.4574,-2.4634,-2.4706,-2.4921,0.0,0.0,0.0,0.0,0.0,0.0,0.0,0.0,0.0,0.0,0.0,0.0,0.0,0.0,0.0,0.0,0.0,0.0,0.0,0.0,0.0,0.0,0.0,0.0,0.0,0.0,0.0,0.0,0.0,-1.5692,0.0,0.0,0.0,0.0,-1.7431,0.0,0.0,0.0,0.0,0.0,-1.6353,0.0,0.0,0.0,0.0,0.0,-1.542,-1.5261,0.0,-1.5018,-1.4723,-1.4409,0.0,0.0,0.0,0.0,-1.4228,-1.3831,-1.3632,-1.2581,-1.1741,-1.2087,-1.1963,-1.19,-1.2321,-1.239,-1.2512,-1.3382,-1.3569,-1.3572,-1.3653,-1.4482,-1.4678,-1.3291,-1.3931,0.0,0.0,0.0,-1.2467,-1.1051,-1.1589,0.0,0.0,0.0,0.0,0.0,0.0,0.0,0.0,-1.5419,-1.5524,-1.5524,-1.5762,-1.5997,-1.6178,-1.6606,-1.6417,-1.5405,-1.6244,-1.6015,-1.4793,-1.6086,0.0,0.0,0.0,0.0,-1.8762,-1.9926,-2.1223,-2.2531,-2.3372,-2.397,-2.4345,-2.449,-2.4706,-2.4981,0.0,0.0,0.0,0.0,0.0,0.0,0.0,0.0,0.0,0.0,0.0,0.0,0.0,0.0,0.0,0.0,0.0,0.0,0.0,0.0,0.0,0.0,0.0,0.0,0.0,0.0,0.0,0.0,0.0,0.0,0.0,0.0,-1.6331,-1.7387,-1.6963,0.0,0.0,0.0,0.0,0.0,-1.5961,0.0,0.0,0.0,0.0,0.0,0.0,0.0,0.0,-1.4805,-1.4706,-1.457,-1.457,0.0,0.0,0.0,0.0,0.0,-1.4238,-1.3299,-1.2394,-1.3112,-1.2488,-1.1989,-1.3099,-1.2902,-1.2751,-1.3702,-1.4081,-1.4377,-1.4631,-1.5133,-1.5419,0.0,0.0,0.0,-1.518,-1.4528,-1.3677,-1.274,-1.2213,0.0,0.0,0.0,0.0,0.0,0.0,0.0,0.0,-1.5148,-1.5006,-1.5006,-1.5673,-1.6004,-1.6004,-1.6319,-1.6059,-1.5405,-1.6244,-1.6212,-1.542,-1.634,-1.673,0.0,0.0,0.0,-1.8372,-1.8967,-2.0292,-2.2069,-2.2841,-2.3593,-2.42,-2.4418,-2.4611,-2.4945,0.0,0.0,0.0,0.0,0.0,0.0,0.0,0.0,0.0,0.0,0.0,0.0,0.0,0.0,0.0,0.0,0.0,0.0,0.0,0.0,0.0,0.0,0.0,0.0,0.0,0.0,0.0,0.0,0.0,0.0,-1.8144,-1.7685,-1.752,-1.7694,-1.6988,-1.6576,-1.6535,-1.6462,-1.6202,-1.5972,-1.6009,0.0,0.0,0.0,0.0,0.0,0.0,0.0,0.0,-1.4902,-1.4792,-1.4743,-1.4743,0.0,0.0,0.0,0.0,0.0,-1.5029,-1.4463,-1.3894,-1.4123,-1.3408,-1.2902,-1.3664,-1.3145,-1.2947,-1.4406,-1.4757,-1.4896,-1.5218,-1.6433,-1.6878,0.0,0.0,-1.5625,0.0,0.0,-1.5171,-1.3171,0.0,0.0,0.0,0.0,0.0,0.0,0.0,0.0,0.0,0.0,-1.4734,-1.4734,-1.5235,-1.5484,-1.5484,-1.6237,-1.6228,-1.5405,-1.6244,-1.6212,-1.542,-1.634,-1.6902,0.0,0.0,-1.847,-1.9737,-2.0841,-2.1943,-2.2927,-2.3666,-2.4116,-2.42,-2.42,-2.4273,-2.4478,0.0,0.0,0.0,0.0,0.0,0.0,0.0,0.0,0.0,0.0,0.0,0.0,0.0,0.0,0.0,0.0,0.0,0.0,0.0,0.0,0.0,0.0,0.0,0.0,0.0,0.0,0.0,0.0,0.0,-1.6828,-1.7818,-1.7675,-1.7766,-1.798,-1.7275,-1.69,-1.6726,-1.6477,-1.6259,-1.6009,0.0,0.0,0.0,0.0,0.0,0.0,0.0,0.0,0.0,0.0,-1.4971,-1.4824,-1.5049,0.0,0.0,0.0,0.0,0.0,-1.5298,-1.5293,-1.5504,-1.661,-1.5296,-1.4307,-1.6503,-1.5576,-1.4733,-1.6343,-1.5952,-1.532,-1.5696,0.0,-1.6258,-1.5458,0.0,-1.6506,-1.5738,-1.5865,-1.5523,0.0,0.0,0.0,0.0,0.0,0.0,0.0,0.0,0.0,0.0,0.0,-1.4566,-1.4734,-1.5144,-1.5477,-1.5567,-1.6229,-1.6139,-1.5242,-1.6236,-1.6212,-1.542,-1.634,-1.6984,-1.7375,0.0,-1.7883,-1.9344,-2.0397,-2.1459,-2.2456,-2.374,-2.42,-2.42,-2.4418,-2.4387,-2.4343,0.0,0.0,0.0,0.0,0.0,0.0,0.0,0.0,0.0,0.0,0.0,0.0,0.0,0.0,0.0,0.0,0.0,0.0,0.0,0.0,0.0,0.0,0.0,0.0,0.0,0.0,-1.7705,-1.7405,-1.7406,-1.7476,-1.7599,-1.773,-1.797,-1.8277,-1.7585,-1.7155,-1.6956,-1.657,-1.6306,-1.6181,0.0,0.0,0.0,0.0,0.0,0.0,0.0,0.0,0.0,0.0,0.0,0.0,0.0,0.0,0.0,-1.541,-1.541,-1.541,-1.541,-1.5811,-1.6674,-1.8517,-1.7006,-1.5829,-1.9104,-1.783,-1.649,-1.8255,-1.731,-1.6309,0.0,-1.5972,0.0,-1.5939,-1.6787,-1.7088,-1.6253,0.0,0.0,0.0,0.0,0.0,0.0,0.0,0.0,0.0,0.0,0.0,0.0,0.0,-1.4398,-1.465,-1.4977,-1.5318,-1.5575,-1.5982,-1.5975,-1.5387,-1.6314,-1.6379,-1.5725,-1.6492,-1.7147,-1.7521,-1.7024,-1.757,-1.8877,-1.9824,-2.0828,-2.1907,-2.3361,-2.3975,-2.4089,-2.447,-2.4413,-2.4214,0.0,0.0,0.0,0.0,0.0,0.0,0.0,0.0,0.0,0.0,0.0,0.0,0.0,0.0,0.0,0.0,0.0,0.0,0.0,0.0,0.0,0.0,0.0,0.0,0.0,-1.7455,-1.7359,-1.7658,-1.6925,-1.7296,-1.8575,-1.8638,-1.8659,-1.8649,-1.7501,-1.6977,-1.6956,-1.657,-1.6374,-1.6374,-1.6374,0.0,0.0,0.0,0.0,0.0,0.0,0.0,0.0,0.0,0.0,0.0,0.0,0.0,-1.541,-1.541,-1.541,-1.541,-1.541,-1.6035,-1.7002,-1.8596,-1.7887,-1.7426,-2.0115,-1.8568,-1.7287,-1.9448,-1.9099,-1.8422,0.0,-1.7252,-1.6259,-1.6547,-1.6714,-1.6834,0.0,0.0,0.0,0.0,0.0,0.0,0.0,0.0,0.0,0.0,0.0,0.0,0.0,0.0,0.0,-1.4398,-1.465,-1.4908,-1.5173,-1.5575,-1.5959,-1.6324,-1.6542,-1.6706,-1.6577,-1.7123,-1.7554,-1.7951,-1.839,-1.8789,-1.9301,-2.0168,-2.1018,-2.1918,-2.2767,-2.3324,-2.3711,-2.3793,-2.3789,-2.3797,0.0,0.0,0.0,0.0,0.0,0.0,0.0,0.0,0.0,0.0,0.0,0.0,0.0,0.0,0.0,0.0,0.0,0.0,0.0,0.0,0.0,0.0,0.0,-1.8931,-1.8596,-1.8425,-1.8284,-1.8107,-1.7513,-1.7838,-1.9078,-1.8666,0.0,-1.8218,-1.7492,-1.6839,-1.63,-1.5906,-1.5894,-1.6114,-1.6114,-1.6114,0.0,0.0,0.0,0.0,0.0,0.0,0.0,0.0,-1.5408,-1.5381,0.0,0.0,-1.541,-1.541,-1.541,-1.5537,-1.6084,-1.6475,-1.7301,-1.9835,-1.938,-1.9126,-2.1838,-2.081,-1.9707,-2.1306,-2.0207,-1.8576,0.0,0.0,-1.6491,-1.6433,-1.6799,0.0,0.0,0.0,0.0,0.0,0.0,0.0,0.0,0.0,0.0,0.0,0.0,0.0,0.0,0.0,0.0,-1.4289,-1.4346,-1.4495,-1.4823,-1.5135,-1.5454,-1.5779,-1.628,-1.6566,-1.6738,-1.6894,-1.731,-1.804,-1.8201,-1.8674,-1.9381,-2.0148,-2.1058,-2.2017,-2.3151,-2.3537,-2.3372,-2.3372,-2.3246,-2.3125,0.0,0.0,0.0,0.0,0.0,0.0,0.0,0.0,0.0,0.0,0.0,0.0,0.0,0.0,0.0,0.0,0.0,0.0,0.0,0.0,0.0,0.0,0.0,-1.9075,-1.9075,-1.9008,-1.8721,-1.8404,-1.7978,-1.8151,-1.8875,0.0,-1.8104,-1.7801,-1.7335,-1.6728,-1.6075,-1.5585,-1.5584,-1.5874,-1.5874,-1.5931,0.0,0.0,0.0,0.0,0.0,0.0,0.0,0.0,0.0,0.0,0.0,0.0,0.0,0.0,-1.5576,-1.5811,-1.6419,-1.6924,-1.786,-2.0206,-2.0198,-2.0256,-2.2796,-2.2158,-2.1245,-2.2503,-2.1444,-1.9687,-1.7795,0.0,0.0,0.0,0.0,0.0,0.0,0.0,0.0,0.0,0.0,0.0,0.0,0.0,0.0,0.0,0.0,0.0,0.0,0.0,0.0,0.0,-1.4223,-1.4423,-1.5005,-1.5048,-1.5203,-1.5561,-1.5911,-1.6244,-1.6485,-1.6637,-1.7037,-1.7759,-1.7909,-1.8301,-1.8926,-1.9534,-2.043,-2.165,-2.286,-2.321,-2.3034,-2.3034,-2.2847,-2.2587,0.0,0.0,0.0,0.0,0.0,0.0,0.0,0.0,0.0,0.0,0.0,0.0,0.0,0.0,0.0,0.0,0.0,0.0,0.0,0.0,0.0,0.0,0.0,-1.9065,-1.9065,-1.8684,-1.8482,-1.8482,-1.8144,-1.8008,-1.8008,-1.8008,-1.7773,-1.738,-1.6894,-1.6651,-1.6507,-1.5723,-1.5594,-1.5874,-1.5874,-1.5884,-1.5941,0.0,0.0,0.0,0.0,0.0,0.0,0.0,-1.5546,0.0,0.0,0.0,0.0,0.0,-1.5989,-1.6317,-1.6336,-1.7465,-1.874,-1.9469,-1.9915,-2.0708,-2.2682,-2.2151,-2.1534,-2.2655,-2.2813,-2.2348,-2.1093,-1.9566,0.0,0.0,0.0,0.0,0.0,0.0,0.0,0.0,0.0,0.0,0.0,0.0,0.0,0.0,0.0,0.0,0.0,0.0,0.0,0.0,-1.4453,-1.4754,-1.5561,-1.5217,-1.5303,-1.5895,-1.5553,-1.5613,-1.5996,-1.6446,-1.6826,-1.7203,-1.7653,-1.7886,-1.8128,-1.8119,-1.9112,-2.0663,-2.1527,-2.2206,-2.2698,-2.2698,-2.2504,-2.2259,0.0,0.0,0.0,0.0,0.0,0.0,0.0,0.0,0.0,0.0,0.0,0.0,0.0,0.0,0.0,0.0,0.0,0.0,0.0,0.0,0.0,0.0,0.0,0.0,0.0,0.0,-1.794,-1.8144,-1.8076,-1.8008,0.0,0.0,-1.7607,-1.6914,-1.7437,-1.6833,-1.5496,-1.5892,-1.5713,-1.5283,-1.5573,-1.5819,-1.6038,0.0,0.0,0.0,0.0,0.0,0.0,0.0,0.0,0.0,0.0,0.0,0.0,0.0,-1.6579,-1.6592,-1.8055,-1.8271,-1.8517,-1.9942,-2.0371,-2.0582,-2.0787,-2.143,-2.2247,-2.3392,-2.29,-2.1961,-2.0977,-2.0741,0.0,0.0,0.0,0.0,0.0,0.0,0.0,0.0,0.0,0.0,0.0,0.0,0.0,0.0,0.0,0.0,0.0,0.0,0.0,0.0,-1.4238,-1.4334,-1.4739,-1.4638,-1.4712,-1.4961,-1.4859,-1.5287,-1.6234,-1.631,-1.6758,-1.7446,-1.7521,-1.7746,-1.8119,-1.8893,-1.9626,-2.0366,-2.1319,-2.1985,-2.2363,-2.2363,-2.2267,-2.2259,0.0,0.0,0.0,0.0,0.0,0.0,0.0,0.0,0.0,0.0,0.0,0.0,0.0,0.0,0.0,0.0,0.0,0.0,0.0,0.0,0.0,0.0,0.0,0.0,0.0,-1.7745,-1.7539,0.0,0.0,0.0,0.0,-1.7529,-1.7235,-1.6541,-1.6996,-1.6412,-1.5254,-1.5485,-1.5455,-1.5235,-1.5482,-1.5813,-1.6119,0.0,0.0,0.0,0.0,0.0,0.0,0.0,0.0,0.0,0.0,0.0,0.0,-1.7521,-1.7506,-1.775,-1.9029,-1.9105,-1.9193,-2.1071,-2.0956,-2.0453,-2.0396,-2.109,-2.221,-2.4002,-2.3791,-2.3003,-2.2387,-2.2278,0.0,0.0,0.0,0.0,0.0,0.0,0.0,0.0,0.0,0.0,0.0,0.0,0.0,0.0,0.0,0.0,0.0,0.0,0.0,0.0,-1.424,-1.4343,-1.471,-1.4718,-1.4854,-1.5054,-1.5054,-1.5428,-1.6171,-1.6022,-1.6391,-1.7124,-1.7197,-1.7424,-1.7633,-1.8252,-1.9053,-1.9945,-2.0544,-2.1376,-2.2197,-2.2197,-2.2197,-2.2185,0.0,0.0,0.0,0.0,0.0,0.0,0.0,0.0,0.0,0.0,0.0,0.0,0.0,0.0,0.0,0.0,0.0,0.0,0.0,0.0,0.0,0.0,0.0,0.0,0.0,0.0,0.0,0.0,0.0,0.0,-1.6908,-1.6908,-1.6697,-1.6303,-1.5991,-1.5779,-1.5553,-1.4967,-1.5074,-1.5643,-1.5619,-1.5873,-1.6222,-1.6625,0.0,0.0,0.0,0.0,0.0,0.0,0.0,0.0,-1.7284,-1.7978,-1.8655,-1.8172,-1.859,-1.9264,-1.9568,-1.9732,-2.036,-2.2175,-2.1372,-2.0381,-2.1328,-2.1192,-2.178,-2.4595,0.0,-2.4634,-2.4543,-2.3832,0.0,0.0,0.0,0.0,0.0,0.0,0.0,0.0,0.0,0.0,0.0,0.0,0.0,0.0,0.0,0.0,0.0,0.0,0.0,0.0,-1.4613,-1.4759,-1.5133,-1.5133,-1.5284,0.0,-1.5578,-1.5721,-1.5928,-1.569,-1.5947,-1.6612,-1.683,-1.6908,-1.6908,-1.6908,-1.7959,-1.9465,-1.9465,-2.059,-2.2197,-2.2197,-2.2197,-2.2185,0.0,0.0,0.0,0.0,0.0,0.0,0.0,0.0,0.0,0.0,0.0,0.0,0.0,0.0,0.0,0.0,0.0,0.0,0.0,0.0,0.0,0.0,0.0,0.0,0.0,0.0,0.0,0.0,0.0,0.0,-1.6908,-1.6908,-1.6697,-1.634,-1.6872,-1.66,-1.5725,-1.6156,-1.6131,-1.5716,-1.6048,-1.6167,-1.6354,-1.7341,-1.7734,0.0,0.0,0.0,0.0,0.0,0.0,0.0,-1.7346,-1.7604,-1.8089,-1.8728,-1.8993,-1.9303,-2.0301,-2.0183,-2.0007,-2.0216,-2.0034,-2.0414,-2.3132,-2.2644,-2.2207,-2.4235,-2.4285,-2.4107,-2.4455,0.0,0.0,0.0,0.0,0.0,0.0,0.0,0.0,0.0,0.0,0.0,0.0,0.0,0.0,0.0,0.0,0.0,0.0,0.0,0.0,-1.5543,-1.5799,-1.5591,-1.476,-1.476,-1.4792,0.0,-1.4863,-1.5041,-1.54,-1.5897,-1.6412,-1.683,-1.6908,-1.6908,-1.6908,-1.6908,-1.7959,-1.9465,-1.9465,-2.059,-2.2197,-2.2197,-2.2197,-2.2197,0.0,0.0,0.0,0.0,0.0,0.0,0.0,0.0,0.0,0.0,0.0,0.0,0.0,0.0,0.0,0.0,0.0,0.0,0.0,0.0,0.0,0.0,0.0,0.0,0.0,0.0,0.0,0.0,0.0,-1.6908,-1.6908,-1.6908,-1.6798,-1.6606,-1.6835,-1.6587,-1.6001,-1.623,-1.6193,-1.601,-1.623,-1.6431,-1.6624,-1.7239,-1.7666,-1.8046,-1.8145,0.0,0.0,0.0,0.0,0.0,0.0,0.0,-1.905,-1.928,-1.9424,-1.9635,-2.0331,-2.0487,-2.0644,-2.1124,-2.1774,-2.2542,-2.3545,-2.3291,-2.3075,-2.4009,-2.4058,-2.4127,-2.4566,0.0,0.0,0.0,0.0,0.0,0.0,0.0,0.0,0.0,0.0,0.0,0.0,0.0,0.0,0.0,0.0,0.0,0.0,-1.7733,-1.7495,-1.6333,-1.651,-1.6165,-1.5204,-1.5306,-1.5251,-1.4903,-1.5062,-1.5267,-1.5468,-1.6062,-1.6457,-1.676,-1.683,-1.6968,-1.7038,-1.6968,-1.7959,-1.9661,-1.953,-2.059,-2.2197,-2.2197,-2.2197,-2.2197,0.0,0.0,0.0,0.0,0.0,0.0,0.0,0.0,0.0,0.0,0.0,0.0,0.0,0.0,0.0,0.0,0.0,0.0,0.0,0.0,0.0,0.0,0.0,0.0,0.0,0.0,0.0,0.0,-1.6908,-1.7018,-1.7291,-1.7291,-1.7291,-1.7202,-1.6867,-1.6551,-1.6395,-1.5973,-1.6037,-1.6422,-1.6422,-1.6615,-1.6908,-1.7047,-1.7461,-1.8008,-1.8144,-1.8607,-1.9075,-1.9075,0.0,0.0,0.0,0.0,-2.005,-1.9551,-1.9666,-1.9938,-2.0098,-2.0672,-2.1543,-2.2822,-2.3779,-2.4268,-2.373,-2.3584,-2.3652,-2.3945,-2.4077,-2.4247,0.0,0.0,0.0,0.0,0.0,0.0,0.0,0.0,0.0,0.0,0.0,0.0,0.0,0.0,0.0,0.0,0.0,0.0,-1.8245,-1.8644,-1.8348,-1.7157,-1.7144,-1.6797,-1.5965,-1.6286,-1.6015,-1.5315,-1.5439,-1.5573,-1.5642,-1.5988,-1.6263,-1.6542,-1.683,-1.7038,-1.7166,-1.7166,-1.822,-1.9792,-1.9727,-2.073,-2.2197,-2.2197,-2.2197,-2.2197,0.0,0.0,0.0,0.0,0.0,0.0,0.0,0.0,0.0,0.0,-1.933,0.0,0.0,0.0,0.0,0.0,0.0,0.0,0.0,0.0,0.0,0.0,0.0,0.0,0.0,0.0,0.0,0.0,-1.6908,-1.7512,-1.8779,-1.8779,-1.8703,-1.8458,-1.8258,-1.7682,-1.6798,-1.6404,-1.6459,-1.6826,-1.6826,-1.6862,-1.6978,-1.7598,-1.794,-1.8076,-1.8741,-1.9008,-1.9075,-1.9075,-1.9075,0.0,0.0,0.0,-1.9241,-1.9178,-1.9561,-2.0011,-1.9865,-2.0513,-2.1543,-2.2842,-2.2451,-2.2383,-2.4834,0.0,-2.3105,0.0,-2.4307,0.0,0.0,0.0,0.0,0.0,0.0,0.0,0.0,0.0,0.0,0.0,0.0,0.0,0.0,0.0,0.0,0.0,0.0,0.0,-1.8977,-1.9404,-1.912,-1.791,-1.8261,-1.7922,-1.6733,-1.6778,-1.6465,-1.5706,-1.5041,-1.4897,-1.527,-1.5513,-1.585,-1.6342,-1.689,-1.7166,-1.7235,-1.7969,-1.889,-1.9857,-2.0451,-2.1313,-2.2197,-2.2197,-2.2197,-2.2197,0.0,0.0,0.0,0.0,0.0,0.0,0.0,0.0,0.0,0.0,0.0,0.0,0.0,0.0,0.0,0.0,0.0,0.0,0.0,0.0,0.0,-1.6908,-1.6908,-1.6908,0.0,0.0,0.0,-1.6908,-1.6908,-1.8018,-2.0136,-2.0297,-1.9841,-1.8954,-1.9155,-1.8377,-1.6927,-1.7211,-1.7165,-1.6927,-1.7147,-1.7238,-1.7337,-1.7853,-1.8081,-1.823,-1.8626,-1.8876,-1.8942,-1.8942,-1.9008,-1.9075,-1.8808,0.0,0.0,0.0,-1.8947,-1.9324,-2.0276,-2.0517,-2.1094,-2.3603,-2.29,-2.2324,-2.5107,-2.4258,-2.3291,-2.4766,0.0,0.0,0.0,0.0,0.0,0.0,0.0,0.0,0.0,0.0,0.0,0.0,0.0,0.0,0.0,0.0,0.0,0.0,0.0,-1.908,-1.9075,-1.9328,-1.9137,-1.8664,-1.8846,-1.8438,-1.755,-1.755,-1.7139,-1.6385,-1.5621,-1.5346,-1.5551,-1.5497,-1.585,-1.6473,-1.6899,-1.7176,-1.7501,-1.824,-1.91,-2.0009,-2.0666,-2.1451,-2.2197,-2.2197,-2.2197,-2.2197,0.0,0.0,0.0,0.0,0.0,0.0,0.0,0.0,0.0,0.0,0.0,0.0,0.0,0.0,0.0,0.0,0.0,0.0,0.0,0.0,0.0,-1.6968,-1.6968,-1.6978,-1.6908,0.0,0.0,-1.6908,-1.6908,-1.8138,-2.0482,-2.0967,-2.0618,-1.9603,-1.9968,-1.9261,-1.7769,-1.7926,-1.7624,-1.7177,-1.7579,-1.7615,-1.7469,-1.8174,-1.8448,-1.8514,-1.8823,-1.8913,-1.8904,-1.8849,-1.8875,-1.8875,-1.8617,-1.8617,0.0,0.0,0.0,-1.8676,-2.033,-2.0342,-2.0615,-2.3535,-2.2812,-2.2002,0.0,0.0,-2.3203,0.0,0.0,0.0,0.0,0.0,0.0,0.0,0.0,0.0,0.0,0.0,0.0,0.0,0.0,0.0,0.0,0.0,0.0,0.0,0.0,-1.9075,-1.9075,-1.9075,-1.9075,-1.9075,-1.9075,-1.8865,-1.8307,-1.8213,-1.7977,-1.7516,-1.644,-1.5971,-1.6042,-1.5601,-1.5912,-1.6742,-1.6821,-1.7028,-1.7501,-1.8365,-1.9233,-2.002,-2.0858,-2.1651,-2.2197,-2.2197,-2.2197,-2.2197,0.0,0.0,0.0,0.0,0.0,0.0,0.0,0.0,0.0,0.0,0.0,0.0,-1.8482,-1.794,-1.7539,-1.747,0.0,0.0,0.0,0.0,0.0,-1.7166,-1.7166,0.0,-1.6908,-1.6908,-1.6908,-1.6908,-1.6908,-1.7703,-1.9219,-2.0398,-2.0913,-2.0847,-2.0885,-2.0632,-2.0028,-1.8281,-1.7644,-1.7784,-1.819,-1.7902,-1.7334,-1.8686,-1.9131,-1.9064,-1.9565,-1.9471,-1.9123,-1.8893,-1.8674,-1.8549,-1.8482,-1.8482,-1.8482,0.0,0.0,0.0,-1.9449,-1.9807,-2.0254,-2.1689,-2.1025,-2.0488,0.0,0.0,0.0,0.0,0.0,0.0,0.0,0.0,0.0,0.0,0.0,0.0,0.0,0.0,0.0,0.0,0.0,0.0,0.0,0.0,0.0,0.0,0.0,-1.9075,-1.9075,-1.9075,-1.9075,-1.9075,-1.9075,-1.9065,-1.9065,-1.8794,-1.885,-1.917,-1.7252,-1.6439,-1.6648,-1.564,-1.5903,-1.7079,-1.6742,-1.6603,-1.6811,-1.867,-1.9475,-1.9727,-2.1451,-2.2185,-2.2197,-2.2197,-2.2197,-2.2197,0.0,0.0,0.0,0.0,0.0,0.0,0.0,0.0,0.0,0.0,0.0,0.0,0.0,-1.7745,-1.7401,-1.7116,-1.6978,0.0,0.0,0.0,0.0,-1.7038,-1.7107,-1.7107,-1.6908,-1.7038,-1.7038,-1.6908,-1.6908,-1.7675,-1.9116,-1.9556,-2.0263,-2.1165,-2.1957,-2.1056,-1.9085,-1.903,-1.8219,-1.718,-1.9043,-1.916,-1.8377,-2.0052,-2.0779,-2.083,-2.043,-2.0313,-2.0246,-1.9384,-1.8917,-1.8607,-1.8279,-1.8279,-1.8347,-1.8212,-1.8144,-1.8262,-1.9134,-1.9076,-1.9141,-2.1006,-2.0068,-1.9287,-2.1592,-2.1992,-2.2012,0.0,0.0,0.0,0.0,0.0,0.0,0.0,0.0,0.0,0.0,0.0,0.0,0.0,0.0,0.0,0.0,0.0,0.0,0.0,0.0,0.0,-1.9034,-1.8451,-1.841,-1.9054,-1.9354,-1.9644,-1.9934,-1.9818,-1.9829,-1.9981,-1.8793,-1.7851,-1.7252,-1.7442,-1.7351,-1.7053,-1.8014,-1.8046,-1.7619,-1.9222,-1.9748,-1.9661,-2.1262,-2.1987,-2.2197,-2.2197,-2.2197,-2.2185,0.0,0.0,0.0,0.0,0.0,0.0,0.0,0.0,0.0,0.0,0.0,0.0,0.0,0.0,-1.7185,-1.6908,-1.6908,-1.6908,-1.6978,-1.6968,-1.6968,-1.6968,-1.7107,-1.7107,-1.6908,0.0,-1.6899,-1.6908,-1.6771,-1.7263,-1.8341,-1.891,-1.9537,-2.047,-2.1493,-2.1016,-1.9478,-1.988,-1.9226,-1.823,-2.0081,-2.0328,-1.97,-2.1293,-2.1977,-2.2095,-2.1849,-2.1689,-2.137,-2.0641,-1.9975,-1.9414,-1.8832,-1.8419,-1.8134,-1.8008,-1.8008,-1.8135,-1.8711,-1.8447,-1.8389,-1.9971,-1.9277,-1.8672,-2.04,0.0,-2.206,0.0,0.0,0.0,0.0,0.0,0.0,0.0,0.0,0.0,0.0,0.0,0.0,0.0,0.0,0.0,0.0,0.0,0.0,0.0,0.0,0.0,-1.9261,-1.8668,-1.8678,-1.9499,-1.982,-2.0203,-2.0648,-2.0659,-2.0731,-2.0886,-1.9982,-1.9087,-1.8373,-1.867,-1.8502,-1.8031,-1.9246,-1.9262,-1.8587,-1.9727,-1.9995,-1.9897,-2.1192,-2.1851,-2.2061,-2.2185,-2.2135,-2.2061,0.0,0.0,0.0,0.0,0.0,0.0,0.0,0.0,0.0,-2.0249,0.0,0.0,0.0,0.0,0.0,-1.6908,-1.6908,-1.6968,-1.7166,-1.7166,-1.7166,-1.7166,0.0,0.0,0.0,0.0,0.0,0.0,0.0,0.0,0.0,-1.8332,-1.8889,-1.8687,-1.9583,-2.0458,-2.1379,-2.0761,-2.0665,-2.0862,-2.1327,-2.1404,-2.1321,-2.2454,-2.2719,-2.2703,-2.3958,-2.3537,-2.2344,-2.273,-2.1997,-2.076,-2.0105,-1.9014,-1.8008,-1.8008,-1.8008,-1.8008,0.0,0.0,0.0,-1.8496,0.0,0.0,-1.8523,0.0,-2.2305,0.0,0.0,0.0,0.0,0.0,0.0,0.0,0.0,0.0,0.0,0.0,0.0,0.0,0.0,0.0,0.0,0.0,0.0,0.0,0.0,-1.9282,-1.9827,-1.9848,-1.9986,-2.0431,-2.0441,-2.0669,-2.1135,-2.1135,-2.1362,-2.1807,-2.0581,-2.0062,-1.9958,-1.9251,-1.9268,-1.9971,-2.0359,-2.0155,-1.9518,-2.0142,-2.0364,-2.0379,-2.1376,-2.1686,-2.1737,-2.2085,-2.2073,-2.1874,0.0,0.0,0.0,0.0,0.0,0.0,0.0,0.0,-2.0829,0.0,0.0,0.0,-1.8008,-1.7323,-1.6908,-1.6908,-1.6908,-1.6899,-1.6968,-1.6968,-1.6968,-1.6968,-1.7097,-1.7107,0.0,0.0,0.0,0.0,0.0,0.0,0.0,0.0,0.0,0.0,-1.8256,-1.8972,-1.9521,-2.0596,-2.0025,-1.8648,-2.2193,-2.2428,-2.1056,-2.3506,-2.4336,-2.4203,-2.4716,-2.4686,-2.4206,-2.3493,-2.2526,-2.1271,-1.9727,-1.8685,-1.8008,-1.8008,-1.8008,-1.8008,-1.8008,0.0,0.0,0.0,0.0,0.0,0.0,0.0,0.0,0.0,0.0,0.0,0.0,0.0,0.0,0.0,0.0,0.0,0.0,0.0,0.0,0.0,0.0,0.0,0.0,0.0,0.0,0.0,-1.9204,-1.9359,-2.0203,-2.0245,-2.0452,-2.0907,-2.0928,-2.1145,-2.1611,-2.1621,-2.1683,-2.1807,-2.1445,-2.0813,-2.0053,-2.1002,-2.1059,-2.0457,-2.1765,-2.2219,-2.1924,-2.142,-2.1075,-2.0882,-2.1677,-2.2019,-2.2022,-2.2087,-2.1992,-2.1871,0.0,0.0,0.0,0.0,0.0,0.0,0.0,-2.223,-2.1182,0.0,0.0,0.0,-1.7598,-1.7185,-1.6908,-1.6908,-1.6908,-1.6908,-1.6908,-1.6908,-1.6908,-1.6908,-1.7038,-1.7038,0.0,0.0,0.0,0.0,0.0,0.0,0.0,0.0,0.0,0.0,0.0,-1.8118,-1.8529,-2.0194,-2.0372,-1.9674,-2.2349,0.0,0.0,-2.4741,-2.5526,0.0,0.0,0.0,-2.568,-2.5154,-2.3574,-2.1669,-2.0827,-1.9364,-1.8115,-1.8652,-1.8428,-1.7969,-1.7793,-1.7568,-1.7344,-1.7158,0.0,0.0,-1.7419,-1.913,0.0,0.0,0.0,0.0,0.0,0.0,0.0,0.0,0.0,0.0,0.0,0.0,0.0,0.0,0.0,0.0,0.0,0.0,0.0,-2.1054,-2.0725,-2.0705,-2.1172,-2.1264,-2.1343,-2.1393,-2.1404,-2.1538,-2.1807,-2.1807,-2.1807,-2.1807,-2.1807,-2.1425,-2.0793,-2.1824,-2.1943,-2.1383,-2.2424,-2.2927,-2.2957,-2.24,-2.1897,-2.1538,-2.1845,-2.2003,-2.2014,-2.2014,-2.2228,-2.2474,0.0,0.0,0.0,0.0,0.0,0.0,0.0,0.0,-2.1855,0.0,-1.8714,-1.7666,-1.6978,-1.6908,-1.6908,-1.6908,-1.6908,-1.6908,-1.6908,-1.6908,-1.6908,-1.6908,-1.6908,-1.6908,-1.6908,0.0,0.0,0.0,0.0,0.0,0.0,0.0,0.0,0.0,0.0,0.0,-1.8154,-1.9653,-2.1007,-2.2167,-2.2275,-2.3568,0.0,0.0,-2.634,-2.6774,-2.7917,-2.7604,-2.6794,-2.6878,-2.4746,0.0,0.0,0.0,-1.8477,-1.9424,-1.8936,-1.7978,-1.751,-1.7344,-1.7207,-1.6768,-1.7227,0.0,-1.755,-1.9813,-2.1989,0.0,0.0,0.0,0.0,0.0,0.0,0.0,0.0,0.0,0.0,0.0,0.0,0.0,0.0,0.0,0.0,-2.2416,-2.2101,-2.2832,-2.289,-2.2776,-2.2396,-2.254,-2.2375,-2.1797,-2.1807,-2.1807,-2.1807,-2.1807,-2.1807,-2.1807,-2.1807,-2.1807,-2.1807,-2.2035,-2.2252,-2.2402,-2.2628,-2.2852,-2.3001,-2.3001,-2.2761,-2.2357,-2.2039,-2.1901,-2.1856,-2.1973,-2.2594,-2.3411,-2.6213,0.0,0.0,0.0,0.0,0.0,0.0,0.0,-2.0663,-1.9951,-1.8556,-1.7392,-1.6978,-1.6908,-1.6908,-1.6908,-1.6908,-1.6908,-1.6908,-1.6908,-1.6908,-1.6908,-1.6908,-1.6908,-1.6908,-1.6835,0.0,0.0,0.0,0.0,0.0,0.0,0.0,0.0,0.0,0.0,0.0,0.0,0.0,-2.1381,-2.3044,-2.4098,-2.473,-2.6014,-2.6467,-2.6633,-2.7914,-2.7904,-2.711,-2.6488,-2.4928,-2.3212,0.0,0.0,0.0,-1.8913,-1.8577,-1.835,-1.7588,-1.7129,-1.6748,0.0,-1.6318,0.0,-1.6787,-1.7889,-1.918,0.0,0.0,0.0,0.0,0.0,0.0,0.0,0.0,0.0,0.0,0.0,0.0,0.0,0.0,0.0,0.0,-2.3293,-2.3155,-2.3283,-2.3663,-2.3591,-2.2922,-2.2922,-2.2606,-2.1807,-2.1807,-2.1807,-2.1807,-2.1807,-2.1807,-2.1807,-2.1807,-2.1807,-2.1807,-2.2176,-2.2327,-2.2402,-2.2777,-2.2927,-2.3001,-2.3001,-2.2947,-2.2859,-2.2613,-2.2426,-2.2171,-2.2006,-2.2498,-2.3416,-2.6213,0.0,0.0,0.0,0.0,0.0,0.0,0.0,-2.0765,-2.0206,-1.8923,-1.7913,-1.7554,-1.7537,-1.7513,-1.7513,-1.7513,-1.7422,-1.7211,-1.7202,-1.711,-1.6917,-1.6908,-1.6978,-1.7185,-1.7185,0.0,0.0,0.0,0.0,0.0,0.0,0.0,0.0,0.0,0.0,0.0,0.0,-1.9636,-2.1004,-2.2379,0.0,-2.4888,-2.6248,-2.6865,-2.713,-2.8015,-2.7849,-2.7058,-2.6073,-2.4874,0.0,-2.3031,-2.1774,-2.0477,0.0,-1.9046,-1.8339,0.0,0.0,0.0,-1.6172,0.0,0.0,0.0,-1.8973,-2.0229,-2.1188,0.0,0.0,0.0,0.0,0.0,0.0,0.0,0.0,0.0,0.0,0.0,0.0,0.0,0.0,0.0,-2.4612,-2.4493,-2.4699,-2.4929,-2.4759,-2.3874,-2.3544,-2.3034,-2.2241,-2.1975,-2.1807,-2.1807,-2.1807,-2.1807,-2.1807,-2.1807,-2.1807,-2.1807,-2.2101,-2.2327,-2.2402,-2.2703,-2.2927,-2.3001,-2.3001,-2.3001,-2.3001,-2.2703,-2.2563,-2.2505,-2.2546,-2.3296,-2.4494,-2.627,-2.6396,0.0,0.0,0.0,0.0,0.0,0.0,-2.1047,-2.0278,-1.9402,-1.8831,-1.8727,-1.8685,-1.8638,-1.8872,-1.8881,-1.8564,-1.7907,-1.8018,-1.786,-1.7165,-1.7134,-1.7306,-1.7593,-1.7577,-1.7735,0.0,0.0,0.0,0.0,0.0,0.0,0.0,0.0,0.0,-2.077,0.0,0.0,-2.1507,0.0,-2.333,-2.4883,-2.6435,-2.7187,-2.7594,-2.7988,-2.7617,-2.6699,-2.5592,-2.4536,-2.3789,-2.3799,-2.2314,0.0,0.0,0.0,0.0,0.0,0.0,0.0,0.0,0.0,-1.7801,0.0,0.0,0.0,0.0,0.0,0.0,0.0,0.0,0.0,0.0,0.0,0.0,0.0,0.0,0.0,0.0,0.0,0.0,0.0,-2.5425,-2.5425,-2.6108,-2.6138,-2.5711,-2.4756,-2.4318,-2.3711,-2.2943,-2.2328,-2.2035,-2.2035,-2.1883,-2.1807,-2.1807,-2.1807,-2.1807,-2.1807,-2.2025,-2.2176,-2.2402,-2.2628,-2.2777,-2.3001,-2.3001,-2.3001,-2.2927,-2.2628,-2.2553,-2.2777,-2.3084,-2.4158,-2.5521,-2.6465,-2.6465,-2.6533,0.0,0.0,0.0,0.0,0.0,-2.0278,-1.9403,-1.9625,-2.0119,-2.0953,-2.0682,-2.0713,-2.1575,-2.1644,-2.0975,-1.9326,-1.9953,-1.9703,-1.8036,-1.7993,-1.801,-1.801,-1.7996,-1.794,0.0,0.0,0.0,0.0,0.0,0.0,0.0,-2.2738,0.0,-2.2359,0.0,-2.299,0.0,-2.3967,-2.385,0.0,-2.6182,-2.6908,-2.6932,-2.7545,-2.7187,-2.626,0.0,-2.418,-2.3535,0.0,-2.1273,-2.0497,-1.99,0.0,0.0,0.0,0.0,0.0,0.0,-1.7171,0.0,0.0,0.0,-2.1314,-2.1619,0.0,0.0,0.0,0.0,0.0,0.0,0.0,0.0,0.0,0.0,0.0,0.0,0.0,0.0,0.0,0.0,-2.5026,-2.6332,-2.6222,-2.5854,-2.5235,-2.518,-2.4767,-2.3956,-2.3243,-2.2852,-2.2852,-2.2176,-2.1807,-2.1807,-2.1807,-2.1807,-2.1807,-2.2025,-2.2176,-2.2402,-2.2628,-2.2777,-2.3001,-2.3001,-2.3001,-2.3001,-2.2777,-2.2703,-2.2767,-2.3316,-2.423,-2.5368,-2.6321,-2.6094,-2.5955,0.0,0.0,0.0,0.0,0.0,0.0,-1.9775,-2.0018,-2.0564,-2.1297,-2.1336,-2.1803,-2.2988,-2.3084,-2.2834,-2.2207,-2.1549,-2.0933,-2.0407,-1.8963,-1.8591,-1.9521,-1.8686,-1.8534,-1.9059,-1.9579,0.0,0.0,0.0,0.0,0.0,-2.3373,0.0,-2.4093,0.0,-2.3509,0.0,0.0,0.0,0.0,-2.5858,-2.6643,-2.6398,-2.5838,-2.5604,-2.5352,0.0,-2.3565,0.0,0.0,0.0,0.0,-2.0683,0.0,0.0,0.0,0.0,0.0,0.0,0.0,0.0,-2.1571,0.0,-2.2274,0.0,0.0,0.0,0.0,0.0,0.0,0.0,-2.0496,0.0,0.0,0.0,0.0,0.0,0.0,0.0,0.0,0.0,0.0,0.0,0.0,-2.5192,-2.4378,-2.4946,-2.4874,-2.3967,-2.3341,-2.2777,-2.2327,-2.1959,-2.1807,-2.1807,-2.1807,-2.1731,-2.1655,-2.1959,-2.2101,-2.2111,-2.2478,-2.2777,-2.2852,-2.2927,-2.3001,-2.3001,-2.3412,-2.3276,-2.299,-2.4036,-2.4803,-2.5542,-2.5648,-2.5523,-2.5382,-2.5804,0.0,0.0,0.0,0.0,0.0,-2.0998,-2.1318,-2.191,-2.2754,-2.258,-2.3038,-2.4648,-2.4785,-2.4692,-2.4615,-2.3232,-2.2719,-2.3207,-2.034,-1.9614,-2.137,-1.9747,-1.9162,-1.9902,0.0,0.0,0.0,0.0,0.0,0.0,0.0,-2.4454,-2.5206,0.0,-2.4777,-2.4984,-2.4348,-2.3914,-2.3839,-2.5356,-2.6016,-2.5859,-2.4775,-2.4638,-2.46,-2.2867,-2.2957,0.0,-2.2314,0.0,0.0,0.0,0.0,0.0,-2.0495,0.0,0.0,0.0,0.0,0.0,0.0,0.0,0.0,0.0,0.0,0.0,0.0,0.0,-2.1302,-2.1118,0.0,-1.9978,0.0,0.0,0.0,0.0,0.0,0.0,0.0,0.0,0.0,0.0,-2.4664,-2.4725,-2.3949,-2.4975,-2.5259,-2.456,-2.3948,-2.335,-2.2756,-2.2317,-2.2101,-2.2101,-2.1883,-2.1731,-2.1578,-2.1873,-2.1959,-2.1883,-2.2402,-2.2628,-2.2703,-2.2927,-2.3001,-2.3065,-2.3841,-2.3768,-2.3486,-2.4909,-2.5533,-2.5877,-2.4192,-2.4779,-2.5087,-2.4337,0.0,0.0,0.0,0.0,0.0,0.0,-2.3808,-2.4944,-2.6259,-2.4917,-2.4778,-2.7024,-2.722,-2.6835,-2.601,-2.5431,-2.5511,-2.6178,-2.25,-2.1336,-2.3372,-2.1007,-1.986,0.0,0.0,0.0,0.0,0.0,0.0,0.0,0.0,-2.5,-2.5518,-2.7058,-2.755,-2.7338,-2.7384,-2.6472,-2.5045,0.0,-2.4923,-2.5107,-2.5049,0.0,0.0,-2.293,-2.2529,0.0,0.0,0.0,0.0,0.0,0.0,0.0,0.0,0.0,0.0,-2.1745,0.0,0.0,0.0,0.0,-2.3688,0.0,0.0,0.0,0.0,-2.2228,-2.1407,-2.1118,-2.0591,0.0,0.0,0.0,0.0,0.0,0.0,0.0,0.0,0.0,0.0,-2.4307,-2.4632,-2.4816,-2.4771,-2.5837,-2.6452,-2.6427,-2.5652,-2.5229,-2.5158,-2.3717,-2.2927,-2.2927,-2.2176,-2.1807,-2.1807,-2.1807,-2.1883,-2.2101,-2.2327,-2.2553,-2.2703,-2.2927,-2.3001,-2.3065,-2.3841,-2.412,-2.4253,-2.5767,-2.6346,-2.6476,-2.3472,-2.357,-2.3863,-2.4047,-2.3317,0.0,0.0,-2.2316,0.0,0.0,-2.5037,0.0,0.0,-2.7348,-2.7243,-2.7567,-2.8208,-2.861,-2.8796,-2.8105,-2.8355,-2.9877,-2.6945,-2.5405,-2.5509,-2.3711,-2.2318,0.0,0.0,0.0,0.0,0.0,0.0,0.0,0.0,-2.4921,0.0,0.0,0.0,0.0,0.0,-2.4782,-2.3838,0.0,0.0,-2.4189,-2.3896,-2.3701,0.0,-2.2432,-2.2471,-2.2889,-2.2827,-2.2775,-2.3002,-2.4495,-2.4353,0.0,0.0,0.0,-2.6225,-2.596,0.0,0.0,0.0,0.0,0.0,0.0,0.0,0.0,0.0,-2.1459,-2.0899,-2.0746,-2.0412,-2.0131,0.0,0.0,0.0,0.0,0.0,0.0,0.0,0.0,0.0,-2.2889,-2.3232,-2.3244,0.0,-2.4759,-2.551,-2.4591,-2.5078,-2.5004,-2.4492,-2.3497,-2.3001,-2.3001,-2.2176,-2.1731,-2.1578,-2.1731,-2.1731,-2.1731,-2.2035,-2.2327,-2.2553,-2.2703,-2.3202,-2.3841,-2.4576,-2.5205,-2.5697,-2.6208,-2.6414,-2.6425,-2.2735,-2.2692,-2.294,-2.3444,-2.3246,0.0,0.0,0.0,0.0,0.0,-2.6948,0.0,-2.9412,0.0,-2.9143,0.0,-2.9415,-2.9985,-3.1227,-2.9498,0.0,-3.2721,-2.9526,-2.7823,-2.8151,-2.6019,-2.455,0.0,0.0,-2.272,0.0,0.0,0.0,0.0,0.0,-2.4501,-2.5617,-2.6764,-2.7302,0.0,0.0,-2.5045,0.0,0.0,-2.4316,-2.3525,0.0,-2.3135,-2.3057,-2.2934,-2.3188,-2.3634,-2.4043,-2.4356,-2.487,-2.5986,-2.6052,-2.5981,-2.6937,-2.7811,0.0,-2.8333,-2.8113,0.0,-2.7211,0.0,0.0,0.0,0.0,0.0,0.0,0.0,-2.1146,-2.0589,-2.0347,-2.0131,0.0,-1.975,0.0,0.0,0.0,0.0,0.0,0.0,-2.1786,-2.1861,-2.2489,-2.259,0.0,0.0,-2.5224,-2.4335,-2.52,-2.5441,-2.4992,-2.3913,-2.3423,-2.335,-2.2317,-2.1731,-2.1578,-2.1731,-2.1731,-2.1655,-2.1959,-2.2176,-2.2327,-2.2628,-2.3191,-2.4108,-2.4933,-2.5721,-2.6414,-2.6701,-2.6777,-2.667,-2.2014,-2.2232,-2.2563,0.0,-2.3329,0.0,0.0,0.0,-2.7839,0.0,-2.9613,-3.0247,-3.1702,-3.0798,-3.0496,-3.1573,-3.0859,-3.1042,-3.3024,-2.994,0.0,0.0,-3.0383,-2.8905,-3.1162,0.0,-2.6529,-2.7174,0.0,0.0,0.0,0.0,0.0,0.0,-2.348,0.0,-2.4472,-2.7176,-2.7939,-2.7323,-2.7094,-2.7096,-2.7097,-2.6105,0.0,-2.3222,-2.3222,-2.3222,-2.3387,-2.4241,-2.4584,-2.4744,-2.5579,-2.6505,-2.7185,-2.7267,-2.8155,-2.9131,-2.9131,-2.9419,-2.9606,-2.8851,0.0,0.0,0.0,0.0,-2.7327,0.0,0.0,0.0,0.0,0.0,-2.1994,-2.0784,-2.0386,-2.0118,-1.985,0.0,0.0,0.0,0.0,0.0,0.0,-2.2241,-2.1987,-2.1368,-2.2367,-2.2788,0.0,0.0,0.0,-2.5548,-2.6063,-2.6445,-2.6533,-2.4874,-2.4135,-2.4108,-2.2606,-2.1883,-2.1883,-2.1807,-2.1807,-2.1873,-2.2025,-2.2176,-2.2241,-2.2628,-2.3191,-2.4036,-2.5004,-2.5791,-2.6552,-2.7255,-2.7354,-2.708,-2.2439,-2.2967,-2.3525,0.0,-2.4281,-2.5086,0.0,0.0,0.0,0.0,-3.1561,-3.2536,-3.2757,-3.3243,-3.2724,-3.0744,-3.0903,0.0,0.0,0.0,0.0,-3.5879,-3.478,-3.3429,-3.1988,-3.1088,-2.9658,-2.7865,0.0,0.0,-2.5561,0.0,0.0,0.0,0.0,0.0,-2.4382,-2.6968,-2.8143,-2.8145,-2.6716,-2.6105,0.0,0.0,-2.5579,-2.5073,-2.5073,-2.5073,-2.5158,-2.5411,-2.5495,-2.5663,-2.6588,-2.701,-2.7429,-2.8315,-2.8803,-2.9209,-2.9896,-3.0126,-3.0291,-3.0384,-2.9744,-2.9041,0.0,0.0,0.0,0.0,0.0,0.0,0.0,0.0,0.0,-2.1822,-2.0797,-2.008,-2.0067,0.0,0.0,-2.0809,0.0,0.0,0.0,-2.148,-2.1433,-2.1446,-2.1745,0.0,0.0,0.0,0.0,-2.5008,-2.477,-2.5222,-2.6521,-2.4643,-2.4151,-2.4933,-2.3423,-2.2703,-2.2703,-2.2101,-2.2155,-2.2798,-2.2166,-2.282,-2.4181,-2.3526,-2.4253,-2.5767,-2.6,-2.6688,-2.7443,-2.7643,-2.7207,-2.6507,-2.2625,-2.3246,0.0,-2.4608,0.0,0.0,-2.7512,-2.9015,0.0,-3.2297,-3.3393,0.0,-3.4495,-3.5095,-3.4783,-3.3092,-3.25,0.0,-3.374,0.0,0.0,-3.627,-3.5906,-3.4801,-3.2993,-3.2717,0.0,-2.9905,0.0,0.0,-2.664,0.0,0.0,0.0,0.0,-2.355,-2.4262,-2.7063,-2.8593,-2.9145,-2.8142,0.0,0.0,-2.7252,-2.7092,-2.6999,-2.6999,-2.6494,-2.5819,-2.6246,-2.6423,-2.6588,-2.751,-2.7926,-2.8155,-2.8895,-2.9365,-2.9691,-2.991,-3.0147,-3.0245,-3.0233,-2.9758,-2.9274,-2.9274,-2.8516,-2.7654,0.0,0.0,0.0,0.0,0.0,0.0,-2.1508,-2.0656,-2.0131,0.0,0.0,0.0,0.0,-2.122,0.0,0.0,-2.1062,-2.1056,-2.1237,0.0,0.0,0.0,0.0,0.0,-2.4456,-2.4393,-2.4682,-2.5372,-2.3762,-2.3478,-2.4534,-2.3336,-2.3,-2.3486,-2.3117,-2.3243,-2.3672,-2.3243,-2.3734,-2.4815,-2.4385,-2.4957,-2.6346,-2.6688,-2.7242,-2.7749,-2.7577,-2.7189,-2.6765,-2.2832,-2.337,0.0,0.0,0.0,0.0,0.0,-3.105,0.0,-3.4546,0.0,-3.524,-3.6056,-3.627,-3.6307,-3.6157,0.0,-3.411,-3.6019,-3.3432,-3.3181,-3.6232,-3.5378,-3.4575,-3.4022,-3.347,-3.2905,0.0,0.0,0.0,0.0,0.0,0.0,0.0,0.0,0.0,0.0,-2.7239,-2.8991,-3.0074,-3.0013,-2.9941,-2.9785,-2.8931,-2.857,-2.851,-2.851,-2.7499,-2.6246,-2.7092,-2.7348,-2.751,-2.8339,-2.8816,-2.9118,-2.9123,-2.9718,-3.0138,-2.9648,-2.9727,-2.9902,-2.9405,-2.9274,-2.9274,-2.9274,-2.9222,-2.9013,-2.849,-2.832,0.0,0.0,0.0,0.0,-2.0849,0.0,0.0,0.0,0.0,0.0,0.0,0.0,0.0,0.0,0.0,0.0,0.0,0.0,0.0,0.0,0.0,0.0,0.0,-2.4431,0.0,-2.4205,0.0,-2.2778,-2.3972,-2.308,-2.3202,-2.4325,-2.4337,-2.448,-2.4624,-2.4672,-2.4815,-2.5028,-2.5098,-2.5603,-2.6333,-2.7175,-2.7617,-2.7683,-2.7336,-2.722,-2.7166,-2.367,-2.4064,0.0,0.0,0.0,-2.9658,-3.2269,-3.3563,-3.4338,-3.4698,-3.5537,-3.5805,-3.509,-3.5818,-3.5994,-3.509,-3.465,0.0,0.0,0.0,0.0,-3.6295,-3.5742,-3.514,-3.4587,-3.4035,-3.3483,0.0,0.0,0.0,0.0,0.0,0.0,0.0,0.0,0.0,-2.7031,-2.7152,0.0,-3.005,-2.9617,-2.9172,-2.8823,-2.9063,-2.8895,-2.851,-2.851,-2.8259,-2.8087,-2.8259,-2.8259,-2.8339,-2.8816,-2.9052,-2.9123,-2.9353,-2.9527,-2.9622,-2.9359,-2.936,-2.9405,-2.9301,-2.9274,-2.9274,-2.9274,-2.8895,-2.8503,-2.8399,-2.8007,-2.7589,-2.7288,0.0,0.0,0.0,0.0,0.0,0.0,0.0,0.0,0.0,0.0,-2.165,0.0,0.0,0.0,0.0,0.0,0.0,0.0,0.0,0.0,0.0,0.0,0.0,0.0,0.0,0.0,-2.5934,-2.4256,-2.4118,-2.5346,-2.4696,-2.4838,-2.5533,-2.4957,-2.5533,-2.6837,-2.6183,-2.6471,-2.7242,-2.7456,-2.7446,-2.7282,-2.7253,-2.6773,-2.6126,-2.5412,0.0,0.0,0.0,0.0,0.0,0.0,-3.4607,0.0,-3.5549,-3.6031,-3.6157,-3.5629,-3.6044,-3.6144,-3.5617,-3.5052,-3.4964,-3.5529,-3.4776,-3.4788,-3.5893,-3.5416,-3.4726,-3.3884,-3.3884,-3.3483,-3.2629,0.0,0.0,0.0,0.0,0.0,0.0,0.0,-2.5402,0.0,0.0,0.0,-2.9677,-2.9701,-2.9388,-2.8943,-2.9208,-2.8967,-2.851,-2.851,-2.851,-2.851,-2.851,-2.851,-2.8542,-2.8655,-2.8867,-2.8986,-2.902,-2.9233,-2.9333,-2.8974,-2.8817,-2.8739,-2.8438,-2.8373,-2.8373,-2.8373,-2.8137,-2.7941,-2.7941,-2.7719,-2.7353,-2.6752,-2.5595,0.0,0.0,0.0,0.0,0.0,0.0,-2.1799,0.0,0.0,0.0,0.0,0.0,0.0,0.0,0.0,0.0,0.0,0.0,0.0,0.0,0.0,0.0,0.0,0.0,0.0,-2.5851,-2.4956,-2.5149,-2.6289,-2.6057,-2.6126,-2.6539,-2.6252,-2.6607,-2.7403,-2.6973,-2.7108,-2.7497,-2.7262,-2.7182,-2.7133,-2.6583,-2.6163,-2.5887,0.0,-2.6909,0.0,0.0,-3.0688,0.0,-3.3608,-3.5052,-3.6094,-3.6332,-3.6358,-3.6358,-3.6358,-3.6358,-3.6219,-3.5868,-3.5265,-3.5014,-3.529,-3.4537,-3.4361,-3.4989,-3.4713,-3.4135,-3.3269,-3.3645,-3.3368,0.0,0.0,0.0,0.0,0.0,0.0,0.0,0.0,0.0,0.0,0.0,-2.9256,-2.9496,-2.9797,-2.9677,-2.928,-2.9172,-2.8871,-2.851,-2.851,-2.851,-2.8498,-2.8457,-2.85,-2.8427,-2.8455,-2.8624,-2.8785,-2.8638,-2.8853,-2.8961,-2.836,-2.8203,-2.8085,-2.7641,-2.7523,-2.7523,-2.7523,-2.7523,-2.7523,-2.7523,-2.7523,-2.7249,-2.636,-2.5842,0.0,0.0,0.0,0.0,0.0,0.0,0.0,0.0,0.0,0.0,-2.1984,0.0,0.0,0.0,0.0,0.0,0.0,0.0,0.0,0.0,0.0,-2.3603,-2.4448,0.0,-2.4307,0.0,-2.5422,-2.5909,-2.7079,-2.7214,-2.7268,-2.7335,-2.7469,-2.7523,-2.7523,-2.7523,-2.7523,-2.7471,-2.7091,-2.6916,-2.6894,-2.5949,-2.5643,-2.5724,0.0,0.0,0.0,0.0,0.0,0.0,0.0,-3.5378,-3.5228,-3.6232,-3.6358,-3.6358,-3.6358,-3.6358,-3.5755,-3.4261,-3.4951,-3.4437,-3.2014,-3.3608,-3.4248,-3.3345,-3.3734,-3.3922,-3.3822,-3.3543,-3.3424,0.0,0.0,-3.0316,0.0,0.0,0.0,0.0,0.0,0.0,0.0,-2.8452,-2.9136,-2.9977,-2.9544,-2.934,-2.9244,-2.8775,-2.8546,-2.851,-2.851,-2.851,-2.8518,-2.8334,-2.8329,-2.8393,-2.8712,-2.871,-2.8626,-2.8482,-2.8464,-2.8333,-2.7771,-2.7602,-2.7589,-2.7536,-2.7523,-2.7523,-2.7523,-2.7523,-2.7523,-2.7523,-2.7523,-2.7497,-2.7392,-2.6453,-2.5322,0.0,0.0,0.0,0.0,0.0,-2.1703,-2.1759,0.0,0.0,0.0,0.0,0.0,0.0,0.0,0.0,0.0,0.0,0.0,-2.3352,0.0,-2.3005,-2.4238,-2.373,0.0,-2.6845,-2.5677,-2.5896,-2.7268,-2.7079,-2.7146,-2.7335,-2.7469,-2.7523,-2.7523,-2.7523,-2.7523,-2.7471,-2.7091,-2.6665,-2.6307,-2.5788,-2.5387,-2.5225,0.0,0.0,0.0,0.0,0.0,0.0,0.0,-3.4575,-3.4876,-3.5316,-3.5667,-3.5742,-3.5416,-3.5378,-3.5115,-3.4449,-3.4801,-3.4575,-3.3458,-3.3922,-3.4035,-3.3583,-3.3631,-3.3568,-3.3407,-3.3439,-3.3313,0.0,0.0,0.0,0.0,0.0,0.0,0.0,0.0,-2.7859,-2.8458,-2.8843,-2.9232,-2.9569,-2.9039,-2.8823,-2.8799,-2.8595,-2.851,-2.851,-2.8736,-2.8895,-2.8821,-2.8733,-2.8472,-2.8285,-2.822,-2.8142,-2.8062,-2.7897,-2.7863,-2.7824,-2.7589,-2.7523,-2.7523,-2.7523,-2.7523,-2.7523,-2.7523,-2.7523,-2.7523,-2.7523,-2.7523,-2.7523,-2.7523,-2.7091,-2.6272,0.0,0.0,0.0,0.0,0.0,0.0,-2.3462,0.0,-2.2867,0.0,0.0,0.0,0.0,0.0,0.0,0.0,0.0,0.0,-2.3518,0.0,-2.4141,-2.6142,-2.5202,-2.5613,-2.7268,-2.6802,-2.6815,-2.7403,-2.7268,-2.7214,-2.7335,-2.7469,-2.7523,-2.7523,-2.7523,-2.7327,-2.7078,-2.6691,-2.6294,-2.5828,-2.5414,-2.5641,-2.6442,-3.0652,0.0,-3.0955,0.0,-3.266,-3.3258,-3.2946,-3.3833,-3.4472,-3.3984,-3.4535,-3.4977,-3.4751,-3.4726,-3.4525,-3.4035,-3.4286,-3.4135,-3.3332,-3.3595,-3.3595,-3.3169,-3.3351,0.0,-3.3154,-3.3398,-3.3484,-3.3411,-3.1978,0.0,0.0,0.0,0.0,0.0,-2.809,-2.8609,-2.8828,-2.9137,-2.9226,-2.9189,-2.8735,-2.851,-2.851,-2.851,-2.8493,-2.8506,-2.8741,-2.8864,-2.8795,-2.8637,-2.8374,-2.8089,-2.7888,-2.7741,-2.7662,-2.752,-2.7523,-2.7523,-2.7523,-2.7523,-2.7523,-2.7523,-2.7523,-2.7523,-2.7523,-2.7523,-2.7523,-2.7523,-2.7523,-2.7523,-2.7523,-2.7403,-2.6959,-2.5741,0.0,0.0,0.0,0.0,0.0,0.0,-2.3399,-2.316,-2.428,0.0,0.0,0.0,0.0,0.0,0.0,0.0,0.0,0.0,0.0,0.0,0.0,-2.5506,-2.5844,-2.7523,-2.7469,-2.7469,-2.7523,-2.7335,-2.7268,-2.7268,-2.7335,-2.7403,-2.7469,-2.7469,-2.7249,-2.6865,-2.6521,-2.6056,-2.5612,-2.5641,-2.6232,-2.7326,-3.0902,-3.2147,-3.3174,-3.3174,-3.3592,-3.367,-3.2598,-3.3566,-3.3804,-3.2262,-3.3158,-3.4123,-3.4663,-3.4726,-3.4048,-3.239,-3.3269,-3.2754,-3.003,-3.2124,-3.2819,0.0,0.0,-3.3398,-3.3398,-3.3556,-3.381,-3.4076,0.0,0.0,-3.1468,0.0,-2.941,-2.8888,-2.9845,-3.0086,-2.9626,-2.9287,-2.9064,-2.9064,-2.8669,-2.851,-2.851,-2.851,-2.8421,-2.8332,-2.8332,-2.8201,-2.8009,-2.785,-2.7812,-2.7812,-2.78,-2.7666,-2.7469,-2.7523,-2.7523,-2.7523,-2.7523,-2.7523,-2.7523,-2.7523,-2.7523,-2.7523,-2.7523,-2.7523,-2.7523,-2.7523,-2.7523,-2.7523,-2.7523,-2.7523,-2.7091,-2.5831,0.0,0.0,0.0,0.0,0.0,-2.315,-2.2426,-2.2298,-2.3314,0.0,0.0,0.0,0.0,0.0,0.0,0.0,0.0,-2.1771,-2.0545,0.0,-2.37,-2.37,-2.5016,-2.7523,-2.7403,-2.7403,-2.7523,-2.7335,-2.7268,-2.7268,-2.7079,-2.7146,-2.7335,-2.7469,-2.7249,-2.6865,-2.6583,-2.6116,-2.5711,-2.6708,-2.71,-2.7438,-3.0158,-3.1307,-3.2347,-3.2055,-3.2523,-3.2769,-3.2425,-3.2771,-3.2808,-3.2389,-3.2611,-3.2971,-3.3144,-3.3433,-3.3382,0.0,-3.2428,-3.2223,0.0,-3.2295,-3.2517,-3.2911,-3.2803,-3.2598,-3.2421,-3.2667,-3.2568,-3.2127,0.0,0.0,0.0,-3.0348,-3.0086,-2.9859,-2.9764,-2.958,-2.9484,-2.8882,-2.8669,-2.8633,-2.8426,-2.8358,-2.8387,-2.8223,-2.8126,-2.8114,-2.8422,-2.8442,-2.8418,-2.8221,-2.8179,-2.8114,-2.7738,-2.7546,-2.7523,-2.7523,-2.7523,-2.7523,-2.7523,-2.7523,-2.7523,-2.7523,-2.7523,-2.7523,-2.7523,-2.7523,-2.7523,-2.7523,-2.7523,-2.7523,-2.7523,-2.7523,-2.7091,-2.5944,0.0,0.0,0.0,0.0,0.0,-2.428,-2.3362,-2.317,0.0,-2.3624,0.0,0.0,0.0,0.0,0.0,0.0,0.0,0.0,-2.3885,0.0,-2.6284,-2.5454,-2.5831,-2.7523,-2.7469,-2.7403,-2.7403,-2.7403,-2.7403,-2.7268,-2.7335,-2.7403,-2.7469,-2.7656,-2.7459,-2.7083,-2.6658,-2.6827,-2.7225,-2.7145,-2.8242,-2.9879,-3.0639,-3.1246,-3.184,-3.1748,-3.1981,-3.2166,-3.1835,-3.213,-3.224,-3.1822,-3.2302,-3.2649,-3.2649,-3.3068,0.0,-3.3081,-3.2428,-3.2483,-3.3433,-3.2989,-3.2905,-3.3476,-3.3066,-3.2681,-3.238,0.0,0.0,-3.2032,-3.2249,-3.1836,-3.0826,-3.059,-3.0384,-3.019,-2.9819,-2.9741,-2.9729,-2.9142,-2.8901,-2.8864,-2.8373,-2.8163,-2.8188,-2.8063,-2.7946,-2.7999,-2.8214,-2.8286,-2.8182,-2.8108,-2.8059,-2.8007,-2.7641,-2.7523,-2.7523,-2.7523,-2.7523,-2.7523,-2.7523,-2.7523,-2.7523,-2.7523,-2.7523,-2.7523,-2.7523,-2.7523,-2.7523,-2.7523,-2.7523,-2.7523,-2.7523,-2.7523,-2.7301,-2.6582,-2.6934,-2.7022,-2.6168,0.0,0.0,0.0,0.0,0.0,0.0,-2.4542,0.0,0.0,0.0,0.0,0.0,0.0,0.0,-2.4579,-2.4803,0.0,-2.6792,-2.6024,-2.6245,-2.7523,-2.7523,-2.7469,-2.7403,-2.7403,-2.7403,-2.7268,-2.7403,-2.7469,-2.7523,-2.7802,-2.7835,-2.7686,-2.7489,-2.7816,-2.8452,-2.8612,-2.966,-3.1097,-3.177,-3.1668,0.0,0.0,-3.1892,0.0,-3.0901,-3.1613,-3.1908,-3.0876,-3.205,-3.2882,-3.2955,-3.3271,-3.3356,-3.3041,0.0,0.0,0.0,-3.3785,-3.3649,-3.3196,-3.3255,0.0,-3.2935,-3.2738,-3.2843,-3.3209,-3.2814,-3.2203,-3.15,-3.0955,-3.0495,-3.0228,-3.0114,-3.0165,-3.0342,-2.964,-2.9397,-2.9346,-2.8394,-2.8009,-2.8009,-2.7971,-2.7873,-2.7806,-2.7806,-2.7653,-2.7523,-2.7523,-2.7523,-2.7523,-2.7523,-2.7523,-2.7523,-2.7523,-2.7523,-2.7523,-2.7523,-2.7523,-2.7523,-2.7523,-2.7523,-2.7523,-2.7523,-2.7523,-2.7523,-2.7523,-2.7523,-2.7523,-2.7523,-2.7523,-2.7523,-2.7523,-2.7403,-2.731,-2.7165,0.0,0.0,0.0,0.0,0.0,0.0,-2.5192,-2.5205,0.0,0.0,0.0,0.0,0.0,-2.2649,-2.3593,-2.3799,-2.4468,-2.5714,-2.5714,-2.6323,-2.7523,-2.7523,-2.7523,-2.7523,-2.7403,-2.7335,-2.7335,-2.7335,-2.7403,-2.7603,-2.7947,-2.8348,-2.8647,-2.8845,-2.9131,-2.9545,-3.0769,-3.1244,-3.149,0.0,0.0,-3.0903,-3.0651,-3.0851,-3.0964,-3.0778,-3.0962,-3.0964,-3.0553,-3.0819,-3.1062,-3.1218,-3.1373,-3.1622,-3.2199,-3.1898,-3.1915,-3.2675,-3.1953,-3.1954,-3.3014,-3.2277,-3.184,-3.1947,-3.1858,-3.2146,-3.2648,-3.2075,-3.1795,-3.1572,-3.1562,-3.1434,-3.1211,-3.0429,-2.9999,-2.9899,-2.8807,-2.8346,-2.8296,-2.7969,-2.7837,-2.7857,-2.7687,-2.7579,-2.7543,-2.7543,-2.7507,-2.7523,-2.7523,-2.7523,-2.7523,-2.7523,-2.7523,-2.7523,-2.7523,-2.7523,-2.7523,-2.7523,-2.7523,-2.7523,-2.7523,-2.7523,-2.7523,-2.7523,-2.7523,-2.7523,-2.7523,-2.7523,-2.7523,-2.7523,-2.7523,-2.7523,-2.7523,-2.7469,-2.709,-2.6078,-2.5652,0.0,0.0,-2.4366,-2.4874,-2.5205,-2.6154,-2.6426,0.0,0.0,0.0,0.0,0.0,-2.4962,-2.5902,-2.6138,-2.6464,-2.6854,-2.6933,-2.7129,-2.7523,-2.7523,-2.7523,-2.7523,-2.7469,-2.7523,-2.7656,-2.7656,-2.7802,-2.7947,-2.8183,-2.8643,-2.9237,-2.9015,-2.9944,-3.1399,-3.1267,-3.1836,-3.2685,-2.9878,-3.0301,-3.0642,-3.0592,-3.079,-3.0906,-3.0989,-3.1071,-3.1083,-3.1001,-3.1235,-3.1468,-3.1536,-3.1792,-3.1932,-3.215,-3.177,-3.1806,-3.2514,-3.1941,-3.1914,-3.2579,-3.2074,-3.1774,-3.1757,-3.1743,-3.1816,-3.2049,-3.1816,-3.1669,-3.1434,-3.1229,-3.1037,-3.0877,-2.998,-2.9587,-2.9548,-2.8595,-2.8196,-2.8145,-2.7816,-2.7666,-2.7627,-2.752,-2.7523,-2.7523,-2.7523,-2.7523,-2.7523,-2.7523,-2.7523,-2.7523,-2.7523,-2.7523,-2.7523,-2.7523,-2.7523,-2.7523,-2.7523,-2.7523,-2.7523,-2.7523,-2.7523,-2.7523,-2.7523,-2.7523,-2.7523,-2.7523,-2.7523,-2.7523,-2.7523,-2.7523,-2.7523,-2.7523,-2.7092,-2.6466,-2.5764,-2.5156,0.0,-2.4397,-2.4935,-2.5563,-2.6155,-2.684,-2.7009,-2.644,0.0,0.0,-2.605,-2.5576,-2.5755,-2.6824,-2.6943,-2.7079,-2.7268,-2.7335,-2.7403,-2.7523,-2.7523,-2.7523,-2.7523,-2.759,-2.7723,-2.7776,-2.7973,-2.8287,-2.8739,-2.8917,-2.969,-3.0646,-3.0426,-3.1317,-3.2594,-3.2275,-3.2576,-3.3112,-3.0929,-3.0753,-3.0671,-3.0847,-3.0929,-3.0916,-3.1148,-3.1322,-3.1415,-3.1322,-3.1778,-3.2149,-3.2241,-3.2659,-3.2707,-3.2342,-3.2059,-3.2109,-3.2516,-3.2516,-3.2371,-3.2038,-3.215,-3.215,-3.1904,-3.1963,-3.1817,-3.1522,-3.1649,-3.1523,-3.1127,-3.0388,-2.998,-2.998,-2.9275,-2.9015,-2.9104,-2.8503,-2.8242,-2.8203,-2.7719,-2.7523,-2.7523,-2.7523,-2.7523,-2.7523,-2.7523,-2.7523,-2.7523,-2.7523,-2.7523,-2.7523,-2.7523,-2.7523,-2.7523,-2.7523,-2.7523,-2.7523,-2.7523,-2.7523,-2.7523,-2.7523,-2.7523,-2.7523,-2.7523,-2.7523,-2.7523,-2.7523,-2.7523,-2.7523,-2.7523,-2.7523,-2.7471,-2.7301,-2.6465,-2.5759,-2.5589,0.0,-2.452,-2.5431,-2.5575,-2.6065,-2.7178,-2.7335,-2.7335,-2.7335,-2.644,0.0,0.0,-2.6154,-2.6077,-2.6985,-2.7011,-2.7079,-2.7268,-2.7403,-2.7523,-2.7523,-2.7523,-2.7523,-2.7523,-2.7723,-2.7908,-2.8039,-2.8352,-2.8903,-2.9628,-2.9856,-3.0733,-3.2028,-3.2028,-3.2516,-3.3256,-3.3256,-3.315,-3.3058,-2.9965,-2.9965,-2.9965,-2.9965,-2.9965,-3.0043,-3.0043,-3.0043,-3.003,-2.9758,-2.9824,-3.0136,-3.0701,-3.0778,-3.1057,-3.1668,-3.1673,-3.1713,-3.1801,-3.1625,-3.1585,-3.1668,-3.1554,-3.1601,-3.189,-3.2036,-3.1877,-3.136,-3.1003,-3.0692,-3.0255,-2.9881,-2.9618,-2.9379,-2.8943,-2.8681,-2.8477,-2.7902,-2.7667,-2.7654,-2.7749,-2.7656,-2.7523,-2.7723,-2.7656,-2.7523,-2.7523,-2.7523,-2.7523,-2.7523,-2.7523,-2.7523,-2.7523,-2.7523,-2.7523,-2.7523,-2.7523,-2.7523,-2.7523,-2.7523,-2.7523,-2.7523,-2.7523,-2.7523,-2.7523,-2.7523,-2.7523,-2.7523,-2.7523,-2.7523,-2.7523,-2.7523,-2.721,-2.6242,-2.5942,-2.5484,-2.4517,0.0,-2.5491,-2.5521,-2.6466,-2.7207,-2.7323,-2.7403,-2.7469,-2.7469,-2.73,-2.7274,-2.739,-2.7167,-2.7087,-2.7268,-2.693,-2.6863,-2.7011,-2.7335,-2.7523,-2.7523,-2.7523,-2.759,-2.7789,-2.7776,-2.8287,-2.9044,-2.9107,-2.9594,-3.0329,-3.0404,-3.0925,-3.1736,-3.1736,-3.2272,-3.2951,-3.2951,-3.2951,-3.2951,-2.9792,-2.9792,-2.9792,-2.9792,-2.9792,-2.9792,-2.9792,-3.0164,-3.0381,-3.0279,-3.0646,-3.1035,-3.1347,-3.1347,-3.1495,-3.189,-3.189,-3.1756,-3.1433,-3.1422,-3.1522,-3.1609,-3.1596,-3.1583,-3.1577,-3.124,-3.0909,-3.0623,-3.0286,-3.0011,-2.9797,-2.9206,-2.893,-2.893,-2.8462,-2.8198,-2.8185,-2.7921,-2.7802,-2.7802,-2.7789,-2.7723,-2.7656,-2.7656,-2.759,-2.7523,-2.7523,-2.7523,-2.7523,-2.7523,-2.7523,-2.7523,-2.7523,-2.7523,-2.7523,-2.7523,-2.7523,-2.7523,-2.7523,-2.7523,-2.7523,-2.7523,-2.7523,-2.7523,-2.7523,-2.7523,-2.7523,-2.7523,-2.759,-2.7656,-2.7656,-2.7736,-2.7631,-2.696,-2.6343,0.0,0.0,-2.5546,-2.5874,-2.5686,-2.6831,-2.759,-2.7403,-2.7469,-2.7523,-2.7523,-2.7523,-2.7523,-2.7523,-2.7469,-2.7403,-2.7268,-2.7134,-2.6998,-2.7024,-2.7335,-2.7523,-2.7656,-2.7656,-2.7789,-2.8,-2.843,-2.8853,-2.9296,-2.9794,-3.0389,-3.116,-3.116,-3.1637,-3.2358,-3.2358,-3.2594,-3.2897,-3.2897,-3.2897,-3.2897,-2.9792,-2.9792,-2.9792,-2.9792,-2.9792,-2.9792,-2.9792,-3.0318,-3.0761,-3.0836,-3.1421,-3.1823,-3.1834,-3.182,-3.1839,-3.1775,-3.1762,-3.1572,-3.111,-3.1231,-3.1269,-3.1269,-3.1401,-3.133,-3.0956,-3.04,-3.0089,-3.0019,-2.9621,-2.9416,-2.9402,-2.867,-2.8394,-2.853,-2.8067,-2.7934,-2.8079,-2.8079,-2.8079,-2.8,-2.7987,-2.7842,-2.7723,-2.7656,-2.7603,-2.7523,-2.7523,-2.759,-2.7603,-2.759,-2.7669,-2.7669,-2.7669,-2.7669,-2.7603,-2.759,-2.7523,-2.7523,-2.7523,-2.7523,-2.7523,-2.7523,-2.7523,-2.7523,-2.759,-2.759,-2.759,-2.7603,-2.7789,-2.7855,-2.7855,-2.8,-2.7986,-2.7485,0.0,0.0,0.0,-2.5998,-2.6166,-2.624,-2.7118,-2.7656,-2.7523,-2.7523,-2.7523,-2.7523,-2.7603,-2.7669,-2.7669,-2.7723,-2.7669,-2.7523,-2.7403,-2.7268,-2.7146,-2.7469,-2.7736,-2.7855,-2.7855,-2.8,-2.8197,-2.8817,-2.9233,-2.9608,-3.0208,-3.1043,-3.1864,-3.1864,-3.2231,-3.2773,-3.2773,-3.2773,-3.2773,-3.2773,-3.2843,-3.2897,-2.9792,-2.9792,-2.9792,-2.9792,-2.9792,-2.9792,-2.9792,-2.9869,-3.0011,-3.0368,-3.052,-3.0615,-3.081,-3.0828,-3.0757,-3.0512,-3.054,-3.0513,-3.0473,-3.0444,-3.0389,-3.0223,-3.0223,-3.014,-2.9891,-3.0046,-3.0019,-2.9824,-2.9278,-2.9012,-2.8944,-2.8346,-2.8146,-2.8146,-2.8106,-2.8079,-2.8079,-2.8079,-2.8,-2.7855,-2.8157,-2.7973,-2.7536,-2.7947,-2.7802,-2.7523,-2.7723,-2.7776,-2.7789,-2.8,-2.8079,-2.8079,-2.8079,-2.8079,-2.8013,-2.7855,-2.7656,-2.7523,-2.7523,-2.7523,-2.7523,-2.7523,-2.7523,-2.7523,-2.7723,-2.7776,-2.7855,-2.8013,-2.8079,-2.8079,-2.8079,-2.8079,-2.7719,-2.6601,0.0,0.0,-2.6294,-2.6184,-2.6519,-2.7525,-2.7604,-2.7523,-2.7523,-2.7523,-2.7523,-2.7523,-2.7868,-2.8079,-2.8079,-2.8327,-2.8457,-2.8222,-2.7723,-2.7469,-2.7469,-2.7868,-2.8079,-2.8079,-2.8079,-2.8131,-2.83,-2.8352,-2.9093,-3.0389,-3.0464,-3.1218,-3.2342,-3.2342,-3.2398,-3.2453,-3.2453,-3.2453,-3.2453,-3.2453,-3.2648,-3.2951,-2.875,-2.875,-2.875,-2.875,-2.875,-2.875,-2.875,-2.9109,-2.9464,-2.9598,-3.0118,-3.041,-3.0478,-3.0521,-3.051,-3.0432,-3.0405,-3.0242,-2.9862,-2.9835,-2.9998,-3.024,-2.9957,-2.9673,-2.9619,-2.9174,-2.8973,-2.8839,-2.8572,-2.8412,-2.8412,-2.8186,-2.8131,-2.8235,-2.8235,-2.8314,-2.8379,-2.8015,-2.7927,-2.8065,-2.7833,-2.7784,-2.7881,-2.7934,-2.7789,-2.7723,-2.7776,-2.7776,-2.7855,-2.8013,-2.8079,-2.8079,-2.8079,-2.8,-2.7855,-2.7656,-2.759,-2.7523,-2.7523,-2.7523,-2.7523,-2.7523,-2.759,-2.7723,-2.7776,-2.7934,-2.8,-2.8079,-2.8197,-2.8183,-2.8145,-2.8276,-2.8193,-2.7544,0.0,-2.7501,-2.7245,-2.7258,-2.7444,-2.7604,-2.7656,-2.7723,-2.7868,-2.7669,-2.7669,-2.8131,-2.8131,-2.821,-2.8406,-2.8522,-2.8587,-2.8509,-2.8365,-2.8157,-2.7776,-2.8118,-2.8235,-2.8235,-2.8235,-2.8481,-2.9079,-2.9456,-3.0208,-3.1116,-3.1522,-3.1921,-3.2398,-3.2398,-3.2398,-3.2398,-3.2398,-3.2398,-3.2453,-3.2648,-3.2827,-3.3043,-2.8024,-2.8109,-2.8109,-2.8109,-2.8109,-2.8109,-2.8109,-2.8592,-2.9093,-2.9164,-2.9824,-3.0186,-3.0133,-3.012,-3.0038,-2.9849,-2.9835,-2.9659,-2.9224,-2.9197,-2.9387,-2.9821,-2.9428,-2.9197,-2.9197,-2.8633,-2.8352,-2.8365,-2.8249,-2.8197,-2.8276,-2.8276,-2.8327,-2.8365,-2.8177,-2.816,-2.8275,-2.7678,-2.7525,-2.7695,-2.7368,-2.7337,-2.752,-2.7442,-2.7364,-2.7391,-2.7576,-2.7694,-2.7734,-2.8143,-2.8155,-2.8034,-2.8222,-2.8066,-2.7855,-2.7736,-2.7603,-2.7523,-2.7523,-2.7523,-2.7523,-2.7523,-2.759,-2.7723,-2.7776,-2.7934,-2.8,-2.8079,-2.8197,-2.8183,-2.8145,-2.8276,-2.8392,-2.8197,-2.8183,-2.817,-2.8052,-2.8,-2.8,-2.7868,-2.7855,-2.7987,-2.8131,-2.7921,-2.7921,-2.8406,-2.8392,-2.8509,-2.8908,-2.8908,-2.8908,-2.8908,-2.9008,-2.8881,-2.843,-2.843,-2.8546,-2.8803,-2.8725,-2.9093,-2.9827,-3.0269,-3.0881,-3.1537,-3.1936,-3.2216,-3.2398,-3.2398,-3.2398,-3.2398,-3.2398,-3.2453,-3.2578,-3.2843,-3.3043,-3.3361,-2.7925,-2.8084,-2.8097,-2.8097,-2.8097,-2.8097,-2.8097,-2.8363,-2.871,-2.9151,-2.9517,-2.9722,-2.9536,-2.9469,-2.9224,-2.8641,-2.8587,-2.8587,-2.8587,-2.8587,-2.8587,-2.8587,-2.8587,-2.8587,-2.8587,-2.843,-2.843,-2.8587,-2.843,-2.843,-2.8587,-2.8587,-2.8587,-2.856,-2.7963,-2.7691,-2.7664,-2.7067,-2.6675,-2.6539,-2.6688,-2.6627,-2.6294,-2.6478,-2.6417,-2.6374,-2.7149,-2.7413,-2.7521,-2.8319,-2.8193,-2.7813,-2.841,-2.8406,-2.8079,-2.8079,-2.7815,-2.7523,-2.7523,-2.7523,-2.7523,-2.7523,-2.7523,-2.7523,-2.7789,-2.7776,-2.7855,-2.8079,-2.8079,-2.8079,-2.8079,-2.8079,-2.8131,-2.83,-2.8197,-2.821,-2.8522,-2.8118,-2.7987,-2.8522,-2.8276,-2.8131,-2.83,-2.8287,-2.8235,-2.8145,-2.856,-2.9071,-2.954,-2.9602,-2.9602,-2.9602,-2.9602,-2.954,-2.9415,-2.8972,-2.9149,-2.9808,-2.958,-2.9827,-3.0524,-3.0524,-3.0881,-3.148,-3.148,-3.1823,-3.2398,-3.2398,-3.2398,-3.2398,-3.2398,-3.2594,-3.2897,-3.2897,-3.3256,-3.3694,-2.5227,-2.5769,-2.6151,-2.6151,-2.659,-2.6954,-2.6954,-2.7278,-2.761,-2.7965,-2.8384,-2.8665,-2.8872,-2.8858,-2.879,-2.8614,-2.8587,-2.8587,-2.8587,-2.8587,-2.8587,-2.8587,-2.8587,-2.8587,-2.8587,-2.8522,-2.8522,-2.8587,-2.8522,-2.8522,-2.8587,-2.8166,-2.7976,-2.7949,-2.7352,-2.7094,-2.7054,-2.643,-2.6283,-2.6499,-2.6275,-2.6296,-2.6417,-2.6478,-2.6733,-2.7109,-2.7346,-2.7682,-2.8058,-2.8454,-2.8478,-2.8356,-2.8376,-2.83,-2.817,-2.7987,-2.7789,-2.7656,-2.7523,-2.7523,-2.7523,-2.7523,-2.759,-2.7723,-2.7776,-2.7934,-2.8013,-2.8079,-2.8079,-2.8079,-2.7934,-2.8,-2.8079,-2.8131,-2.8183,-2.83,-2.8365,-2.8235,-2.8183,-2.8276,-2.8145,-2.821,-2.8444,-2.8327,-2.8392,-2.8972,-2.9212,-2.9401,-2.9602,-2.9602,-2.9602,-2.9602,-2.9602,-2.9602,-2.954,-2.9162,-2.9035,-2.9085,-2.8944,-2.9421,-3.0524,-3.0524,-3.1116,-3.2104,-3.2104,-3.2216,-3.2398,-3.2398,-3.2398,-3.2398,-3.2398,-3.2453,-3.2578,-3.2843,-3.3096,-3.345,-2.4047,-2.4492,-2.4933,-2.5229,-2.5804,-2.6358,-2.6645,-2.7121,-2.7523,-2.7736,-2.8066,-2.8406,-2.8587,-2.8587,-2.8587,-2.8587,-2.8587,-2.8587,-2.8587,-2.8587,-2.8587,-2.8587,-2.8587,-2.8587,-2.8587,-2.8587,-2.8587,-2.8587,-2.8587,-2.8587,-2.8587,-2.7976,-2.7705,-2.7664,-2.6823,-2.6457,-2.6416,-2.5805,-2.5679,-2.5873,-2.5625,-2.5706,-2.5899,-2.5899,-2.6263,-2.6816,-2.7058,-2.7517,-2.8133,-2.8505,-2.8587,-2.8546,-2.816,-2.8177,-2.8235,-2.7987,-2.7855,-2.7789,-2.7523,-2.7523,-2.7523,-2.7523,-2.759,-2.7656,-2.7656,-2.7802,-2.7868,-2.7868,-2.7868,-2.7802,-2.7723,-2.7868,-2.8,-2.8079,-2.8197,-2.8249,-2.8365,-2.8314,-2.8249,-2.8327,-2.8392,-2.8509,-2.878,-2.8716,-2.8844,-2.9352,-2.9477,-2.954,-2.9602,-2.9602,-2.9602,-2.9602,-2.9837,-2.9946,-2.9946,-2.9917,-2.9856,-2.9699,-2.9498,-3.0101,-3.1276,-3.1276,-3.1679,-3.2398,-3.2398,-3.2398,-3.2398,-3.2398,-3.2398,-3.2398,-3.2398,-3.2453,-3.2648,-3.2843,-3.315,-3.3503,-2.3756,-2.3975,-2.4204,-2.4945,-2.5417,-2.5963,-2.6756,-2.7443,-2.7934,-2.8079,-2.8406,-2.8587,-2.8587,-2.8587,-2.8587,-2.8587,-2.8587,-2.8587,-2.8587,-2.8587,-2.8587,-2.8587,-2.8587,-2.8587,-2.8587,-2.8587,-2.8587,-2.8587,-2.8587,-2.8587,-2.8587,-2.7936,-2.7623,-2.7569,-2.6362,-2.5805,-2.5778,-2.5236,-2.5005,-2.5005,-2.5005,-2.5032,-2.5086,-2.5086,-2.5493,-2.6131,-2.6701,-2.7284,-2.7868,-2.841,-2.8587,-2.8441,-2.7899,-2.8012,-2.8235,-2.8131,-2.7921,-2.7776,-2.7524,-2.7458,-2.7445,-2.7379,-2.7379,-2.7379,-2.7445,-2.7419,-2.7379,-2.7379,-2.7419,-2.7458,-2.7458,-2.7617,-2.7855,-2.8013,-2.8079,-2.821,-2.8522,-2.8276,-2.8276,-2.8716,-2.8753,-2.8817,-2.9035,-2.9226,-2.9352,-2.9352,-2.9415,-2.9477,-2.9602,-2.9602,-2.9602,-2.9602,-3.0115,-3.0404,-3.0404,-3.0911,-3.1087,-3.1029,-3.0881,-3.1349,-3.2342,-3.2342,-3.2342,-3.2398,-3.2398,-3.2398,-3.2398,-3.2398,-3.2398,-3.2398,-3.2398,-3.2578,-3.2843,-3.2897,-3.3203,-3.3642,-2.2241,-2.283,-2.3287,-2.3508,-2.4059,-2.4826,-2.5894,-2.6171,-2.6731,-2.7934,-2.8145,-2.8341,-2.8587,-2.8587,-2.8587,-2.8587,-2.8587,-2.8587,-2.8587,-2.8587,-2.8587,-2.8587,-2.8587,-2.8587,-2.8587,-2.8587,-2.8587,-2.8587,-2.8587,-2.8587,-2.8573,-2.7515,-2.7026,-2.6959,-2.5738,-2.5208,-2.5195,-2.5059,-2.5005,-2.5005,-2.5005,-2.5276,-2.5697,-2.5697,-2.6375,-2.7339,-2.7461,-2.7895,-2.841,-2.839,-2.8314,-2.8197,-2.8063,-2.8038,-2.8131,-2.7921,-2.7855,-2.7683,-2.717,-2.7051,-2.6933,-2.6675,-2.6555,-2.6612,-2.6946,-2.6823,-2.6555,-2.6555,-2.6786,-2.7051,-2.7051,-2.7354,-2.7656,-2.7855,-2.7855,-2.7921,-2.821,-2.8145,-2.8145,-2.821,-2.8276,-2.8314,-2.843,-2.8894,-2.9162,-2.9162,-2.9415,-2.954,-2.9602,-2.9602,-2.9602,-2.9602,-2.9713,-2.9775,-2.9775,-3.0343,-3.0793,-3.113,-3.0852,-3.1145,-3.1864,-3.1766,-3.1936,-3.2398,-3.2398,-3.2398,-3.2398,-3.2398,-3.2398,-3.2398,-3.2398,-3.2453,-3.2523,-3.2773,-3.3112,-3.345,-2.1807,-2.2101,-2.2628,-2.315,-2.4059,-2.5028,-2.6171,-2.6799,-2.7417,-2.8262,-2.8341,-2.8406,-2.8587,-2.8587,-2.8587,-2.8587,-2.8587,-2.8587,-2.8587,-2.8587,-2.8587,-2.8587,-2.8587,-2.8587,-2.8587,-2.8587,-2.8587,-2.8587,-2.8587,-2.8587,-2.856,-2.7379,-2.6823,-2.6769,-2.5548,-2.5005,-2.5005,-2.5005,-2.5005,-2.5005,-2.5005,-2.5358,-2.5887,-2.577,-2.6512,-2.7566,-2.7453,-2.7843,-2.8341,-2.8249,-2.8131,-2.8079,-2.8079,-2.8079,-2.8079,-2.7855,-2.7657,-2.7444,-2.701,-2.6784,-2.6555,-2.6374,-2.6155,-2.6102,-2.6502,-2.6459,-2.6294,-2.6294,-2.6485,-2.6635,-2.6635,-2.6997,-2.7393,-2.7523,-2.7749,-2.8,-2.8079,-2.8079,-2.8079,-2.8079,-2.8131,-2.8314,-2.8624,-2.8958,-2.9162,-2.9352,-2.9477,-2.9602,-2.9602,-2.9602,-2.9602,-2.9602,-3.0176,-3.0464,-3.0464,-3.1276,-3.1864,-3.2074,-3.1564,-3.1564,-3.2033,-3.1936,-3.2104,-3.2398,-3.2398,-3.2398,-3.2398,-3.2398,-3.2398,-3.2398,-3.2398,-3.2523,-3.2648,-3.2843,-3.315,-3.3555,-2.1873,-2.1807,-2.2101,-2.315,-2.4047,-2.5087,-2.6321,-2.7417,-2.817,-2.8379,-2.8522,-2.8587,-2.8587,-2.8587,-2.8587,-2.8587,-2.8587,-2.8587,-2.8587,-2.8587,-2.8587,-2.8587,-2.8587,-2.8587,-2.8587,-2.8587,-2.8587,-2.8587,-2.8587,-2.8546,-2.841,-2.7339,-2.6769,-2.6619,-2.5615,-2.51,-2.5018,-2.5113,-2.51,-2.5018,-2.5057,-2.5449,-2.5991,-2.5934,-2.6572,-2.7511,-2.741,-2.7666,-2.8079,-2.8079,-2.8013,-2.8,-2.7894,-2.7867,-2.7775,-2.7525,-2.7233,-2.6913,-2.6654,-2.6334,-2.6134,-2.6028,-2.5701,-2.552,-2.5955,-2.6062,-2.6062,-2.6062,-2.6142,-2.6209,-2.6209,-2.664,-2.7093,-2.7123,-2.7548,-2.7894,-2.8,-2.8013,-2.8013,-2.8013,-2.8183,-2.843,-2.8894,-2.9035,-2.9226,-2.954,-2.9602,-2.9602,-2.9602,-2.9727,-2.9727,-2.9602,-3.0629,-3.113,-3.1087,-3.2089,-3.2633,-3.2703,-3.216,-3.2048,-3.2453,-3.2398,-3.2398,-3.2398,-3.2398,-3.2398,-3.2398,-3.2398,-3.2398,-3.2398,-3.2398,-3.2594,-3.2897,-3.3005,-3.3361,-3.3781,-2.2025,-2.1959,-2.1883,-2.2025,-2.2467,-2.3191,-2.4337,-2.5451,-2.6514,-2.755,-2.817,-2.8587,-2.8587,-2.8587,-2.8587,-2.8587,-2.8587,-2.8587,-2.8587,-2.8587,-2.8587,-2.8587,-2.8587,-2.8587,-2.8587,-2.8587,-2.8587,-2.8587,-2.8587,-2.8329,-2.7813,-2.7135,-2.6538,-2.6009,-2.5846,-2.5493,-2.5032,-2.5561,-2.548,-2.5046,-2.5401,-2.5894,-2.6472,-2.6836,-2.7386,-2.8025,-2.7959,-2.7934,-2.7855,-2.7855,-2.7723,-2.7511,-2.7013,-2.6856,-2.6764,-2.6254,-2.5994,-2.59,-2.5511,-2.5374,-2.5263,-2.4922,-2.4794,-2.4753,-2.4949,-2.5077,-2.5192,-2.5192,-2.5482,-2.5654,-2.5654,-2.6089,-2.6525,-2.6903,-2.6997,-2.7157,-2.7524,-2.7603,-2.7603,-2.7603,-2.7868,-2.8197,-2.8365,-2.883,-2.9162,-2.9415,-2.954,-2.9602,-2.9602,-3.0054,-3.0115,-2.9602,-3.0162,-3.0222,-2.9713,-3.0147,-3.0674,-3.1131,-3.1522,-3.2033,-3.2578,-3.2453,-3.2398,-3.2398,-3.2398,-3.2398,-3.2398,-3.2398,-3.2398,-3.2398,-3.2398,-3.2594,-3.2951,-3.3398,-3.3797,-3.3969,-2.2327,-2.2111,-2.2101,-2.2553,-2.3054,-2.3694,-2.4636,-2.5557,-2.6458,-2.7404,-2.7762,-2.817,-2.8522,-2.8587,-2.8587,-2.8587,-2.8587,-2.8587,-2.8587,-2.8587,-2.8587,-2.8587,-2.8587,-2.8587,-2.8587,-2.8587,-2.8587,-2.8587,-2.8587,-2.8288,-2.7691,-2.7447,-2.6986,-2.6402,-2.605,-2.5738,-2.5493,-2.5426,-2.5236,-2.5059,-2.554,-2.6148,-2.6681,-2.7149,-2.7474,-2.7662,-2.7264,-2.6953,-2.6812,-2.6812,-2.6698,-2.653,-2.6282,-2.6203,-2.6138,-2.5903,-2.5651,-2.5411,-2.5269,-2.5024,-2.4824,-2.4629,-2.462,-2.462,-2.4677,-2.4734,-2.4835,-2.4948,-2.5151,-2.5283,-2.5283,-2.5593,-2.5955,-2.6148,-2.6559,-2.6946,-2.7144,-2.7327,-2.7603,-2.7802,-2.8013,-2.8276,-2.8688,-2.8958,-2.9226,-2.9477,-2.954,-2.9602,-2.9602,-2.9837,-2.9837,-2.9477,-3.0054,-3.0269,-3.0283,-3.0748,-3.1218,-3.1823,-3.1992,-3.2216,-3.2523,-3.2453,-3.2398,-3.2398,-3.2398,-3.2398,-3.2398,-3.2594,-3.2648,-3.2703,-3.285,-3.3065,-3.3398,-3.3797,-3.4,-3.4003]}]]